GFSSW_sfc_thetae_000.txt.gz
Theta_e
319 319 318 319 319 320 320 321 321 321 321 321 322 323 323 323 323 325 321 328 329 357 360 343 342 341 341 335 336 336 322 317 317 319 322 330 328 335 338 336 337 339 337 342 345
318 318 318 318 319 319 320 320 320 320 320 321 321 322 323 322 323 320 336 343 351 360 338 334 330 337 329 325 328 327 322 318 323 326 326 329 329 334 333 333 333 337 340 343 344
317 317 317 317 318 318 319 320 320 320 320 320 320 321 322 323 320 317 344 347 354 357 331 331 326 329 319 319 321 324 321 325 325 326 330 329 329 335 330 329 333 335 338 341 342
316 316 317 317 318 318 318 319 319 318 319 319 320 321 322 324 306 320 346 350 356 344 327 325 320 318 313 314 320 318 323 324 326 329 330 329 333 330 331 330 336 339 342 342 342
315 316 316 316 317 317 318 318 318 317 318 319 320 320 322 316 315 329 344 346 335 336 321 319 315 316 313 317 318 317 320 322 324 327 329 333 330 330 331 335 338 341 343 341 343
315 316 316 316 316 317 317 317 316 316 317 318 320 319 320 309 322 328 333 336 330 326 320 319 316 318 316 316 317 319 319 320 322 327 330 330 330 332 333 336 339 340 342 342 343
315 315 316 316 316 316 316 315 314 314 316 319 321 321 318 314 322 324 324 325 329 326 320 320 320 316 317 316 321 320 318 323 324 327 328 332 327 328 335 338 339 340 341 342 343
314 314 314 314 314 315 314 313 313 316 319 322 321 324 315 325 328 325 326 325 326 330 324 323 322 318 317 321 318 317 319 316 324 328 329 330 319 330 337 337 338 339 341 341 343
314 313 314 314 314 314 312 312 314 319 320 322 324 322 314 326 323 327 328 321 321 323 323 321 320 317 317 314 314 317 312 315 321 329 329 328 320 330 337 337 336 339 339 340 342
314 314 313 313 313 311 311 312 317 322 323 325 325 319 321 316 324 322 328 321 318 320 317 316 315 312 313 312 307 312 312 315 316 325 328 325 323 330 335 335 335 338 339 340 340
314 313 313 312 311 310 311 315 315 316 320 315 314 316 315 320 322 320 324 318 317 317 309 312 308 306 311 315 316 316 316 315 318 326 325 323 323 327 334 334 334 337 339 339 340
313 312 312 311 310 309 311 306 308 307 303 310 311 311 315 317 310 315 323 316 313 309 312 308 305 311 313 314 314 315 314 315 319 325 325 322 322 327 330 334 334 335 338 340 341
312 312 311 310 309 311 307 308 312 310 303 308 310 309 312 313 310 312 317 316 312 309 308 306 308 311 311 311 311 314 314 315 317 322 325 322 320 323 327 333 335 336 338 341 342
312 311 310 308 307 309 309 312 313 311 301 306 308 313 315 315 311 318 318 316 312 308 309 307 311 308 307 308 313 311 317 317 317 317 313 323 310 319 324 328 332 335 336 337 342
312 311 309 307 307 306 309 312 312 310 293 308 310 320 318 314 314 314 319 315 309 309 310 307 307 306 306 308 312 312 317 316 316 316 316 318 314 317 322 322 328 333 336 336 338
311 309 308 309 310 309 311 312 312 301 293 304 311 310 311 313 312 314 313 317 315 310 311 310 313 310 309 311 312 316 315 315 316 314 308 315 313 312 316 321 324 330 335 337 337
309 307 307 309 305 313 312 307 298 295 305 303 305 310 309 307 309 311 309 308 306 304 304 307 308 310 310 308 311 313 312 305 304 304 304 316 313 314 319 321 324 323 330 337 338
307 305 310 310 312 312 308 299 293 299 301 307 307 308 305 308 307 309 308 305 309 309 306 302 299 307 310 308 308 309 311 305 300 301 304 313 308 313 322 324 325 326 329 336 338
306 308 307 312 313 312 303 292 296 300 304 303 305 303 304 307 305 307 307 307 309 310 305 304 303 310 310 311 311 310 308 314 309 310 305 308 313 318 321 322 325 326 330 332 337
305 304 304 312 316 309 298 293 299 302 304 306 301 304 301 304 303 305 306 309 308 312 314 310 303 309 310 311 312 311 314 306 309 302 300 305 308 310 317 318 321 324 328 332 337
304 298 308 318 315 305 295 296 299 303 303 302 301 302 303 303 304 304 305 309 311 311 314 312 308 306 309 306 306 308 307 310 311 308 302 301 306 318 318 320 320 322 330 331 335
301 293 309 315 301 301 297 300 299 301 303 301 303 302 302 304 303 304 304 307 312 313 309 313 310 303 304 310 311 311 309 311 305 306 308 307 306 319 320 321 322 322 324 327 335
297 297 307 307 292 294 300 299 301 300 300 301 299 302 304 302 301 303 305 309 310 311 311 313 308 302 304 306 309 306 309 311 312 312 310 304 306 319 320 321 323 326 329 331 336
298 292 299 304 301 298 297 297 297 302 301 302 302 304 301 301 305 302 304 307 311 310 322 317 309 305 301 304 307 304 305 308 309 306 307 307 310 315 317 319 321 324 330 332 337
298 294 298 292 298 299 300 298 295 296 301 304 301 302 301 299 301 302 305 307 311 315 315 317 309 310 308 309 309 307 306 306 305 307 306 309 310 315 318 319 321 323 326 331 336
294 295 298 294 295 294 294 294 295 296 299 299 300 301 302 301 302 301 304 306 305 311 311 314 309 311 308 310 309 306 308 307 306 307 308 309 310 318 320 321 321 322 324 331 336
300 300 294 292 290 290 292 294 294 297 299 301 301 300 300 303 307 309 310 311 312 310 310 312 311 311 305 310 308 304 308 308 307 309 309 306 311 316 316 319 322 323 328 331 336

GFSSW_sfc_thetae_003.txt.gz
Theta_e
319 319 319 319 319 320 320 321 321 321 321 322 322 323 323 324 323 327 324 332 333 357 361 343 342 336 339 334 335 332 320 317 317 319 320 325 324 330 336 333 335 337 340 345 350
318 318 318 318 319 319 320 320 320 321 321 321 322 322 323 324 324 321 338 355 356 355 337 332 329 332 329 329 331 326 319 319 324 326 324 325 325 328 329 331 332 335 343 347 349
317 317 318 318 318 319 319 320 320 320 320 320 320 321 323 324 321 320 345 350 359 355 330 331 329 329 325 327 325 325 321 325 325 327 329 326 326 329 328 326 332 333 338 343 346
316 316 316 317 317 318 318 319 318 318 318 319 320 321 323 325 308 326 348 349 357 340 331 326 325 321 321 319 323 320 326 326 327 327 328 325 329 326 326 329 335 339 340 342 344
316 315 315 316 316 317 317 317 317 316 317 318 319 321 323 318 317 332 351 347 339 330 328 322 320 319 318 319 322 320 323 324 325 327 328 331 327 325 326 331 336 340 340 340 343
314 315 316 316 315 316 317 316 315 315 316 317 320 321 321 312 324 329 328 331 328 327 323 322 320 321 319 319 320 323 323 322 324 326 328 327 327 328 328 333 335 339 339 340 341
314 315 315 315 315 314 315 315 314 314 316 319 320 323 319 317 325 326 330 327 328 326 322 322 322 318 319 317 322 322 318 322 323 324 325 328 323 323 330 335 334 337 339 339 341
313 314 314 314 314 314 314 313 312 315 319 322 324 324 315 327 329 325 325 324 326 328 325 325 323 320 318 322 321 318 319 315 323 323 325 326 319 327 333 332 332 336 339 339 341
313 314 314 314 314 313 312 311 313 319 321 322 325 324 315 328 323 326 327 323 324 324 327 324 322 317 317 313 313 317 311 314 318 324 326 324 320 329 334 331 331 334 337 339 340
314 314 314 313 313 311 310 310 317 321 324 327 326 320 321 319 324 325 328 324 319 321 319 317 316 312 313 313 307 312 313 316 318 321 326 322 321 329 333 332 329 332 335 338 339
313 313 313 312 311 310 311 318 318 319 324 317 318 317 318 322 327 322 325 321 319 318 311 314 309 307 311 315 316 317 316 315 319 322 322 322 322 326 332 332 331 331 333 336 338
313 313 312 311 310 309 312 311 311 311 305 313 315 316 318 320 314 319 324 315 313 310 313 310 306 312 315 316 315 315 315 316 319 320 322 321 321 326 332 332 332 332 332 334 337
313 312 312 310 309 312 310 311 315 314 306 310 314 313 315 316 312 313 317 317 312 309 311 308 310 313 313 314 313 314 314 315 316 322 324 321 319 322 328 333 334 334 335 335 335
313 312 311 308 307 310 310 315 316 314 302 307 310 313 316 317 310 318 321 315 314 309 310 310 313 311 311 311 314 311 317 317 317 315 312 320 310 320 323 326 332 334 334 334 336
313 312 310 307 308 308 311 314 314 312 294 311 312 321 319 315 317 316 322 316 311 311 311 308 309 310 308 310 315 312 318 317 317 317 316 315 312 317 322 321 326 333 335 335 336
312 310 309 309 312 314 314 313 312 300 295 307 313 312 313 314 314 317 315 318 317 312 312 311 315 312 312 313 315 317 315 317 316 315 308 315 312 315 317 322 325 330 335 337 338
310 308 308 310 306 314 314 309 299 295 308 306 308 311 310 310 311 312 311 310 307 304 306 309 310 313 313 310 314 314 312 305 304 305 304 315 314 317 324 324 326 326 329 336 339
308 305 311 313 315 314 309 301 293 302 304 310 309 311 307 311 310 311 310 307 311 310 307 304 302 310 312 310 309 311 311 305 300 302 306 314 309 315 325 326 326 328 327 332 338
306 311 310 313 314 313 303 293 297 302 307 306 308 306 307 309 310 309 309 309 311 311 306 306 305 313 313 313 311 310 308 314 309 311 307 310 315 320 324 324 325 325 326 327 335
307 308 308 314 317 311 300 294 301 305 307 307 303 306 304 307 307 307 308 311 311 313 314 310 305 312 311 313 312 310 314 307 310 303 302 307 310 311 318 320 322 324 324 327 332
307 302 312 315 317 306 295 298 301 305 306 303 303 305 306 306 307 307 307 310 312 313 314 312 310 309 312 308 307 307 308 311 311 309 303 303 308 319 320 323 322 324 325 327 331
305 298 312 315 302 303 299 302 301 304 307 304 304 304 305 306 306 306 306 310 314 314 310 313 310 306 308 313 313 311 308 309 307 307 309 309 308 321 322 322 323 324 326 328 332
300 302 310 308 293 296 300 301 303 303 303 303 301 303 305 304 302 306 308 312 313 313 312 313 308 303 306 310 312 308 309 310 311 312 311 305 308 321 322 322 324 324 325 328 331
300 295 302 303 302 297 296 297 297 303 302 303 302 304 302 301 305 303 306 310 312 311 322 317 311 307 303 307 309 306 307 309 309 306 308 308 311 317 320 320 322 324 326 328 330
299 296 300 295 297 297 297 298 296 296 302 304 301 301 301 299 300 301 306 309 310 315 312 314 308 310 310 311 311 308 306 307 306 308 306 310 311 316 320 321 323 324 325 326 328
297 296 299 297 298 295 293 294 292 295 296 296 297 300 302 300 302 300 304 307 308 311 312 314 309 311 307 310 309 307 309 308 308 308 308 310 310 319 321 324 323 323 324 324 326
302 304 299 294 295 294 293 293 294 295 296 299 299 297 300 303 305 307 309 311 310 311 311 313 311 311 306 311 310 305 308 309 310 311 309 306 311 316 318 321 324 324 324 325 329

GFSSW_sfc_thetae_006.txt.gz
Theta_e
318 318 319 319 319 320 320 321 321 321 321 321 321 322 323 323 323 324 322 328 333 359 357 342 340 338 335 330 333 334 318 317 317 317 317 324 322 331 336 332 337 338 338 342 348
318 318 318 318 318 319 319 320 320 320 320 320 320 321 323 324 320 318 330 349 355 357 326 326 330 333 326 327 329 325 320 319 323 324 321 323 323 325 327 328 331 336 341 344 348
316 317 317 317 317 318 318 318 319 319 319 319 320 321 322 323 318 319 354 357 358 349 324 325 328 328 323 326 326 326 318 324 325 326 326 323 323 326 326 323 330 335 338 341 344
316 316 316 316 317 316 317 317 318 318 317 318 319 320 323 322 307 324 351 354 357 334 324 322 323 321 320 320 325 319 324 325 325 326 326 323 326 323 326 327 334 339 342 342 342
315 316 316 316 316 316 316 317 316 316 317 317 318 320 321 315 317 329 352 348 334 327 322 322 320 321 317 321 322 319 323 325 326 326 326 327 324 324 324 331 335 338 341 341 341
314 315 316 316 316 316 316 316 316 315 315 317 319 320 318 307 325 330 328 329 326 323 322 324 320 323 320 319 319 321 322 322 324 324 325 326 325 325 325 331 332 335 337 340 341
314 314 315 315 315 315 316 315 314 314 315 318 321 321 315 311 327 327 326 326 326 325 319 324 324 320 321 317 322 320 317 320 321 322 323 327 322 322 327 328 330 333 335 338 340
315 314 315 315 315 315 314 313 313 314 317 321 323 323 311 321 326 325 325 324 326 327 324 324 324 319 319 320 318 315 317 312 320 322 323 324 317 323 329 327 327 332 333 335 338
314 314 315 315 314 313 312 311 313 317 321 323 323 322 313 330 322 326 326 320 321 323 325 324 322 315 316 312 310 313 309 311 315 323 322 321 318 325 330 328 327 330 333 334 338
314 314 314 314 313 312 310 311 317 319 324 326 325 319 322 318 323 323 325 322 320 319 317 318 316 312 311 310 303 307 310 313 313 320 320 318 319 322 327 327 327 328 331 334 334
313 313 313 313 312 310 309 316 316 317 321 318 318 314 317 323 325 323 325 322 320 316 311 315 309 306 310 312 313 313 314 312 316 322 319 320 319 319 324 329 326 329 329 332 335
313 313 313 312 311 310 311 313 312 312 304 311 314 319 322 323 317 321 324 316 314 309 313 310 305 310 314 314 312 313 312 313 318 322 321 319 321 322 328 329 329 327 329 330 332
313 313 312 311 310 312 313 309 317 315 304 307 311 311 315 320 315 315 320 318 311 308 310 306 309 312 312 312 311 312 311 313 314 319 321 318 316 322 327 329 330 331 331 331 333
313 312 312 310 309 309 308 317 316 314 299 305 310 312 314 315 310 317 319 316 313 308 309 310 313 310 309 310 313 308 315 314 314 314 310 319 307 320 321 327 328 329 330 331 333
312 312 310 308 306 307 312 315 314 311 292 311 311 320 316 311 313 313 318 315 308 309 311 307 309 308 307 309 313 311 316 314 314 313 315 316 311 317 324 321 327 329 331 332 335
312 311 309 309 310 312 315 314 311 298 292 308 313 311 310 311 314 317 313 316 316 309 312 311 314 312 311 312 313 316 314 313 314 312 306 313 311 312 318 320 323 329 332 334 335
310 308 308 309 305 313 313 309 297 293 309 306 309 312 311 309 310 313 310 309 307 302 304 309 309 312 313 309 312 311 309 304 302 304 303 313 312 316 323 325 325 324 330 335 337
308 306 310 312 315 315 310 300 292 301 302 312 311 311 307 311 310 310 310 307 310 308 305 303 301 309 313 309 308 308 308 304 298 301 304 313 308 314 326 327 328 328 330 335 337
307 310 310 312 315 314 304 291 296 301 307 307 309 306 307 309 310 309 309 308 309 310 305 304 304 313 312 313 311 308 305 311 306 308 305 309 313 318 323 325 324 324 328 329 336
305 306 310 316 315 310 299 293 299 304 307 307 303 306 304 307 307 308 308 311 310 312 313 309 303 311 312 313 313 309 312 303 306 300 300 306 309 312 318 323 326 326 326 328 330
305 302 310 315 314 305 295 296 299 304 304 301 301 302 305 306 308 307 307 311 313 313 314 311 308 307 312 309 307 307 305 307 308 307 302 302 307 321 323 326 326 326 327 327 329
303 296 312 315 301 302 298 301 301 303 306 305 305 303 302 304 306 307 307 310 314 314 309 312 308 304 306 313 313 311 308 307 302 304 307 307 308 320 325 326 325 326 327 329 330
298 299 308 307 294 295 300 300 303 303 304 303 302 304 305 302 301 304 308 313 314 312 310 312 307 303 303 309 312 308 309 309 307 308 306 303 307 320 324 326 328 326 327 331 337
298 293 300 303 301 297 296 296 296 302 302 303 303 305 303 301 304 302 304 309 313 313 322 316 309 307 302 305 310 308 308 309 307 302 304 306 311 316 321 322 325 328 329 331 339
299 295 298 292 295 296 297 297 294 296 301 303 300 300 300 298 300 300 303 305 310 315 314 312 306 309 308 309 310 309 308 308 307 308 304 308 309 317 320 323 323 327 330 331 336
294 295 299 296 297 294 293 292 292 296 297 296 295 298 299 297 298 294 299 304 305 310 310 311 306 308 306 310 309 308 310 309 308 309 309 309 309 318 322 323 326 326 328 328 330
300 301 297 294 294 292 292 292 292 295 297 298 296 295 296 299 302 303 304 304 306 306 310 310 307 308 304 308 308 304 309 310 310 310 309 306 312 318 317 320 325 329 328 329 330

GFSSW_sfc_thetae_009.txt.gz
Theta_e
318 318 318 318 318 318 319 319 320 320 321 320 320 321 322 323 322 320 316 323 330 353 354 332 338 335 338 334 333 333 317 314 315 316 314 321 326 334 337 334 336 337 336 340 344
317 317 318 318 317 317 318 318 318 319 319 319 320 320 321 322 317 312 325 343 348 357 327 320 322 331 324 324 323 320 316 317 323 323 317 321 328 329 332 332 332 335 340 343 345
316 316 316 317 317 317 317 318 317 317 317 318 319 320 321 321 314 313 350 340 345 351 326 320 318 321 320 322 319 320 314 321 323 325 322 320 321 326 328 327 331 332 337 341 343
315 315 315 316 316 316 316 317 317 316 316 317 318 319 321 318 299 321 351 353 349 340 324 318 314 310 312 313 319 316 321 323 324 326 322 319 320 323 324 330 337 339 341 342 340
315 315 315 315 315 316 316 317 316 316 316 317 318 319 316 310 311 321 352 353 342 329 320 316 311 311 310 315 317 316 319 323 325 325 322 324 321 323 324 336 339 339 340 340 340
315 315 316 316 316 316 317 316 316 315 315 317 318 320 314 302 315 321 330 332 327 321 317 316 314 316 314 315 313 317 318 321 323 320 324 321 321 322 328 338 337 338 336 338 341
315 315 315 316 315 316 316 315 315 314 314 317 319 319 312 306 317 326 322 323 323 320 314 318 320 316 314 313 318 316 312 315 317 317 318 324 317 318 328 332 335 336 337 337 338
315 315 315 315 315 315 314 313 313 314 316 318 322 318 308 317 317 315 316 318 323 320 320 317 319 315 311 315 314 310 307 303 313 316 318 318 312 323 324 329 330 333 336 337 337
315 314 314 315 314 313 312 312 314 317 318 322 317 315 310 327 316 317 318 317 318 318 320 323 316 310 310 305 302 303 299 303 308 318 318 316 311 320 321 326 326 330 332 334 336
314 314 314 313 313 312 311 311 314 317 321 324 322 312 318 314 318 319 320 321 315 314 313 313 309 304 305 300 295 298 300 304 306 313 316 314 313 320 323 321 326 327 329 331 333
314 313 313 313 312 310 308 305 307 307 316 313 312 311 312 318 322 319 320 316 314 310 304 307 302 300 302 304 306 306 305 305 309 317 315 316 316 320 319 320 320 326 327 329 331
313 313 313 312 311 309 307 305 308 305 300 307 308 312 318 320 314 316 320 311 309 305 306 303 301 306 309 308 306 306 304 304 310 317 314 317 316 320 320 318 321 323 327 328 330
313 313 312 311 309 309 303 304 311 308 297 302 306 306 307 313 313 314 316 313 308 305 305 301 304 311 308 307 306 305 303 305 306 314 317 317 313 315 318 321 323 325 327 330 330
313 312 311 309 306 304 304 312 312 309 291 298 303 306 308 309 307 318 319 313 309 304 305 304 309 308 305 304 306 302 309 309 308 307 304 316 304 312 317 324 325 326 324 326 330
313 312 310 309 302 303 308 311 311 305 285 307 307 313 308 304 308 312 319 313 307 307 303 301 306 305 304 304 307 305 311 309 309 306 307 310 304 307 317 317 319 323 324 326 328
312 311 309 306 305 306 309 309 305 291 287 302 309 305 303 304 306 309 312 313 311 307 307 306 310 307 307 309 308 310 308 308 307 304 298 305 306 305 310 316 319 324 326 326 327
310 308 307 307 301 308 308 304 290 287 304 303 303 306 304 302 303 305 305 303 300 296 297 302 304 309 309 304 306 306 299 296 295 295 294 302 305 306 317 319 322 324 325 328 328
308 306 307 309 310 309 306 294 286 297 297 305 304 306 302 305 304 304 303 300 303 301 297 295 294 304 309 305 302 301 301 296 289 293 296 302 300 305 319 323 326 328 329 330 329
307 305 304 307 310 309 300 289 290 296 301 302 300 300 302 306 306 304 303 301 303 304 298 296 297 308 309 310 307 301 298 302 294 297 295 299 303 310 318 319 322 323 325 327 329
303 301 303 310 313 306 296 290 294 300 300 298 292 297 293 297 301 304 302 307 306 309 308 301 295 305 309 309 308 304 303 296 299 290 291 298 299 302 308 316 320 321 322 324 327
302 297 304 309 309 301 291 292 296 300 301 297 296 295 296 296 297 297 303 308 309 309 308 305 300 300 305 303 301 302 300 298 297 298 293 292 298 306 310 317 319 321 323 323 327
299 291 305 306 294 298 293 297 299 300 303 300 300 298 297 298 297 297 297 302 312 311 305 306 301 296 300 307 309 306 300 299 294 291 295 296 298 312 313 318 322 321 322 322 323
294 295 304 303 288 291 296 297 299 298 298 298 298 301 302 298 295 298 300 306 307 306 306 307 301 294 297 301 306 303 304 301 301 295 294 293 298 311 312 313 317 317 322 322 322
296 288 295 298 298 293 291 292 292 299 297 298 298 300 298 296 298 296 298 304 306 305 320 312 301 300 295 297 300 300 303 304 300 296 295 297 298 304 309 314 316 320 320 322 322
298 291 294 288 291 291 293 292 290 290 296 297 295 295 293 291 293 294 297 298 302 307 306 301 299 301 303 305 305 303 304 304 301 300 296 298 299 303 307 316 317 319 321 322 324
292 292 294 290 292 290 291 290 290 291 292 291 292 294 294 291 292 291 294 294 294 299 297 299 297 301 300 305 305 303 305 306 304 304 303 303 302 306 309 310 320 319 318 317 325
301 300 295 290 289 288 289 290 290 293 294 296 294 293 292 295 298 298 298 297 297 296 295 296 296 298 295 302 302 298 303 305 306 306 305 300 304 306 307 309 313 318 320 316 319

GFSSW_sfc_thetae_012.txt.gz
Theta_e
317 317 317 317 317 318 318 318 319 319 318 319 319 320 321 322 321 320 312 319 324 354 356 346 342 338 344 340 337 334 315 313 313 315 319 329 328 334 338 333 334 337 335 338 342
316 316 316 316 317 317 317 318 318 318 318 318 318 319 320 321 316 312 322 341 345 353 329 320 329 330 323 325 331 323 313 315 322 321 321 328 329 331 331 330 331 333 338 340 343
316 316 316 316 316 316 317 317 317 317 317 317 318 319 320 320 310 310 351 343 346 352 328 323 319 323 321 320 319 316 312 320 324 325 328 328 330 333 329 326 330 331 334 339 340
315 315 315 315 316 316 316 316 316 316 316 316 317 318 320 316 295 315 354 352 346 337 325 318 313 306 305 307 314 310 317 320 324 325 324 326 330 331 331 331 336 337 338 339 338
315 315 315 315 315 316 316 316 316 315 315 316 317 319 313 306 308 314 349 352 340 331 322 316 309 306 304 307 312 311 314 319 324 323 322 321 327 330 330 336 339 339 340 339 338
316 316 316 316 316 316 317 316 316 315 315 316 317 319 310 296 309 314 318 329 327 322 319 315 311 310 307 309 309 314 314 314 321 321 321 318 321 326 332 337 337 337 337 339 339
315 315 315 315 316 316 316 315 315 315 315 316 317 317 311 301 312 313 319 320 323 319 313 316 316 310 310 309 314 313 308 311 311 318 319 321 319 325 333 336 335 336 337 339 339
315 315 315 315 315 315 314 313 313 315 316 317 319 315 304 315 314 311 312 310 316 319 318 315 316 311 309 312 310 305 303 299 309 312 321 317 311 328 334 333 333 335 337 338 338
315 315 315 314 314 313 312 312 313 317 317 321 313 310 305 325 316 315 312 311 312 314 316 320 311 307 307 302 298 299 296 299 303 311 319 315 310 323 333 332 330 332 335 336 337
314 314 314 313 312 311 311 311 312 316 320 321 321 306 309 310 318 315 312 313 312 313 311 312 306 302 299 296 292 295 296 299 301 307 314 311 311 319 331 331 330 331 332 333 336
314 314 313 313 311 310 307 301 301 299 310 308 307 309 310 314 320 315 314 313 312 307 301 304 298 299 300 300 301 301 299 299 304 308 312 312 312 316 326 329 329 330 331 332 333
314 313 313 312 311 309 305 301 304 302 294 304 305 308 312 313 311 316 316 308 306 301 301 299 297 302 305 304 303 301 300 300 304 308 311 311 312 317 321 324 327 328 329 331 333
313 313 312 311 310 304 299 299 306 305 292 298 304 303 304 307 306 309 312 308 304 301 301 298 300 306 306 304 302 300 299 300 300 306 311 314 310 313 318 320 324 327 329 331 332
313 313 312 310 300 301 301 305 306 305 288 294 297 302 304 305 302 312 316 310 306 302 303 301 305 305 304 303 302 296 305 304 304 300 297 313 299 312 315 315 318 323 325 327 330
313 312 310 309 299 299 304 305 306 297 284 303 301 308 303 301 303 306 315 310 305 303 301 299 302 302 302 303 305 301 306 305 305 301 297 303 301 306 316 312 318 320 323 327 329
312 311 309 303 300 302 305 304 298 289 284 298 304 300 298 299 302 307 310 311 309 305 304 302 306 305 305 307 307 307 302 302 301 300 293 301 304 301 309 314 318 322 324 326 329
310 308 307 306 297 303 304 298 286 283 298 299 297 299 296 297 300 300 306 304 301 293 297 301 303 304 305 300 303 301 294 291 290 292 291 298 299 303 313 319 321 322 322 324 328
307 306 305 305 303 304 300 290 281 292 293 299 296 298 296 297 298 300 297 302 303 296 293 294 293 300 304 303 298 296 296 292 285 287 291 298 294 302 314 322 324 325 325 325 325
306 299 300 299 304 302 293 284 285 290 296 294 295 292 293 297 296 297 297 298 303 302 293 290 293 302 305 306 304 299 292 299 290 292 290 294 298 304 309 315 322 323 324 325 325
300 295 297 304 304 299 289 287 289 296 297 296 289 292 289 292 293 294 293 300 301 304 303 296 290 299 304 305 305 300 301 293 288 287 287 291 294 299 303 307 314 320 322 325 326
296 290 298 301 299 293 286 287 293 297 299 295 292 292 293 292 294 293 294 299 302 303 304 301 295 297 300 298 299 299 296 291 294 292 290 286 294 302 304 307 311 320 325 326 327
292 285 298 302 286 287 289 291 296 296 299 297 297 296 294 295 293 294 294 297 304 303 297 300 297 294 298 302 305 304 299 295 294 289 292 295 295 305 307 308 314 318 323 328 329
290 288 298 295 282 284 290 292 295 294 293 293 293 295 296 292 290 294 295 303 302 300 298 300 297 293 291 296 297 297 301 300 291 291 293 290 292 304 305 306 314 317 319 322 321
289 284 288 290 293 287 286 289 289 296 294 295 292 295 293 290 292 290 294 299 300 301 308 299 293 293 293 296 297 295 299 300 298 295 294 294 294 298 302 306 309 315 321 321 323
289 285 288 282 287 288 289 289 288 288 293 293 290 291 291 286 289 290 294 295 297 302 297 293 286 292 296 300 302 301 300 301 297 298 295 298 294 298 300 302 307 311 317 317 322
291 290 291 287 286 285 288 287 287 289 290 288 288 292 290 287 290 288 291 290 290 294 292 292 287 292 293 300 302 300 302 303 302 301 300 297 296 301 304 305 308 313 317 317 318
295 298 293 289 284 282 283 287 287 290 292 293 291 290 289 292 294 296 295 295 294 291 291 289 288 288 287 297 300 296 302 302 302 302 302 296 299 302 303 305 306 309 311 315 318

GFSSW_sfc_thetae_015.txt.gz
Theta_e
317 317 316 316 317 317 318 318 318 318 318 318 318 319 319 320 320 318 307 315 320 358 361 355 349 347 344 341 335 334 313 310 311 314 318 328 327 333 337 332 333 335 333 336 342
317 316 316 316 316 317 317 318 318 318 317 318 318 318 319 320 314 311 321 339 343 360 346 345 338 339 334 335 333 323 311 313 319 319 323 328 329 330 330 329 330 332 336 340 341
316 316 316 316 316 316 316 317 317 317 317 317 317 318 319 319 307 303 341 341 346 355 330 336 333 330 320 320 330 325 318 321 321 322 329 328 329 332 328 325 329 328 333 337 339
315 315 315 315 316 316 316 316 316 316 316 316 317 318 319 314 294 310 356 352 350 330 323 319 313 309 309 316 323 312 322 326 322 320 329 327 330 328 329 328 334 334 336 336 337
315 315 315 315 315 315 315 315 315 315 315 316 316 317 311 303 302 310 348 348 341 327 319 313 308 306 302 304 309 314 316 315 318 320 329 331 329 328 328 334 336 336 336 335 337
316 316 316 316 316 315 316 316 315 314 315 316 317 317 306 292 307 312 312 331 328 324 318 314 310 308 305 305 306 311 312 312 313 313 328 327 329 329 330 335 335 335 334 336 337
316 316 316 316 316 316 315 314 314 314 315 316 317 314 309 298 308 311 315 318 324 321 314 316 313 308 306 304 310 310 307 308 309 310 322 328 323 325 332 335 333 333 335 336 337
315 316 316 316 316 315 314 313 313 314 317 318 318 312 298 311 312 308 308 305 317 318 313 314 314 308 306 310 308 302 301 298 306 309 313 321 311 325 333 332 331 333 334 335 336
316 315 315 315 314 313 312 311 313 317 318 320 312 308 300 321 315 312 309 307 307 310 315 321 311 305 305 302 297 297 296 298 302 308 315 314 310 327 332 331 330 332 334 335 336
315 315 314 314 313 312 310 312 312 316 320 320 319 303 306 306 318 314 310 310 309 309 310 309 303 298 296 295 292 294 295 296 298 305 313 309 310 326 330 330 330 331 333 334 335
314 314 314 313 312 310 307 302 299 298 306 303 305 305 306 311 316 313 310 308 308 306 300 303 299 294 297 298 300 299 297 297 301 306 308 309 310 324 328 329 329 331 332 333 335
314 313 313 312 310 309 302 296 301 299 292 301 302 303 309 309 305 308 311 303 303 298 300 297 297 301 304 302 300 299 297 297 301 305 305 306 308 324 327 327 330 330 332 333 335
313 313 312 311 309 303 299 298 303 299 290 296 300 300 301 305 302 304 308 305 302 299 298 297 298 303 303 301 299 296 296 298 298 302 304 308 306 312 326 328 329 331 332 334 333
313 312 311 309 299 300 299 303 303 302 286 293 295 299 302 304 300 309 314 307 303 301 299 297 302 302 301 300 300 293 301 302 300 297 293 307 297 306 314 323 325 328 330 331 332
312 311 309 308 298 297 300 303 305 294 284 302 298 305 301 300 301 303 313 308 302 300 299 297 300 300 298 301 301 299 303 302 301 297 293 298 297 301 312 312 317 323 327 330 332
311 309 308 302 298 301 303 302 295 287 282 296 300 297 296 298 300 305 306 309 307 302 301 301 304 304 301 304 304 305 300 298 297 294 289 297 296 297 306 312 315 319 324 327 330
309 307 306 305 295 300 302 296 285 281 296 295 293 295 294 294 297 300 302 302 298 295 295 299 302 301 304 299 301 300 293 287 285 287 289 296 295 300 307 316 318 318 321 326 328
307 306 303 303 301 302 296 288 280 290 289 296 295 295 292 295 295 296 300 299 303 296 296 293 291 301 302 300 297 295 295 286 282 284 290 294 291 298 311 315 321 322 322 324 326
306 299 296 299 302 299 291 281 283 288 294 293 294 290 291 294 294 294 292 299 303 298 294 291 293 301 305 303 303 295 293 298 288 287 286 291 296 301 307 309 315 319 321 323 324
299 295 294 302 301 295 288 284 286 294 295 295 288 291 288 290 291 291 291 296 296 302 297 294 289 296 302 303 302 300 299 291 285 285 285 288 291 294 300 304 310 317 319 321 324
293 288 296 299 296 290 282 284 291 296 297 293 290 289 290 290 292 290 292 297 300 299 300 293 291 294 297 295 295 294 296 290 291 289 287 287 291 300 303 305 307 313 319 322 323
289 283 296 298 285 284 283 287 295 294 296 294 294 292 291 292 290 290 292 295 301 300 295 296 287 291 294 298 303 300 297 292 290 287 288 291 292 301 306 307 307 309 315 320 324
287 286 296 294 282 282 286 290 293 291 292 291 291 292 293 290 287 292 293 300 301 298 296 297 288 285 288 292 295 295 297 297 295 290 293 289 290 300 304 304 305 310 313 316 321
288 284 287 289 288 286 284 286 288 294 293 292 291 293 291 288 290 289 292 298 298 299 306 296 287 287 286 288 294 293 297 299 296 291 294 295 293 296 300 301 303 307 311 316 320
287 283 286 282 285 285 286 286 287 286 293 293 288 290 289 283 287 288 292 293 296 300 295 290 285 288 291 294 296 296 296 299 295 297 294 297 293 297 300 302 303 305 307 315 317
289 287 290 287 288 284 284 285 286 287 288 288 288 289 288 285 287 286 289 289 290 293 291 289 286 288 289 295 297 296 298 300 299 299 298 298 293 300 303 302 301 304 306 309 315
295 293 293 289 287 285 283 284 286 288 291 292 290 287 286 289 293 293 293 293 292 290 288 288 286 285 283 292 292 291 297 299 300 300 300 296 298 300 300 301 301 303 306 309 311

GFSSW_sfc_thetae_018.txt.gz
Theta_e
316 317 317 317 317 317 317 318 318 318 318 318 318 319 319 320 319 317 304 312 317 352 360 352 349 342 345 338 335 334 314 309 310 316 318 328 326 333 335 330 332 333 332 335 341
316 316 316 316 316 316 317 317 317 317 318 318 318 318 319 319 313 309 319 336 349 361 351 343 339 339 333 337 333 324 312 313 318 318 320 328 328 329 329 327 329 331 335 339 339
316 316 316 316 316 316 316 317 317 316 317 317 317 318 318 318 305 301 340 338 359 361 351 345 343 337 328 327 330 326 318 320 321 322 324 327 328 331 328 323 328 327 331 336 337
316 316 316 316 316 316 316 316 316 316 316 316 317 317 318 313 293 319 353 342 358 347 345 338 337 325 318 320 328 316 321 326 324 322 326 326 329 328 329 327 333 333 335 336 336
316 316 316 316 316 316 316 316 316 315 315 316 317 317 310 301 299 331 349 344 349 330 329 322 327 318 309 311 320 317 319 317 320 318 323 329 327 327 328 333 335 335 335 335 336
317 317 317 317 316 316 316 316 315 314 315 316 316 316 303 289 304 309 335 335 332 322 315 313 312 310 304 303 309 309 312 316 312 311 319 326 327 328 330 333 332 333 333 335 336
316 317 316 316 316 316 316 315 314 314 315 316 317 313 306 295 306 308 324 322 323 320 313 313 311 310 306 302 307 308 305 307 308 308 319 327 322 324 330 332 330 331 332 334 337
315 316 316 316 315 315 314 312 313 315 317 319 318 310 296 307 309 307 306 307 323 318 313 316 312 306 304 306 306 301 299 297 305 309 317 324 314 326 331 330 328 330 332 333 335
315 315 315 315 314 313 311 311 315 320 320 320 310 305 297 318 311 309 306 304 312 315 314 318 311 304 303 299 296 296 294 297 301 306 311 321 309 325 331 330 328 329 331 333 334
314 314 314 313 312 311 310 312 312 319 318 317 317 301 306 304 314 315 307 308 305 307 308 309 302 298 295 295 290 293 293 295 298 303 312 314 309 322 329 329 328 329 331 332 333
313 313 313 312 311 309 307 299 297 296 298 305 304 303 306 308 311 309 308 306 307 304 299 301 297 294 294 297 299 299 296 297 300 304 304 308 310 322 327 328 328 329 330 331 333
313 313 312 311 310 309 300 297 296 296 291 299 299 301 308 306 302 306 308 301 301 297 300 295 296 300 301 300 299 298 296 296 299 303 300 300 304 322 326 327 328 329 330 332 333
312 312 311 310 309 301 297 296 301 297 288 295 298 299 300 303 300 302 305 302 298 297 298 297 297 304 303 299 297 295 295 296 297 300 300 303 302 307 324 327 330 331 332 333 333
312 312 310 308 297 298 296 300 300 300 285 292 293 298 301 302 297 307 308 304 300 298 297 296 301 301 299 299 299 291 299 300 299 295 291 303 293 304 316 322 326 328 330 332 334
312 311 309 308 297 295 296 301 302 292 283 300 294 302 300 298 299 301 310 305 299 298 298 296 298 298 297 298 300 297 301 299 299 295 292 296 293 297 313 317 321 325 328 332 334
311 310 308 301 297 299 301 300 293 287 282 295 297 294 295 296 297 302 305 307 305 300 298 300 302 302 300 301 302 302 299 295 294 292 287 294 294 292 304 315 322 326 329 331 332
309 307 306 304 294 299 300 293 284 281 294 293 291 294 293 293 295 297 298 300 297 292 292 297 300 299 301 297 298 298 293 286 285 286 289 293 293 298 304 314 317 323 326 329 332
306 305 301 302 301 299 294 287 278 288 287 294 294 293 290 293 293 295 296 297 299 296 292 292 289 299 301 298 295 294 292 286 282 282 288 292 290 295 305 312 318 320 323 327 329
306 296 295 298 301 297 289 280 281 285 292 291 292 289 289 293 292 292 291 295 300 296 293 291 292 300 301 301 302 293 293 295 286 286 285 289 294 301 305 306 313 317 319 320 324
297 294 292 300 297 294 287 282 284 293 294 292 286 290 286 289 289 289 290 295 296 299 296 292 289 296 302 302 300 296 297 290 284 283 282 287 289 294 299 304 307 312 317 320 322
291 287 294 299 295 289 279 282 288 294 295 290 288 288 288 288 290 288 290 295 298 298 298 292 289 290 296 295 297 293 291 288 291 286 284 283 290 297 301 304 305 309 316 319 321
290 282 294 295 284 283 282 286 293 292 294 292 292 290 289 291 288 289 290 294 299 299 293 294 286 288 291 295 301 302 297 291 290 286 285 286 291 301 302 305 307 308 312 319 322
289 289 295 292 279 280 286 287 290 291 291 289 289 291 291 288 285 291 292 299 298 296 295 294 286 283 286 291 294 292 297 295 293 288 290 287 291 304 302 304 306 306 308 313 318
291 283 286 292 285 282 282 283 285 293 293 292 290 291 289 287 289 287 290 296 297 297 304 295 286 285 284 286 291 291 294 294 295 292 293 293 295 297 300 302 304 305 307 311 314
286 282 288 282 283 286 281 283 285 285 290 293 290 288 286 282 285 286 290 291 295 299 294 290 285 286 289 292 293 293 294 295 292 295 292 296 296 298 300 300 303 306 306 309 312
289 288 290 287 289 287 284 281 285 286 287 287 287 289 288 283 285 284 287 287 288 291 288 288 285 286 287 293 293 292 295 296 296 296 295 297 294 299 303 303 303 305 306 306 310
293 295 292 288 288 284 282 285 285 287 289 291 290 286 285 288 291 291 290 290 290 288 286 286 285 284 282 290 290 288 294 296 297 297 297 294 299 301 300 301 302 305 305 306 307

GFSSW_sfc_thetae_024.txt.gz
Theta_e
318 318 318 318 318 318 318 319 319 319 319 319 319 319 319 320 320 320 311 318 321 353 355 349 349 346 346 341 343 340 328 321 320 322 325 335 333 338 341 336 335 338 338 342 347
318 317 317 317 317 318 318 318 318 318 318 318 319 319 319 319 317 312 326 339 339 359 340 339 340 341 336 335 338 333 327 321 326 326 324 329 333 336 334 333 333 336 341 344 345
317 317 317 316 317 317 317 317 317 317 317 318 318 318 318 319 312 312 340 339 347 354 335 340 339 336 329 333 334 331 326 327 326 327 327 327 333 338 333 330 334 334 338 342 343
316 315 315 316 316 316 316 316 316 316 316 317 318 318 318 318 303 321 350 339 351 335 333 333 334 329 325 326 333 327 330 331 328 327 326 323 333 334 335 332 338 341 341 342 341
315 315 315 315 315 315 316 316 316 315 315 316 317 317 317 309 307 323 342 340 342 332 330 329 329 326 320 325 328 328 327 327 328 328 327 324 326 330 334 337 340 342 341 341 341
314 315 315 315 315 315 316 315 314 314 315 316 316 316 311 301 314 315 327 330 336 333 330 330 329 328 323 323 324 327 328 326 321 322 324 320 325 330 334 340 339 340 339 341 341
314 315 315 315 316 316 315 314 313 314 318 321 317 316 310 308 313 316 328 333 338 335 328 330 331 328 323 321 321 324 318 317 318 320 319 321 318 325 334 340 338 338 339 340 341
314 315 315 315 315 314 313 312 313 319 321 318 319 316 308 316 318 318 326 332 340 337 331 332 331 329 322 318 314 314 314 310 319 320 319 320 315 327 336 338 338 339 339 339 341
314 314 314 314 314 312 311 312 316 322 319 319 317 314 308 317 309 314 327 324 333 332 331 330 329 321 321 313 310 311 308 311 315 320 320 320 317 325 335 336 337 339 339 339 340
313 313 313 313 312 311 310 312 319 321 321 321 317 307 310 308 314 312 324 321 327 326 320 318 317 310 312 311 303 307 307 311 312 318 318 317 319 323 331 333 335 339 339 339 339
313 312 312 312 311 309 310 312 311 312 310 312 315 311 312 315 318 311 315 318 323 320 309 312 306 303 307 310 311 311 310 310 313 318 316 317 317 320 327 332 332 337 339 339 340
312 312 311 311 310 309 311 305 302 302 297 306 306 310 317 316 312 311 315 313 311 309 311 308 304 308 310 309 308 308 307 309 314 316 314 315 315 321 325 331 333 336 338 339 341
312 312 311 310 309 309 307 304 310 308 299 304 307 307 308 312 309 311 310 312 309 307 307 305 307 310 308 308 306 306 306 308 309 313 314 313 312 316 319 325 331 335 339 340 341
312 311 310 308 308 308 306 309 311 309 296 301 302 306 309 311 307 316 311 311 308 306 308 307 311 308 307 306 307 303 309 308 308 308 305 315 305 315 318 321 325 331 335 338 341
312 310 308 307 307 304 306 310 310 307 289 305 303 311 310 308 312 309 316 309 305 306 308 305 307 306 305 306 309 305 309 307 307 306 307 309 307 312 318 316 320 327 332 337 341
311 309 308 308 309 308 310 310 308 294 288 301 303 302 302 306 308 311 311 312 311 308 309 308 312 310 309 310 310 310 307 306 307 305 300 307 308 309 313 317 320 327 332 337 340
309 307 308 308 303 310 309 306 293 289 301 298 299 302 303 303 305 306 306 305 305 301 302 306 307 310 311 307 310 308 305 299 297 297 298 309 306 310 316 320 321 323 327 337 340
306 305 308 308 310 309 306 297 286 293 295 301 300 301 299 303 303 304 304 303 307 307 304 301 298 306 311 309 306 306 305 299 294 296 299 308 303 309 319 321 322 325 326 333 339
305 308 307 308 309 309 300 288 289 294 296 295 298 297 300 301 301 302 303 304 306 309 303 302 302 309 310 311 311 306 303 308 302 304 301 305 308 314 317 318 320 322 324 327 337
306 304 304 309 309 306 296 288 292 296 296 297 293 297 296 298 299 301 302 304 307 310 312 308 302 308 308 311 311 309 310 301 303 296 295 301 304 306 312 315 319 320 323 326 333
304 299 305 308 307 299 289 289 292 296 297 294 294 294 297 296 298 300 301 301 304 308 309 309 307 306 309 306 305 305 305 306 306 303 298 297 303 314 314 317 318 321 324 326 330
302 293 305 307 295 295 290 291 293 294 297 296 296 295 295 297 297 298 299 301 303 306 304 309 307 303 304 310 311 309 307 307 301 301 303 303 303 313 315 317 320 321 324 327 330
298 298 306 304 289 289 293 292 293 293 293 294 294 296 297 296 294 297 299 301 303 305 305 308 303 300 302 307 310 307 308 309 308 308 304 300 304 315 316 316 320 321 323 326 329
298 292 298 299 299 292 290 290 290 294 293 294 293 296 295 294 298 296 297 300 301 302 304 304 305 303 300 304 307 304 306 308 307 303 303 305 307 311 312 314 317 318 320 322 327
299 293 294 289 291 291 291 291 288 287 293 294 289 290 289 290 293 293 296 298 300 302 303 304 301 303 306 303 303 306 305 307 306 307 304 307 307 311 314 315 317 319 321 321 323
295 294 297 291 293 291 290 289 288 289 290 289 289 289 290 288 289 290 293 296 296 300 300 302 300 301 300 302 301 301 304 305 307 308 308 308 308 315 317 317 317 318 319 320 321
304 303 298 292 291 290 290 288 288 290 293 293 292 290 289 291 294 296 298 298 299 297 297 298 299 298 297 301 301 297 302 304 305 307 307 304 310 315 314 315 316 317 318 319 322

GFSSW_sfc_thetae_027.txt.gz
Theta_e
318 317 317 317 317 318 318 318 319 319 319 319 320 320 320 321 320 320 313 322 325 345 348 340 342 345 346 341 342 341 327 322 320 319 326 332 328 335 340 336 338 339 341 344 347
316 316 316 316 317 317 317 317 317 317 318 318 319 319 319 320 317 314 329 344 344 350 339 335 335 340 336 336 336 333 323 321 325 326 325 330 329 331 334 333 334 337 344 345 346
316 316 316 316 316 316 316 316 317 317 317 317 318 318 319 320 315 315 346 344 347 353 329 336 339 337 330 331 331 331 323 326 327 328 328 329 332 334 329 329 334 335 340 343 344
315 315 315 316 316 316 316 316 316 316 316 317 317 318 319 319 305 327 346 343 346 334 325 331 333 331 326 325 330 325 330 328 327 329 327 326 333 331 331 330 337 341 343 343 342
315 315 316 315 315 316 316 317 316 315 315 316 317 317 317 312 311 330 351 343 327 327 322 327 327 329 324 325 328 325 328 330 332 330 328 327 326 330 331 334 338 342 343 342 343
315 316 316 316 316 316 316 316 315 314 315 317 318 317 315 307 321 322 327 328 327 328 323 327 326 330 327 325 324 327 328 329 329 328 327 324 324 329 334 337 337 340 341 342 342
314 315 315 315 316 316 315 314 314 316 319 321 321 317 314 314 320 318 323 325 331 330 322 327 328 328 328 323 327 327 322 326 328 324 323 326 320 325 336 338 337 339 340 341 342
314 314 315 315 315 314 313 312 313 320 320 320 321 318 313 324 326 318 324 326 332 333 329 329 329 327 326 326 323 320 321 317 323 323 324 323 315 325 335 338 336 338 338 340 341
314 314 314 314 314 312 311 312 315 320 318 320 319 317 314 321 316 321 321 324 330 333 333 330 328 323 324 318 314 315 311 314 318 324 322 321 318 326 333 336 336 338 339 338 340
314 314 313 313 312 311 310 312 319 319 322 323 322 312 315 314 318 318 320 325 327 328 326 324 322 317 318 315 306 309 310 313 314 321 321 319 319 324 332 333 334 337 339 339 338
313 313 313 312 311 310 311 315 312 315 319 315 316 314 317 320 319 315 318 322 326 324 316 320 314 312 312 317 316 315 313 312 317 321 319 318 320 323 327 330 331 336 339 339 339
313 313 312 311 310 310 312 307 306 306 300 307 308 308 317 319 313 313 321 315 316 315 316 312 309 314 315 313 313 313 312 312 316 319 319 318 317 322 325 328 331 334 337 339 341
313 312 311 310 310 310 310 308 312 311 300 303 308 308 309 317 313 315 314 314 313 314 313 308 309 313 310 309 308 310 309 311 312 316 318 317 315 318 323 327 332 334 339 340 341
313 312 310 308 308 310 308 311 313 312 296 301 306 309 311 313 311 319 314 313 314 312 315 310 313 310 309 307 309 305 311 312 311 311 308 316 306 316 320 321 327 331 336 338 340
312 311 309 306 310 308 308 311 312 309 289 307 307 315 313 308 313 313 317 313 310 310 313 309 309 309 307 308 310 307 312 310 310 310 310 311 309 315 319 317 321 326 331 337 339
311 309 308 309 310 309 311 310 309 295 289 303 306 305 306 308 310 315 314 313 315 311 312 311 315 312 311 312 312 313 310 309 309 307 302 308 309 311 316 319 322 325 328 333 337
309 307 308 310 304 310 310 306 293 288 303 301 301 306 306 306 306 311 309 304 304 302 303 308 310 313 313 310 312 310 306 299 298 299 299 309 307 311 319 321 323 324 327 330 335
306 305 310 310 311 310 307 297 286 294 297 302 301 302 300 306 307 308 308 306 306 306 305 303 301 309 312 311 308 308 307 301 295 296 300 308 304 310 320 323 325 327 328 332 334
306 312 310 309 310 309 301 289 290 294 297 295 298 299 300 304 306 307 307 306 308 308 303 304 304 312 313 313 313 308 305 310 305 306 303 305 309 315 319 320 322 324 326 328 333
308 308 308 310 311 307 297 290 292 296 296 296 292 299 298 302 303 304 305 309 309 310 313 310 305 311 312 313 313 312 312 303 305 299 299 304 307 307 314 317 321 322 324 327 331
308 301 307 310 310 301 289 291 292 297 297 294 293 293 294 295 298 303 304 307 309 310 313 311 310 309 312 308 307 308 308 308 308 305 301 301 305 316 317 319 319 322 324 327 329
305 297 308 309 297 296 290 293 293 295 298 296 297 296 294 295 295 299 303 305 305 308 307 312 309 305 307 312 313 312 309 310 303 304 305 306 308 317 318 319 321 322 325 327 329
301 301 309 306 291 292 294 293 295 294 294 294 293 295 298 295 293 296 300 306 305 308 307 312 307 303 306 309 311 308 310 311 310 309 306 302 305 318 318 318 322 322 325 328 330
302 295 300 301 299 294 292 291 290 295 293 295 295 296 294 294 297 296 297 302 304 305 308 309 307 305 304 307 309 306 308 310 310 305 306 307 309 313 316 318 321 323 325 327 330
301 297 298 292 294 294 294 292 290 289 294 295 293 292 291 290 293 292 297 300 304 307 307 308 304 307 309 311 311 308 307 308 307 309 305 309 310 314 316 318 320 322 324 324 327
297 295 298 294 295 294 294 291 290 291 292 291 291 292 292 291 291 289 294 296 297 302 303 307 302 307 306 309 307 306 310 309 309 309 310 310 311 318 320 320 320 320 321 321 322
304 304 299 295 293 291 291 292 291 292 294 295 293 291 291 293 297 299 299 300 299 298 299 301 302 304 301 307 306 301 307 309 310 312 311 307 313 318 317 317 318 320 321 321 322

GFSSW_sfc_thetae_030.txt.gz
Theta_e
317 317 317 317 317 317 317 318 318 318 319 319 319 319 320 321 320 318 310 318 324 346 345 332 329 338 343 341 343 341 325 320 320 321 322 329 332 337 338 336 339 341 338 341 345
316 316 316 316 316 317 317 317 318 318 318 318 318 319 319 320 316 313 324 339 349 343 319 327 324 333 335 335 335 330 320 319 328 326 325 329 327 332 332 332 335 338 341 343 344
315 316 315 316 316 316 316 317 317 317 317 317 317 318 319 320 314 313 346 337 345 340 321 328 329 331 329 332 330 329 321 325 326 329 329 327 326 333 329 328 336 334 337 341 341
315 315 315 315 316 316 316 316 316 316 316 316 317 318 318 317 305 322 351 348 347 323 319 322 327 325 327 324 329 323 327 326 328 331 327 328 329 327 329 329 340 341 340 341 340
315 316 316 316 315 316 316 317 316 315 315 316 317 317 316 311 310 323 350 345 328 318 319 319 323 327 324 325 327 324 328 329 326 329 327 331 328 327 327 334 340 342 341 340 341
315 316 316 316 316 316 316 316 315 314 317 320 318 318 312 306 324 325 330 328 320 317 319 320 322 328 327 325 323 326 327 327 328 330 328 323 328 328 330 334 337 339 339 340 340
315 316 316 315 316 316 315 315 314 315 319 323 321 318 311 311 326 322 324 327 323 320 317 321 324 324 328 324 328 325 320 324 326 327 324 326 320 323 332 334 333 336 339 340 340
315 315 315 315 315 314 314 313 313 316 323 322 323 318 309 326 325 324 318 323 324 326 323 323 325 324 324 328 325 320 320 315 324 326 324 322 314 328 332 333 331 334 337 339 340
315 315 315 315 314 313 311 312 314 318 321 321 320 315 312 328 321 324 320 317 323 328 327 325 324 319 320 318 316 317 311 314 318 325 323 320 316 323 332 332 333 333 335 337 340
314 314 314 313 313 311 310 312 319 320 321 322 322 314 316 316 321 322 323 319 320 323 322 321 320 314 314 313 307 310 311 313 315 321 321 318 317 323 328 331 333 336 334 336 337
314 314 313 313 311 310 311 313 307 312 309 309 315 312 316 322 323 318 321 316 320 321 314 319 313 309 311 314 315 316 313 310 315 320 319 317 319 323 326 325 331 334 336 335 337
314 313 313 312 310 310 310 307 305 306 299 306 307 307 314 321 314 316 320 312 315 313 318 315 310 315 316 315 314 314 312 311 314 318 318 318 316 322 326 324 327 332 333 337 336
313 312 311 310 310 310 311 308 311 310 299 300 305 305 307 311 310 314 316 313 311 312 315 311 313 317 315 313 310 312 311 311 311 315 318 317 314 318 324 327 327 334 334 338 338
312 312 310 308 308 311 307 309 311 310 293 298 304 306 307 309 306 319 317 313 313 310 315 314 317 313 313 311 312 306 314 313 312 311 306 315 305 317 320 321 325 327 330 336 340
312 311 309 307 308 307 307 310 310 308 285 306 307 316 311 305 310 310 321 313 310 310 313 312 312 310 308 310 312 307 312 311 310 310 309 310 307 312 320 318 321 327 332 335 340
311 309 308 311 311 310 310 309 307 293 285 301 308 306 306 306 306 312 314 315 317 311 312 314 319 313 311 312 311 311 309 309 308 307 302 308 308 309 314 319 321 326 329 336 336
309 307 307 311 305 310 309 304 291 286 298 297 298 302 302 304 304 306 309 308 304 301 305 310 312 315 314 309 311 309 305 299 298 298 298 308 306 311 318 322 323 324 327 332 338
307 305 312 312 311 309 306 296 285 291 292 298 297 298 298 304 305 304 306 305 306 306 305 302 300 310 313 310 308 307 305 300 294 296 298 306 302 308 319 322 326 327 327 331 334
306 312 312 312 310 310 301 290 287 292 294 293 295 294 297 301 301 305 304 305 307 307 303 303 303 312 313 313 312 307 303 309 303 304 300 303 306 313 318 319 322 323 327 328 332
306 308 309 312 310 307 297 290 292 296 295 294 289 292 289 293 295 298 303 309 308 309 310 308 303 310 311 314 312 310 312 302 304 297 297 301 305 305 313 316 320 323 323 328 332
308 303 309 312 309 301 291 291 294 297 297 293 291 289 291 291 293 295 300 306 307 310 311 308 307 307 311 308 306 307 307 307 306 304 299 299 303 316 316 319 321 322 325 327 332
306 299 310 310 297 297 292 294 294 295 298 295 295 293 292 292 291 292 297 301 307 306 305 309 305 302 307 313 313 311 308 309 302 302 305 305 305 317 320 321 322 323 325 328 331
301 303 310 306 292 292 295 294 294 294 295 293 292 294 294 291 288 293 295 303 305 304 304 307 305 301 303 309 312 308 309 310 309 308 305 301 304 318 319 322 324 324 327 329 333
302 296 302 301 300 295 292 291 292 297 295 295 293 296 293 291 293 291 293 300 303 304 313 309 305 305 301 306 310 307 307 309 308 304 305 305 308 313 316 317 322 325 328 329 334
302 297 299 292 295 295 295 293 291 290 294 295 293 293 291 288 289 290 294 296 300 307 305 308 303 306 307 310 311 308 307 308 307 309 305 308 309 314 318 320 323 325 329 330 333
297 296 299 296 297 295 294 292 291 292 292 290 291 293 293 289 290 289 292 293 293 299 300 305 302 307 305 309 309 307 308 308 308 308 309 310 310 317 322 324 324 325 325 326 328
305 300 297 294 295 293 293 293 292 294 295 295 293 292 291 292 296 296 297 296 297 296 297 300 301 302 300 307 307 304 309 309 309 311 310 308 314 319 319 321 322 323 323 324 323

GFSSW_sfc_thetae_033.txt.gz
Theta_e
316 316 316 316 317 317 317 318 318 318 318 319 319 319 320 321 320 316 308 313 318 336 349 331 325 325 341 338 341 341 321 312 319 319 320 329 329 335 340 335 336 337 337 340 343
316 316 316 316 316 316 317 317 317 318 318 318 318 318 319 320 314 310 322 334 336 340 321 318 319 320 327 333 336 330 321 320 327 326 324 328 328 331 333 332 333 335 340 342 343
316 315 315 316 316 316 316 317 317 317 317 317 317 318 318 318 310 311 337 335 340 346 319 315 322 319 322 329 329 330 321 327 326 328 329 327 328 332 331 327 332 332 336 340 341
315 315 316 315 316 316 316 317 316 316 316 317 317 317 318 314 300 317 349 346 338 331 318 313 314 315 318 321 328 322 328 328 325 327 327 326 327 326 330 332 337 338 339 339 338
315 316 317 317 317 316 317 317 316 315 316 317 319 317 313 306 306 320 350 350 331 324 313 310 310 316 314 322 325 322 326 326 327 326 325 328 325 326 332 337 339 339 339 337 337
316 316 316 316 316 317 317 316 316 314 316 319 321 316 308 300 319 320 328 331 325 317 312 311 312 318 319 321 322 324 327 324 327 326 326 323 322 327 334 337 336 337 336 337 337
316 316 316 316 316 316 316 315 314 314 315 320 322 317 309 303 319 321 324 322 319 315 310 313 317 314 320 320 327 324 319 326 325 325 325 328 321 320 336 337 334 335 335 336 337
316 316 316 316 315 315 314 313 314 315 316 322 322 316 305 318 318 316 318 321 318 316 313 315 318 313 313 321 322 319 318 312 322 325 326 324 314 325 333 334 332 334 335 336 337
315 315 315 315 314 313 312 312 316 320 318 320 316 312 305 325 316 319 319 318 319 317 317 318 315 310 311 310 309 312 307 308 312 322 322 317 313 324 330 331 331 333 334 335 336
314 314 314 313 312 311 311 312 317 316 320 321 320 308 312 309 318 320 320 317 316 315 316 313 310 306 307 305 300 305 306 307 309 316 319 315 311 323 327 329 328 330 333 334 334
314 313 313 312 312 310 308 304 300 301 303 296 298 304 302 316 317 318 319 316 312 312 308 312 305 301 305 307 309 311 310 308 312 317 315 315 312 322 327 330 331 330 330 333 334
313 313 312 311 310 310 308 301 300 301 293 301 302 302 305 307 304 311 320 310 305 304 310 308 303 309 311 310 308 309 308 309 312 315 314 315 312 324 324 323 327 327 327 331 334
313 312 311 310 309 309 306 301 306 303 293 296 300 300 301 303 301 304 312 312 304 304 307 305 309 314 313 308 306 306 306 307 307 311 312 312 311 317 324 324 325 326 328 334 333
312 312 310 308 306 305 304 305 306 304 287 294 297 302 303 303 300 309 312 311 307 303 308 308 314 312 310 308 308 302 310 311 310 307 300 310 302 309 318 319 320 324 328 331 333
312 311 309 308 303 304 306 306 305 301 280 299 300 310 305 299 302 304 311 309 304 304 307 306 310 310 308 309 311 307 311 310 310 306 301 304 300 308 316 315 318 323 330 332 335
311 310 308 307 306 308 308 306 302 287 282 294 298 296 296 299 302 304 306 310 311 305 307 308 317 314 312 313 313 313 309 304 307 303 295 300 298 299 309 313 319 325 330 333 329
309 307 306 308 302 309 308 300 286 281 295 292 291 294 293 295 299 301 299 301 300 295 297 305 307 314 314 308 310 308 301 292 290 293 292 298 298 300 310 317 318 324 328 328 327
307 306 309 311 311 310 303 293 282 290 290 295 293 293 291 294 294 295 297 298 305 301 299 298 296 307 314 307 302 303 301 290 285 288 292 298 294 301 311 314 319 324 328 327 330
307 308 308 311 313 306 297 286 286 289 292 290 290 288 289 292 292 293 294 296 303 304 297 297 298 310 312 312 308 302 297 300 291 294 290 294 298 304 308 311 312 318 323 329 333
304 305 307 313 308 301 293 288 290 294 293 293 286 289 285 289 289 290 290 300 297 301 304 300 294 307 310 313 310 304 304 295 296 287 287 294 296 298 302 306 310 312 317 325 334
304 301 305 308 305 297 288 289 291 295 295 290 289 287 288 288 289 288 290 295 300 298 301 299 298 298 306 305 304 301 300 300 296 294 288 289 295 306 305 308 310 313 317 323 328
302 295 310 309 294 294 289 292 294 293 296 294 293 290 289 289 288 288 289 293 299 299 293 300 296 294 298 307 310 306 302 301 296 292 294 293 296 310 310 311 313 314 316 321 327
298 300 309 306 289 290 293 292 294 293 293 292 290 291 292 289 286 290 292 298 298 296 292 298 293 292 294 299 304 303 304 303 299 297 295 291 295 312 313 312 314 315 315 318 325
300 293 299 300 298 293 291 290 290 296 294 294 291 292 291 289 291 288 290 295 297 297 305 301 295 293 292 296 300 301 304 304 301 297 297 297 299 306 310 313 315 315 319 319 325
300 295 297 289 292 293 294 292 290 290 294 294 290 291 288 286 287 288 290 292 294 298 296 293 290 297 301 303 305 305 304 304 301 300 298 299 301 305 309 313 317 319 320 322 323
296 293 295 292 294 292 293 291 291 292 292 289 289 290 290 286 288 286 289 290 289 293 292 293 290 297 298 304 304 303 305 306 304 304 303 303 301 310 314 317 316 317 318 316 321
304 301 295 292 291 290 291 292 292 294 294 294 292 289 289 291 295 294 294 293 293 291 289 290 292 292 292 302 304 298 305 305 305 306 305 300 304 312 313 314 314 315 316 315 316

GFSSW_sfc_thetae_036.txt.gz
Theta_e
316 316 316 316 317 317 317 317 318 318 318 318 319 319 319 319 320 315 308 313 314 331 352 342 336 330 341 338 342 336 315 312 312 318 319 329 328 336 338 333 335 337 336 330 333
316 316 316 316 316 316 317 317 317 317 317 318 318 318 318 319 313 309 318 328 334 335 328 326 322 319 330 333 335 331 314 315 322 326 324 330 329 329 331 332 332 334 334 334 334
316 316 316 316 316 317 317 317 317 317 317 317 317 318 318 317 309 311 333 334 338 340 320 320 322 316 312 326 331 329 319 326 327 329 329 326 328 334 331 327 331 330 331 335 334
315 316 316 316 316 316 316 316 316 316 316 317 317 319 317 313 301 314 347 338 339 328 316 312 308 310 310 316 326 321 329 330 328 330 328 325 330 331 332 332 337 336 336 337 336
316 317 317 317 317 317 317 317 316 316 316 316 319 318 311 304 304 317 342 345 331 322 314 310 305 307 309 316 322 322 325 329 331 330 326 327 325 325 330 337 338 337 338 337 336
316 316 316 316 316 317 317 316 316 315 315 316 320 317 306 297 313 317 325 330 321 318 313 309 306 308 311 313 318 323 324 325 327 325 323 323 323 326 333 337 336 335 335 337 337
316 316 315 315 316 316 316 315 315 316 317 316 321 316 307 301 312 314 320 323 321 316 310 312 310 311 311 313 318 318 318 322 324 324 323 326 320 327 334 336 334 334 335 336 337
316 316 315 315 315 314 314 313 314 319 319 316 323 315 303 316 317 314 314 313 321 318 311 313 311 308 307 311 310 314 315 311 322 325 325 324 314 329 334 332 331 333 334 334 336
315 315 314 314 314 313 311 312 316 320 320 322 313 310 303 322 315 315 315 314 314 313 311 315 308 305 306 302 299 305 303 308 314 325 323 322 316 329 333 331 330 331 332 334 335
314 314 314 313 312 311 311 312 315 319 320 320 319 305 308 306 309 310 315 317 312 310 308 307 302 299 302 297 294 299 302 306 308 314 321 319 316 328 331 330 330 331 332 332 334
314 314 313 312 311 310 307 300 296 292 296 292 294 303 302 305 307 308 313 315 314 308 301 304 298 296 299 301 303 306 306 306 310 315 312 313 320 326 329 329 330 330 331 332 333
313 313 312 311 310 310 304 294 294 297 289 298 299 298 301 302 297 302 310 307 305 302 305 302 298 303 306 305 304 305 303 306 312 315 309 310 317 325 328 328 330 330 331 332 333
313 312 311 310 309 304 300 299 301 295 287 294 297 297 298 298 297 298 303 307 303 300 303 302 305 309 307 305 303 303 301 303 306 311 309 311 314 319 325 329 330 331 333 333 333
312 312 310 309 301 301 301 303 300 297 283 290 296 299 300 300 295 306 304 304 305 299 301 302 310 307 306 304 305 298 306 307 307 304 299 306 301 314 320 322 323 325 328 330 332
312 310 309 308 298 299 303 303 305 295 277 296 296 304 299 296 299 301 307 303 300 302 299 300 304 306 304 306 309 303 307 306 306 302 298 303 296 310 320 317 317 321 324 328 333
310 309 308 303 299 303 304 304 294 284 280 291 296 293 292 296 297 300 300 304 306 301 302 301 311 309 308 311 312 311 306 304 304 299 293 301 297 296 313 317 319 322 324 327 332
308 307 306 307 297 301 303 294 282 278 292 289 288 291 290 291 293 295 294 294 292 291 295 300 302 308 313 307 310 308 299 294 291 292 292 302 294 299 317 321 322 321 323 328 332
307 306 306 307 304 304 297 288 279 288 286 291 290 290 287 291 292 292 291 288 298 293 293 293 292 302 309 307 305 305 301 293 287 286 292 294 290 297 307 321 324 325 326 331 332
306 301 301 304 307 302 290 281 281 284 289 288 288 285 286 291 291 290 289 290 294 294 287 290 294 305 308 311 310 301 300 299 289 289 287 292 294 300 305 305 315 324 328 330 331
300 297 299 307 303 294 287 284 285 290 291 290 283 286 282 286 287 287 288 293 293 296 296 291 288 301 304 309 310 306 302 293 288 284 283 289 291 296 300 302 304 320 325 330 332
295 293 301 307 297 289 281 282 288 294 294 289 286 285 285 285 288 287 288 291 296 294 295 292 289 294 299 302 301 300 299 294 295 289 287 285 293 299 301 302 304 317 325 329 331
293 289 302 305 289 285 283 287 294 291 294 291 291 289 286 288 287 287 287 291 297 296 290 294 291 287 294 300 305 307 298 297 293 288 288 289 294 305 306 306 307 307 326 329 330
292 291 302 297 283 284 288 292 292 290 290 291 288 289 288 287 285 289 290 295 297 294 291 294 290 283 289 293 298 297 303 299 293 292 290 291 294 304 305 307 310 310 313 325 328
291 287 292 293 292 287 286 288 289 295 292 292 290 288 286 285 290 288 289 293 295 294 298 297 285 285 284 290 295 294 299 300 299 293 293 294 296 302 304 307 306 309 312 318 329
291 287 290 285 288 288 287 289 290 289 293 292 288 289 284 280 285 287 289 290 293 296 294 291 282 286 290 294 297 297 300 302 297 298 295 297 297 300 304 309 308 310 312 320 329
290 288 290 291 290 288 289 289 290 291 292 288 287 289 286 282 286 284 288 288 289 292 290 291 282 286 287 299 301 299 303 303 301 301 298 297 298 302 308 312 312 314 318 321 329
295 295 294 291 288 287 288 289 289 293 294 295 292 289 287 289 292 293 294 293 292 290 289 287 283 283 284 296 301 296 300 302 302 302 302 296 300 308 311 317 318 310 314 317 326

GFSSW_sfc_thetae_039.txt.gz
Theta_e
317 316 316 316 317 317 317 318 318 318 318 318 318 318 318 319 318 314 306 313 314 329 340 329 340 334 340 337 341 335 313 311 314 316 319 328 327 335 338 332 335 336 327 331 334
316 316 316 317 317 317 317 317 317 317 318 318 318 318 318 318 311 308 316 327 329 337 336 329 327 327 331 332 336 329 311 315 320 323 323 327 330 333 330 331 330 326 330 333 332
316 316 316 316 316 316 317 317 317 317 317 317 317 318 318 316 307 308 332 329 336 342 332 328 326 317 323 327 330 330 316 323 323 328 329 328 329 332 330 327 330 322 326 329 328
315 315 315 315 316 316 316 317 317 317 316 316 317 319 317 312 296 315 346 333 338 327 318 315 315 309 310 314 324 322 329 329 329 330 329 327 330 329 332 331 335 328 329 327 326
316 316 316 316 316 316 316 316 316 316 316 316 316 318 310 300 300 313 344 333 331 319 313 309 307 308 307 312 318 322 326 328 332 331 330 329 329 330 331 336 336 330 328 326 328
316 316 316 316 316 317 317 316 315 315 316 316 316 318 305 293 307 315 325 325 322 315 309 307 307 310 309 310 316 321 324 325 326 326 325 324 328 330 332 336 333 329 327 327 330
316 316 316 316 316 316 316 315 315 317 320 316 318 315 306 300 313 314 317 319 321 314 307 310 308 309 307 309 315 315 314 315 320 323 322 326 318 321 333 334 331 329 329 330 333
315 316 315 315 316 315 314 313 315 320 318 318 322 314 302 314 315 316 312 310 320 316 309 310 308 307 305 309 307 309 308 303 315 321 323 322 311 328 333 330 329 331 331 332 333
315 315 315 315 314 313 312 312 316 321 322 322 312 307 302 321 310 310 312 310 316 314 312 314 306 300 304 301 297 298 298 305 310 320 322 320 317 328 333 330 328 330 331 332 333
314 314 314 313 312 311 311 313 314 320 319 319 317 301 302 299 303 305 308 314 311 311 307 304 300 295 296 295 293 295 299 303 305 313 320 317 316 327 330 330 329 330 331 332 332
314 313 313 312 311 310 307 295 293 291 293 289 292 298 299 302 305 302 304 309 309 304 297 300 294 293 295 300 301 302 303 304 309 314 313 315 317 325 327 328 328 328 330 331 332
313 312 312 311 310 310 301 295 295 295 287 296 296 296 299 299 296 301 304 303 305 298 301 296 293 298 300 301 300 299 298 301 307 311 308 308 314 325 327 327 329 328 329 330 332
312 312 311 310 309 303 298 297 298 293 285 292 296 296 297 296 296 299 302 300 298 301 300 297 300 303 302 299 298 298 297 299 302 308 309 309 311 317 326 328 330 331 331 332 332
312 311 310 309 300 299 299 300 301 296 282 289 293 297 297 299 295 304 305 300 298 298 302 299 305 304 300 300 301 294 303 304 303 303 296 305 302 316 322 323 326 328 330 331 332
311 310 308 308 296 296 300 301 300 293 276 295 293 301 296 294 296 298 305 301 295 295 296 298 301 301 300 301 304 300 304 303 303 298 296 300 298 309 321 319 323 327 329 332 334
310 309 308 302 298 300 302 298 293 283 277 290 293 292 291 293 295 298 298 301 302 297 298 297 303 304 304 307 307 307 302 300 299 296 292 298 297 295 312 318 323 327 329 332 333
309 307 306 306 295 301 300 293 282 277 290 287 286 289 288 289 291 293 292 294 290 287 289 296 298 303 307 303 306 305 297 288 288 288 291 298 295 301 312 321 323 325 327 330 330
307 305 305 307 304 302 293 287 278 286 284 288 288 288 286 290 290 291 289 287 294 292 287 285 289 299 303 303 302 302 299 290 284 287 293 295 292 297 309 322 326 327 328 328 326
306 299 300 302 305 298 290 280 280 282 287 287 286 283 283 289 288 288 287 288 294 293 286 285 287 296 304 305 307 301 299 300 290 285 288 295 292 299 304 314 321 324 326 325 325
298 293 296 304 300 293 286 283 283 290 290 288 281 284 281 284 285 285 285 291 291 294 295 290 283 293 300 305 306 305 304 294 289 285 285 288 290 295 299 303 310 321 323 325 326
293 291 300 305 295 288 281 281 287 292 293 287 284 283 283 283 285 284 286 290 293 292 294 292 289 290 296 296 297 299 299 299 298 289 289 283 292 297 300 302 304 316 322 323 326
290 284 299 297 288 284 281 286 293 290 292 290 289 286 284 286 284 285 286 290 296 295 289 292 290 287 291 297 299 303 298 294 297 290 286 287 293 301 302 303 306 311 319 325 329
291 288 299 297 283 282 286 290 291 289 289 290 288 288 286 285 281 287 289 295 296 293 290 292 289 281 287 291 297 294 302 297 296 291 289 293 295 301 301 303 303 305 315 321 328
292 285 290 291 290 284 285 287 289 296 293 292 289 288 285 284 286 284 287 293 295 294 298 296 289 282 281 285 290 289 294 299 295 289 291 294 298 301 302 301 303 305 310 319 326
289 285 288 282 285 285 288 288 288 289 294 294 287 288 284 279 281 282 287 290 292 295 293 291 283 283 286 288 288 289 290 294 293 296 294 294 293 299 301 301 307 310 308 309 322
289 287 287 289 291 287 288 287 288 289 290 290 289 291 291 281 283 281 285 287 288 291 289 291 285 284 283 290 289 289 296 299 299 297 295 295 296 299 305 315 319 311 308 314 323
295 296 294 292 290 288 288 290 289 291 294 294 292 290 287 288 290 289 289 291 291 290 288 287 285 281 279 291 295 292 295 299 300 300 298 294 298 306 314 319 321 323 312 313 321

GFSSW_sfc_thetae_042.txt.gz
Theta_e
317 317 317 317 317 317 317 318 318 318 319 319 318 318 318 317 317 313 305 311 315 330 341 348 340 337 339 334 339 334 315 310 313 315 321 329 328 335 338 330 333 331 327 331 336
317 317 317 317 317 317 317 317 318 318 318 318 318 318 318 317 310 306 316 325 330 336 336 337 326 332 330 332 334 327 311 313 320 323 323 328 331 333 331 329 326 326 331 334 335
317 317 317 317 317 317 317 317 318 318 318 318 317 317 318 315 305 305 337 328 332 336 329 328 324 328 323 330 330 329 316 321 323 326 329 327 329 334 330 326 327 323 326 330 330
316 316 316 317 317 317 317 317 317 317 317 317 317 317 317 310 293 313 340 332 334 332 328 322 322 313 319 318 327 324 328 328 329 329 328 326 330 328 330 330 335 329 329 330 328
315 316 316 316 316 317 318 317 316 316 316 317 316 318 308 296 298 312 334 331 327 326 322 314 316 308 312 319 318 324 327 328 332 331 328 329 326 328 330 333 331 330 329 327 327
315 316 316 316 317 317 317 317 315 316 317 317 316 317 303 290 305 316 325 323 324 318 313 309 315 310 309 311 316 321 323 325 325 325 326 326 326 328 332 329 327 327 325 325 327
315 315 316 316 316 316 316 315 314 317 320 318 319 314 304 300 313 315 317 320 318 314 308 308 309 310 307 306 314 318 313 314 314 321 321 325 322 322 332 328 324 325 324 324 329
314 315 315 315 315 315 314 314 315 319 318 319 321 311 299 314 314 316 311 309 319 316 307 309 307 305 303 308 305 306 309 302 312 316 320 320 310 326 331 326 322 323 323 325 329
315 314 314 314 314 313 312 312 316 321 320 322 311 303 297 316 304 302 304 307 315 314 313 314 304 299 302 299 296 297 298 303 309 317 319 318 313 328 331 327 323 323 322 324 328
314 313 313 313 312 311 311 312 322 320 319 319 316 296 299 297 301 303 304 313 313 311 309 303 298 293 293 295 290 294 295 301 305 311 317 315 314 326 328 327 325 325 324 324 327
314 313 312 312 311 310 307 295 293 292 293 287 291 294 298 300 302 303 303 305 308 304 297 298 292 291 295 298 300 300 301 302 307 312 314 313 315 324 327 326 326 327 326 326 328
313 312 312 311 310 310 301 294 295 296 288 294 295 294 297 297 295 301 305 301 303 297 298 293 291 296 297 296 298 298 295 297 305 312 310 309 313 324 326 326 327 327 328 328 330
312 312 311 310 309 301 297 296 297 292 285 290 294 294 296 294 295 297 300 299 295 297 297 292 295 300 298 296 294 295 295 296 300 307 310 307 306 318 325 327 329 330 330 331 331
312 311 310 308 299 297 295 299 300 295 282 288 291 295 297 297 292 302 302 299 296 295 299 296 302 300 296 295 296 289 299 301 300 299 295 306 297 311 320 322 325 327 329 330 331
312 310 308 307 295 295 297 299 295 291 276 293 291 299 295 292 293 295 302 299 294 294 293 295 298 299 297 296 299 294 300 299 300 297 295 301 297 304 319 318 321 326 328 330 332
311 309 308 301 297 300 300 297 292 282 277 288 291 290 289 291 293 296 297 302 301 296 296 295 300 299 301 303 301 303 299 297 297 294 291 296 299 296 312 318 322 326 329 331 332
309 307 305 305 297 299 299 291 281 277 288 285 285 287 286 288 290 291 292 291 288 285 286 293 296 298 301 297 302 301 296 286 285 286 290 298 298 299 305 323 324 325 328 331 333
307 305 302 306 303 302 292 286 277 284 283 286 286 285 284 288 287 289 287 287 293 290 285 283 286 296 300 297 297 298 296 287 282 284 290 294 292 298 309 319 328 328 329 331 332
305 295 298 301 301 295 289 279 279 281 286 285 284 282 282 287 286 286 285 287 292 291 285 283 285 295 298 300 301 297 295 298 289 285 286 294 294 301 306 310 320 324 327 329 331
296 291 295 303 297 292 286 283 282 289 288 287 280 283 279 282 283 283 283 289 290 294 293 290 283 291 296 300 301 301 302 293 290 286 281 288 289 298 298 303 310 317 322 326 330
291 288 298 302 293 287 281 280 285 291 291 287 284 282 283 282 284 283 284 289 293 292 293 289 288 287 293 293 294 296 298 298 296 291 289 283 288 300 301 306 306 312 322 325 327
288 281 295 297 287 283 281 285 292 288 291 289 288 286 284 285 282 283 284 289 296 295 288 292 289 284 287 296 298 295 295 297 295 290 287 288 294 301 303 304 306 308 320 325 328
290 290 298 296 282 281 285 288 291 289 288 288 287 288 285 283 280 285 288 294 296 293 289 291 286 282 283 290 292 292 297 297 293 297 294 293 293 303 302 302 303 305 308 320 326
292 284 288 289 287 282 285 286 287 295 293 294 290 288 284 282 284 282 286 293 295 293 297 295 288 284 279 284 287 285 289 296 293 294 295 297 298 302 304 302 304 304 305 311 322
288 283 290 283 284 288 289 287 287 288 294 294 290 289 287 279 280 282 285 287 293 295 293 290 284 286 287 287 288 287 287 290 289 292 294 295 297 301 303 303 302 305 307 308 314
288 287 287 289 289 289 289 288 287 289 290 289 289 291 290 286 286 283 284 283 285 291 290 291 284 288 283 287 287 286 290 291 292 294 294 295 294 304 302 312 320 321 321 313 311
296 297 294 291 290 288 289 289 289 292 292 293 293 291 290 290 291 289 288 287 288 288 288 287 286 283 277 287 288 285 291 296 299 300 298 293 299 308 310 320 320 323 325 326 318

GFSSW_sfc_thetae_045.txt.gz
Theta_e
318 318 318 318 318 318 318 319 319 319 320 320 319 319 318 318 317 315 305 313 315 331 345 348 342 341 339 337 340 334 322 319 317 319 324 330 330 336 338 331 333 332 332 336 341
318 317 317 317 318 318 318 318 319 319 319 319 319 318 317 317 312 308 317 323 327 339 343 336 331 334 330 333 337 332 323 320 324 325 325 329 334 335 332 330 328 330 335 338 339
317 317 317 317 317 318 318 318 318 318 319 318 318 317 317 316 307 308 330 342 331 339 341 335 333 331 327 333 333 331 322 325 325 328 330 329 333 336 332 327 331 328 331 334 337
316 316 316 316 317 317 318 318 318 317 318 318 318 317 317 313 299 310 334 338 333 337 340 325 330 324 320 322 332 326 331 330 330 330 329 328 333 331 333 333 338 334 335 335 334
316 315 316 316 316 316 317 317 317 317 317 318 317 317 313 303 301 316 335 332 329 330 327 319 322 320 313 321 325 326 329 331 333 332 332 333 329 329 332 337 337 335 335 333 333
315 316 316 316 316 316 316 315 315 316 319 319 316 317 310 298 311 318 326 326 326 328 323 321 317 321 318 322 319 323 327 329 329 330 330 328 328 330 334 336 333 332 332 333 332
315 316 315 316 315 315 315 314 314 317 320 318 319 315 307 305 316 319 319 324 325 325 319 319 321 317 316 311 320 321 318 319 321 323 325 327 322 326 333 334 331 331 331 332 333
315 315 315 315 315 314 313 312 314 318 319 320 320 315 305 316 319 313 316 319 323 324 315 317 318 318 311 313 310 309 311 304 317 322 323 324 317 328 333 332 329 329 330 330 331
315 315 315 314 314 313 312 313 316 320 321 322 316 312 299 315 306 308 307 311 319 322 315 315 314 309 310 307 305 307 300 303 310 322 324 323 318 329 333 332 329 329 329 329 330
314 314 314 313 312 312 311 313 324 322 321 320 315 302 303 299 304 306 310 320 315 312 309 308 309 304 304 302 295 300 301 307 308 319 321 320 320 330 332 330 328 328 328 328 329
314 313 313 312 311 310 309 305 301 301 302 297 297 297 300 304 306 305 309 315 313 307 299 305 299 298 300 303 303 305 305 304 312 319 319 319 320 327 332 331 328 327 327 327 329
313 313 312 311 310 310 306 303 301 302 296 298 298 298 302 302 300 302 309 307 309 303 302 299 296 302 302 301 302 301 303 304 311 313 318 318 318 324 331 331 331 328 327 327 330
313 312 311 310 310 306 303 303 305 301 294 296 298 299 300 302 299 299 305 303 303 303 303 299 300 303 300 299 298 300 299 303 303 308 313 314 313 317 329 332 333 334 332 330 330
312 312 310 308 304 303 301 304 306 302 292 293 296 298 301 300 296 303 306 302 300 300 304 303 307 301 300 299 299 295 301 302 304 303 303 314 306 315 320 327 330 332 333 333 332
312 311 309 307 304 302 302 307 301 299 282 294 295 303 300 297 298 298 306 303 298 299 300 301 303 303 301 300 302 298 302 300 300 302 303 305 304 313 320 320 326 331 333 335 336
311 309 308 306 304 305 306 303 300 290 281 290 294 293 293 296 296 298 301 305 303 299 300 300 303 303 305 307 303 304 301 301 301 299 293 302 303 306 313 320 326 331 333 336 337
309 307 306 308 303 308 306 300 289 284 292 288 289 292 292 291 292 294 295 295 293 288 291 294 297 302 305 302 305 303 300 294 291 291 290 302 302 305 316 322 326 329 333 336 338
307 305 305 308 308 306 301 296 284 287 287 292 290 290 288 291 291 291 292 291 295 294 292 289 287 298 300 302 301 301 301 294 288 290 292 301 299 305 315 318 326 331 334 337 337
305 302 305 307 306 303 300 288 287 288 290 289 289 287 287 290 290 289 290 292 293 295 289 289 289 298 299 301 301 301 298 304 297 298 295 297 302 310 314 316 319 325 332 334 337
301 299 303 306 302 302 297 288 289 292 293 291 286 288 285 287 287 288 288 293 293 295 297 292 283 293 297 299 303 301 305 297 298 290 289 296 298 299 309 312 317 319 327 333 337
298 296 303 305 301 297 290 289 289 295 295 291 288 287 288 287 288 287 287 292 295 294 296 293 289 286 292 294 297 300 298 302 302 299 293 291 297 309 309 316 316 318 323 329 335
297 290 304 303 296 292 291 290 293 293 295 293 292 291 288 289 288 287 287 290 297 297 291 294 290 284 286 293 297 296 295 300 297 296 300 298 298 310 313 315 318 319 321 325 333
294 294 304 303 290 290 291 291 292 293 293 292 291 292 292 289 285 288 290 295 298 295 293 295 288 281 283 290 296 293 297 298 302 303 300 295 298 312 313 314 316 319 322 327 332
297 291 296 297 294 289 286 288 289 295 294 295 293 292 289 288 290 287 289 295 298 296 299 296 289 285 281 285 292 290 294 295 297 297 299 301 302 308 312 312 314 315 316 318 327
296 291 292 289 291 290 290 289 288 289 294 295 292 291 289 286 286 286 289 291 296 298 296 294 285 287 288 289 289 289 289 291 291 297 299 303 305 309 313 315 317 318 318 317 318
296 294 294 292 291 290 289 288 288 289 290 289 289 291 291 288 289 287 289 290 289 294 293 294 286 288 285 288 289 288 291 292 293 295 299 302 305 314 316 317 315 318 325 326 328
297 298 295 292 291 289 289 289 290 292 293 293 292 287 288 291 294 296 296 295 293 291 291 290 287 284 281 287 288 286 291 293 295 300 300 299 307 313 315 323 324 326 328 329 331

GFSSW_sfc_thetae_048.txt.gz
Theta_e
318 318 318 318 319 319 320 320 320 321 321 320 320 319 318 317 317 318 309 317 319 326 340 345 343 342 342 339 342 342 327 324 321 323 328 335 332 337 340 333 336 338 336 341 344
318 318 317 317 318 318 319 319 320 320 320 320 319 318 317 317 316 312 318 322 327 331 340 338 335 336 331 334 337 333 325 322 329 329 329 334 333 336 336 334 333 333 339 342 342
317 317 317 317 317 318 319 319 319 319 319 319 319 318 317 319 312 315 331 337 337 334 337 336 333 331 324 332 332 332 324 329 329 331 335 335 335 340 335 332 335 333 336 338 341
317 316 316 316 317 317 318 318 318 318 318 319 318 317 319 318 304 314 337 338 345 334 334 330 328 322 320 323 331 324 331 332 331 333 333 331 336 334 333 336 341 339 340 340 339
316 317 317 316 316 317 317 317 317 317 318 319 318 318 317 309 305 319 339 337 329 332 330 325 323 321 316 319 322 324 329 333 332 333 333 333 332 330 334 340 342 340 340 339 338
317 317 317 316 317 316 316 316 315 316 320 321 318 319 315 304 317 319 326 327 326 331 329 325 322 321 316 315 317 320 323 330 331 334 333 329 331 331 335 342 340 339 338 338 338
316 316 316 316 316 315 315 314 314 318 320 319 320 319 310 305 316 318 320 325 328 327 324 323 322 319 316 314 320 320 319 322 326 329 330 332 326 327 338 340 338 338 338 338 338
316 316 316 316 315 314 314 313 315 318 319 320 321 321 307 314 318 313 317 324 328 329 325 325 323 319 315 316 312 312 313 312 322 325 329 329 319 331 339 338 336 337 337 337 338
315 315 315 315 314 313 312 314 319 321 321 322 320 315 304 314 309 313 313 319 322 323 321 323 320 316 316 308 306 308 304 308 315 326 327 327 322 334 338 337 336 337 336 336 336
314 314 314 314 313 312 311 314 323 322 322 322 317 308 306 303 308 312 319 323 318 320 312 312 313 309 309 306 300 303 304 309 310 322 327 325 324 333 335 336 336 336 337 336 336
314 314 313 313 312 311 312 314 313 306 308 302 303 302 303 308 311 312 316 319 318 317 307 308 305 302 305 308 307 307 308 307 313 321 322 323 324 329 335 334 334 336 336 336 336
313 313 313 312 311 311 312 308 305 307 301 303 303 304 306 307 303 307 317 313 310 306 309 305 300 307 309 307 306 305 306 309 313 317 321 323 323 327 334 334 335 335 335 335 336
313 313 312 310 311 311 309 307 312 310 301 300 303 303 303 307 302 302 309 309 310 306 305 303 305 307 305 304 303 304 303 305 308 313 316 320 320 323 329 335 336 336 337 337 335
313 313 311 308 308 311 308 311 314 311 297 297 300 301 304 305 300 306 308 306 306 306 307 305 308 305 303 302 304 300 306 305 304 307 306 316 309 320 324 329 333 336 336 336 337
313 312 309 307 312 309 310 314 312 306 287 297 299 306 304 301 301 301 308 305 302 303 306 305 306 306 303 304 306 303 307 305 304 303 307 310 309 317 323 322 329 334 337 337 338
312 310 308 312 314 311 314 312 307 295 286 294 298 296 297 299 299 301 302 306 306 300 305 305 309 307 308 309 308 307 305 305 304 302 295 305 309 312 318 323 326 333 336 338 339
309 308 308 314 310 314 314 306 294 289 296 292 294 296 296 295 296 297 298 298 298 293 296 301 302 308 309 306 310 307 303 297 295 295 294 305 304 311 319 324 327 330 334 338 341
307 306 306 312 314 313 310 300 288 292 293 296 295 294 293 294 295 294 295 295 298 298 296 294 292 301 304 305 305 305 304 299 294 294 296 303 299 306 318 323 327 332 334 338 340
306 313 314 312 312 313 304 292 292 293 295 293 294 292 293 294 294 294 294 295 296 298 293 294 293 302 302 305 306 305 302 307 302 304 300 302 304 309 316 319 322 324 330 333 338
308 310 307 312 311 308 300 292 294 296 296 295 291 293 290 292 291 293 292 297 295 297 298 296 289 296 298 301 305 305 309 301 301 294 294 300 302 302 309 315 319 322 325 331 338
307 304 308 313 309 304 295 297 295 298 298 294 293 293 293 292 292 293 292 295 297 296 298 296 292 293 295 295 298 301 301 303 305 302 297 296 301 312 311 314 318 321 325 328 336
306 298 309 313 303 303 299 296 294 297 298 297 296 295 293 294 292 293 291 294 299 298 292 297 294 290 292 297 299 298 300 303 298 299 302 302 303 314 314 316 317 320 325 329 334
303 303 310 311 298 297 297 296 296 296 297 296 294 296 297 294 290 292 293 296 298 297 294 297 292 287 289 293 297 294 298 301 303 304 300 299 302 315 316 316 319 318 321 328 331
304 300 304 304 300 294 291 293 293 298 297 298 297 298 295 293 295 291 291 295 298 297 299 296 292 289 286 290 293 292 295 299 301 297 299 301 303 312 314 315 318 320 323 324 327
304 298 299 292 294 294 294 293 290 290 296 297 295 294 293 290 292 290 292 293 296 298 299 296 290 291 292 292 292 291 291 294 295 298 296 301 304 309 315 316 319 321 321 322 323
301 299 298 294 294 294 293 293 291 291 291 291 292 293 293 290 293 290 292 293 292 297 295 296 290 291 289 292 292 289 291 292 294 296 298 300 302 311 318 320 319 320 322 323 327
303 300 299 293 293 293 292 291 291 293 294 295 294 291 289 292 295 297 298 298 297 295 294 293 292 289 285 290 289 286 290 292 294 298 299 297 305 313 316 319 321 323 324 328 331

GFSSW_sfc_thetae_051.txt.gz
Theta_e
319 319 319 319 319 319 320 321 321 321 322 322 321 321 319 319 318 319 313 319 323 328 333 339 337 339 342 337 338 342 326 323 322 323 330 338 336 338 342 334 337 340 340 343 344
318 318 318 318 318 319 319 320 320 321 321 321 321 320 319 318 319 316 324 327 331 330 335 333 332 336 333 333 335 333 323 322 328 331 330 336 336 336 333 335 336 338 343 344 342
318 318 318 318 318 318 319 319 319 320 319 320 320 320 319 320 317 318 334 335 337 333 337 337 335 333 327 329 331 331 323 328 330 332 336 336 335 338 333 331 336 335 339 340 340
317 317 317 317 317 318 318 318 318 318 318 319 320 320 319 321 308 320 334 336 342 331 335 334 330 325 322 321 329 325 329 329 331 334 335 333 337 335 336 333 341 341 342 341 342
317 318 318 317 317 317 318 317 317 317 318 320 321 319 319 314 311 320 339 338 336 326 332 329 324 324 318 320 325 325 327 332 334 335 334 337 332 332 332 341 342 342 342 341 341
317 317 317 317 317 317 317 316 316 316 319 323 321 320 320 309 318 320 328 332 329 322 329 329 324 326 320 319 320 323 325 330 334 332 333 329 331 334 335 342 341 341 340 341 341
317 317 317 317 316 316 315 315 316 317 321 321 321 321 317 310 318 320 326 325 324 325 327 329 327 323 320 316 320 320 318 322 331 333 329 331 325 328 338 341 339 339 340 340 341
316 316 316 316 315 315 314 314 318 320 320 321 323 326 310 316 320 316 321 326 329 331 331 328 327 321 320 319 314 314 317 316 326 330 331 331 319 331 340 339 338 339 339 340 340
316 316 316 316 315 314 313 313 321 322 322 324 325 322 308 316 312 316 318 322 326 328 327 327 323 317 318 311 309 309 307 311 316 329 328 328 321 325 339 338 337 339 339 339 339
315 315 315 315 313 312 312 312 323 322 324 324 321 312 309 307 312 315 319 323 321 323 319 319 316 312 313 310 302 304 306 311 312 323 326 324 325 330 336 337 337 339 338 338 338
315 314 314 314 312 311 312 317 316 314 313 307 308 306 307 312 314 315 322 321 322 318 309 313 309 305 310 312 311 310 308 309 314 321 322 322 324 329 334 335 336 338 338 338 339
314 314 313 313 311 311 314 311 309 310 304 307 307 308 309 311 306 311 320 315 313 310 313 308 304 310 312 311 309 308 307 309 314 320 324 323 321 326 333 334 337 337 338 337 339
314 314 313 311 310 310 312 309 315 314 304 305 307 306 307 310 305 305 312 314 311 309 311 307 308 311 309 309 307 307 306 308 311 316 320 320 319 322 330 334 337 338 339 340 338
314 313 312 309 308 314 311 315 316 314 300 301 302 305 307 308 303 308 310 310 310 308 307 308 311 308 307 306 308 305 309 308 309 312 308 318 307 318 325 329 333 336 337 338 338
313 312 310 308 315 312 313 316 315 312 289 301 302 309 306 304 304 305 309 308 305 306 310 306 307 306 305 306 309 306 311 308 307 306 308 311 310 315 325 321 329 335 337 338 340
312 310 309 314 317 314 316 316 311 297 289 297 301 300 301 302 303 304 304 307 309 305 307 308 313 310 309 310 310 311 308 308 307 305 298 306 311 313 318 321 327 333 337 338 339
309 307 309 316 312 317 316 311 297 291 301 297 298 300 299 299 300 300 301 301 299 295 297 302 305 310 311 307 311 309 306 299 297 297 296 306 307 313 321 326 326 331 335 339 340
307 306 310 314 316 316 313 303 292 296 297 300 298 298 296 299 300 299 299 298 302 301 299 297 295 303 309 307 307 307 306 300 295 297 299 305 302 309 321 327 325 332 333 338 340
306 315 316 315 315 315 307 296 296 298 299 296 298 295 297 298 297 297 299 298 301 301 297 296 297 305 306 308 309 307 304 309 303 306 302 305 307 311 317 320 325 327 332 333 338
313 312 310 315 316 311 302 295 298 301 300 299 294 298 295 297 295 297 298 300 299 300 302 300 295 303 303 306 307 306 311 303 303 296 296 303 306 304 309 314 319 324 327 332 337
312 307 312 317 315 306 299 301 301 303 301 299 297 297 297 296 297 297 297 299 300 299 300 300 298 298 300 298 299 300 300 304 306 303 297 298 304 315 313 314 316 320 326 330 334
312 304 315 317 305 308 302 301 296 301 302 300 300 298 297 298 296 296 296 299 302 300 296 299 297 293 296 302 303 302 301 302 298 300 304 303 304 317 317 317 317 320 325 328 332
309 309 315 315 300 303 302 300 300 300 300 300 298 300 300 295 293 296 297 301 300 299 297 299 295 290 293 298 300 297 300 303 304 304 302 300 302 317 318 317 319 319 321 327 330
309 304 308 308 305 301 299 298 297 301 300 300 299 300 298 295 298 295 295 298 299 300 300 298 296 294 290 294 296 296 296 299 301 298 300 302 306 312 316 316 318 321 322 324 329
309 302 304 300 300 301 300 298 295 294 300 300 297 296 296 293 294 293 297 297 299 300 299 298 291 294 295 295 295 294 295 297 297 299 297 302 304 311 315 317 319 322 323 324 325
305 304 306 301 300 299 298 294 293 293 294 294 294 296 296 293 294 293 293 296 296 298 297 298 291 293 292 295 295 292 295 295 295 296 299 302 303 312 314 316 318 320 323 323 325
309 309 305 295 298 296 294 295 294 297 298 298 296 295 294 296 299 301 302 300 299 298 297 296 293 291 288 294 293 289 293 294 296 297 296 294 302 308 309 312 315 320 323 323 325

GFSSW_sfc_thetae_054.txt.gz
Theta_e
320 320 319 319 319 319 320 321 321 322 322 322 322 322 322 321 319 318 311 320 326 327 325 327 332 336 340 338 339 336 324 321 320 323 327 337 334 337 339 335 337 339 339 341 343
319 319 318 318 319 319 319 320 320 321 321 321 321 322 321 320 317 316 331 336 332 330 319 329 326 332 331 332 333 328 323 322 327 329 331 334 335 336 335 334 334 337 342 343 342
318 317 318 318 318 318 319 319 320 320 320 320 320 321 321 320 316 317 333 333 333 333 326 334 330 331 325 331 329 327 322 326 327 332 334 334 334 336 331 329 335 335 337 340 339
317 317 317 317 318 318 318 319 319 319 319 319 321 322 320 318 309 321 340 339 342 329 326 332 328 325 323 322 328 322 328 329 329 333 336 333 336 334 331 334 338 340 340 339 338
318 318 318 317 317 317 318 318 317 317 318 319 322 321 317 314 315 323 343 339 333 323 323 330 326 325 319 322 323 322 325 327 333 333 336 339 333 332 333 338 340 341 340 337 338
317 317 317 318 317 317 317 317 316 318 318 321 323 320 316 313 318 320 323 332 325 319 322 332 327 327 322 320 318 323 325 326 331 333 334 333 330 333 334 338 339 339 338 339 338
317 317 317 317 317 316 316 316 316 320 321 322 323 320 320 316 318 319 323 327 326 320 320 331 330 324 323 317 321 319 317 320 323 332 331 333 326 328 337 337 337 337 338 339 339
316 317 317 317 316 316 315 315 315 322 322 322 323 323 319 317 319 317 321 325 327 324 322 331 330 323 321 322 316 312 314 311 320 330 332 331 317 327 336 335 334 336 337 338 338
316 316 316 316 316 315 313 313 316 324 324 323 323 321 315 318 313 316 318 321 323 323 328 331 326 320 317 313 309 310 304 309 314 327 329 328 323 332 334 333 334 336 336 337 338
315 315 315 315 314 313 312 313 320 322 325 324 321 313 314 308 312 315 318 324 321 322 322 322 318 312 312 309 301 304 304 308 310 318 325 323 322 331 333 329 335 336 336 336 336
315 315 314 314 313 312 312 316 314 315 315 311 311 310 309 313 315 315 320 317 320 320 311 316 310 306 309 310 311 309 307 306 311 317 323 321 321 323 326 326 332 335 336 336 336
315 314 314 313 312 311 311 311 310 311 304 312 309 308 310 312 307 313 321 314 314 311 312 309 305 312 311 313 311 310 307 306 311 315 320 323 319 323 325 328 332 335 335 335 336
314 314 313 312 311 310 313 311 316 315 304 306 309 307 308 310 307 308 312 314 311 308 310 305 308 311 310 309 308 308 306 306 307 313 318 317 315 316 321 328 329 335 336 337 337
314 313 312 310 309 315 311 315 317 315 299 302 303 306 307 308 304 311 311 310 309 307 308 309 312 310 307 307 308 304 310 309 307 307 306 316 306 318 323 325 323 324 335 335 337
313 312 310 309 309 312 314 316 316 312 289 302 303 310 308 304 306 306 310 308 303 306 308 305 308 308 307 307 309 306 311 309 308 305 307 310 308 313 326 321 320 328 336 336 338
312 310 309 313 312 315 316 316 312 296 289 298 303 301 301 303 304 306 305 308 309 304 306 306 313 310 308 310 310 311 308 308 308 304 297 304 306 308 317 321 321 327 331 335 337
310 308 308 313 313 317 315 311 296 291 303 298 299 301 301 301 301 302 302 301 298 295 296 303 305 310 312 306 309 308 304 297 296 296 295 304 302 307 317 328 326 323 325 330 340
308 306 314 314 316 315 312 303 292 298 299 302 300 299 297 301 300 300 298 298 303 301 298 296 294 303 310 308 305 305 304 298 292 294 297 305 299 304 315 324 331 329 330 333 339
307 316 315 316 315 313 306 296 296 299 301 299 299 295 296 299 298 299 299 298 302 303 296 295 297 306 306 309 308 305 303 307 301 303 299 303 306 310 314 317 326 327 331 329 334
310 314 311 316 315 310 302 296 300 303 302 301 294 298 295 299 297 298 298 302 300 303 304 299 294 303 305 308 308 305 308 301 302 294 294 300 304 304 310 314 321 325 325 328 334
311 309 314 319 316 307 299 301 303 305 303 299 298 298 298 298 299 298 298 301 302 301 302 299 297 297 303 301 300 301 300 303 304 302 297 296 301 315 317 315 318 325 327 327 329
314 304 316 318 305 307 302 303 296 303 305 302 301 300 298 299 297 297 297 300 303 302 297 301 297 293 296 303 305 302 300 300 295 298 302 301 301 315 318 318 318 318 322 333 336
310 310 317 316 300 301 304 302 302 301 302 301 299 301 302 298 294 297 298 303 303 300 298 301 295 290 292 298 301 298 299 300 300 300 298 298 301 315 317 319 320 319 321 328 336
311 305 309 309 308 303 301 299 299 302 301 302 300 301 299 297 299 296 297 301 302 300 303 300 295 293 290 294 297 296 298 299 297 296 297 298 303 311 312 315 318 321 324 325 329
310 303 305 299 301 302 302 300 297 296 300 301 298 298 296 293 295 295 297 299 301 303 299 298 291 294 295 296 296 296 296 297 296 297 296 300 302 309 309 312 316 321 323 325 327
305 304 306 302 302 301 299 297 295 297 297 296 296 297 297 294 295 293 296 296 296 301 298 299 291 294 292 295 296 294 296 296 297 298 298 299 300 308 311 314 315 318 320 319 321
312 312 307 298 301 299 297 297 296 299 299 300 298 296 295 297 299 300 300 300 300 297 298 297 294 291 287 293 293 290 295 296 296 299 298 294 301 306 306 308 311 313 313 315 320

GFSSW_sfc_thetae_057.txt.gz
Theta_e
319 319 319 319 319 319 320 321 321 321 321 322 322 322 323 322 321 316 309 317 318 334 332 324 325 327 341 338 340 338 318 318 321 321 326 334 332 334 337 334 337 338 336 337 338
318 318 318 318 319 319 319 320 320 320 321 321 321 321 322 322 314 312 326 342 341 338 312 317 320 324 324 329 331 328 318 320 327 328 329 330 332 329 332 332 333 336 339 340 339
317 317 317 318 318 318 319 319 320 320 320 320 320 321 322 319 312 316 337 342 343 335 313 319 324 323 322 327 326 324 318 324 327 331 334 329 330 336 332 328 333 333 335 336 337
317 317 317 318 318 318 318 319 319 318 319 319 320 322 321 315 306 320 341 341 343 324 315 318 323 317 319 318 325 319 324 325 328 335 335 332 335 330 332 332 340 339 338 336 335
316 317 317 317 318 318 318 318 317 317 319 319 321 322 313 308 310 326 346 344 333 323 313 316 322 320 316 319 321 319 321 325 330 332 336 335 333 331 331 335 340 340 338 334 334
316 317 318 317 318 318 318 317 316 316 321 321 323 321 309 307 316 324 332 331 323 318 313 318 325 326 320 319 316 320 320 320 324 333 335 331 331 333 334 334 335 338 335 335 334
316 317 317 317 317 317 317 316 315 316 322 323 324 319 315 314 316 315 315 328 323 318 311 320 328 325 320 315 320 316 310 314 317 326 330 332 323 326 336 337 336 334 334 334 334
316 317 317 316 316 316 316 314 314 316 322 322 323 317 312 322 312 314 314 318 326 320 315 320 327 324 317 318 316 309 306 301 313 321 329 328 318 330 337 336 333 333 334 335 334
316 316 316 316 316 315 313 313 315 318 323 323 317 313 310 318 310 311 311 314 320 320 317 319 319 317 315 307 303 305 296 301 306 315 327 325 322 331 337 335 332 332 334 335 334
316 315 315 315 314 313 312 313 318 315 321 322 319 308 314 309 309 312 313 314 316 314 313 312 315 308 306 300 295 299 298 300 302 311 324 323 323 328 330 332 333 333 334 333 333
315 315 314 314 313 311 309 307 308 305 307 307 307 310 310 309 311 310 315 313 316 314 307 313 305 302 303 305 306 305 304 302 304 310 318 322 324 327 327 331 333 333 332 333 333
315 314 313 313 312 311 308 303 304 304 298 309 311 310 308 307 305 311 316 306 310 305 310 305 302 309 311 309 307 305 302 302 307 309 308 319 321 323 328 327 332 329 331 332 334
314 313 312 311 310 310 306 307 311 309 297 303 306 305 303 304 303 306 310 311 308 305 307 301 305 312 310 307 304 303 300 302 302 306 311 318 314 317 324 329 330 333 332 333 333
313 313 312 310 306 307 307 311 310 309 291 299 300 303 305 303 299 309 308 305 305 304 305 304 309 307 306 304 304 296 305 306 304 300 294 316 303 313 318 324 329 327 327 329 333
313 312 310 308 304 304 311 310 308 305 284 301 300 307 303 299 301 302 308 303 298 300 301 300 304 305 304 304 305 301 307 304 304 298 296 299 294 308 319 318 321 328 324 326 329
312 311 309 310 306 307 311 311 306 290 286 297 301 299 297 299 301 304 304 304 303 299 300 300 306 306 306 309 308 308 303 301 300 296 290 296 294 296 314 318 319 320 322 326 329
310 308 307 310 306 313 310 304 290 286 300 295 295 298 297 297 299 298 298 295 291 286 289 298 300 304 307 302 304 302 295 287 287 289 289 295 293 295 319 324 322 321 323 329 337
308 306 311 313 312 311 306 296 287 296 295 299 298 297 294 298 297 299 295 292 298 295 290 288 288 297 305 302 298 298 295 289 284 286 290 297 290 296 307 328 325 325 329 334 333
307 313 311 314 315 308 299 290 292 295 298 297 296 292 292 295 294 296 293 293 297 297 288 289 291 301 303 306 305 298 294 298 291 295 289 294 298 304 307 314 324 325 329 328 331
306 309 311 313 311 305 297 293 297 300 300 299 293 295 292 295 293 293 293 298 298 300 298 293 286 296 301 303 305 300 301 292 292 285 285 292 294 296 302 305 321 324 324 330 334
309 307 312 316 312 303 294 298 301 304 303 298 295 294 295 294 295 295 295 298 300 299 298 292 288 290 296 294 294 295 293 294 293 292 287 287 292 303 306 310 320 323 325 331 330
310 303 313 314 302 304 299 300 301 301 304 301 300 298 296 296 294 294 294 297 302 300 294 295 289 285 289 297 299 297 292 291 287 288 292 292 295 309 310 313 319 324 326 331 333
305 307 313 312 297 298 302 300 300 299 299 298 298 298 298 294 291 296 297 302 302 299 294 294 288 283 285 289 294 293 294 290 290 288 287 286 293 307 309 310 314 315 319 329 331
307 302 306 307 304 299 298 297 296 301 299 299 298 299 295 292 295 293 295 300 302 300 305 299 288 285 282 286 292 290 293 295 289 283 285 289 293 298 305 306 309 314 314 319 331
309 300 304 296 298 299 298 296 294 293 298 299 297 295 293 288 291 291 295 297 300 303 299 293 285 288 290 292 293 292 292 293 291 290 285 290 293 298 302 304 308 310 311 312 315
302 301 304 299 301 298 297 295 294 295 296 294 294 295 295 290 291 289 292 292 291 296 294 294 287 288 288 292 292 290 293 294 294 294 293 293 293 297 300 302 302 302 304 305 307
311 311 305 299 298 296 295 296 296 298 298 298 298 295 293 295 298 297 297 295 294 292 291 291 289 287 283 290 290 286 291 293 294 296 293 289 293 298 298 300 300 301 304 305 306

GFSSW_sfc_thetae_060.txt.gz
Theta_e
318 318 318 318 319 319 319 320 320 321 321 321 321 321 322 323 321 316 308 313 315 348 337 331 329 324 337 336 338 338 319 315 319 321 325 335 332 334 339 333 336 337 333 334 339
318 318 318 318 319 319 319 320 320 320 320 320 320 321 322 322 314 310 321 332 336 343 311 315 314 320 318 331 333 329 317 318 323 328 329 333 332 331 332 332 333 335 336 336 338
317 317 318 318 319 319 319 319 319 319 319 319 319 320 322 319 311 315 331 342 345 338 312 312 318 320 315 320 325 323 319 325 327 331 328 326 329 335 330 327 333 330 331 333 334
317 317 318 318 318 318 319 319 318 318 318 320 319 321 322 314 304 319 341 342 346 322 312 311 313 313 313 315 324 317 324 324 326 333 330 328 335 332 333 335 339 336 335 334 333
317 317 317 318 318 318 318 318 317 317 317 321 320 322 312 306 304 325 345 342 335 320 310 310 314 316 310 317 321 317 320 325 328 335 331 330 328 329 331 338 341 338 336 334 333
316 317 317 317 317 317 317 317 316 316 317 322 323 322 306 304 321 329 331 332 324 317 312 310 316 323 318 316 316 319 318 318 334 332 331 328 331 331 332 337 338 337 334 334 333
316 317 317 317 317 317 316 315 315 316 317 323 323 318 310 308 319 329 329 324 321 318 309 312 316 316 321 314 320 318 311 310 322 333 331 332 326 327 332 335 335 335 334 334 333
316 316 316 316 316 316 315 314 314 316 317 323 323 315 306 325 322 315 325 323 322 318 313 313 316 316 318 320 314 307 303 298 311 331 332 326 318 329 334 335 333 334 333 333 332
316 316 315 316 315 315 313 313 315 318 320 324 312 309 307 324 308 309 309 309 321 315 314 316 311 310 313 306 300 302 297 299 303 316 328 324 321 330 336 335 331 332 332 332 332
315 315 315 315 314 313 312 312 314 317 320 322 319 305 309 309 307 309 309 315 316 315 312 309 304 301 303 299 292 296 297 296 298 305 323 322 322 330 334 333 330 330 331 330 332
315 315 314 314 313 311 308 303 300 301 306 302 305 306 308 309 308 306 311 309 313 308 301 306 301 299 303 303 303 302 300 299 304 308 307 321 323 328 332 332 330 329 330 330 333
315 314 313 313 312 310 306 298 302 301 295 305 308 309 312 308 302 305 310 304 308 302 305 303 299 306 309 307 305 303 300 299 303 307 305 320 321 327 328 330 332 331 331 331 333
314 314 313 312 310 307 302 303 308 302 293 300 303 303 305 302 300 301 309 306 305 302 303 300 304 310 309 306 304 301 298 300 300 304 319 319 317 320 325 328 333 335 335 334 332
314 314 312 310 304 302 302 307 305 303 287 294 297 301 301 302 296 307 306 303 302 302 303 303 309 306 305 304 303 294 302 303 303 297 294 314 303 313 321 322 327 323 328 330 333
314 313 310 308 298 299 305 305 306 300 282 299 296 304 300 297 298 301 305 301 296 297 297 297 301 303 302 303 305 301 305 302 301 295 292 295 292 304 319 318 324 321 324 328 333
313 311 309 305 301 303 306 306 300 287 283 294 298 297 295 295 298 301 302 301 301 296 296 296 302 301 301 306 307 307 301 297 295 292 287 291 292 300 312 318 323 328 329 331 331
310 308 307 308 299 304 304 298 287 282 296 293 292 294 293 293 295 297 296 292 290 285 285 294 296 299 303 298 301 300 292 286 286 285 286 290 291 293 317 321 325 326 329 332 332
308 306 307 309 304 305 298 292 284 293 292 296 294 293 291 293 293 296 293 290 293 290 286 285 286 294 300 298 297 294 292 287 282 283 287 293 289 296 311 324 325 329 330 327 328
307 304 305 307 309 302 294 286 286 292 297 295 294 290 291 294 292 292 292 291 294 293 286 285 288 298 300 298 300 296 292 294 288 287 287 290 295 301 309 308 323 323 323 324 328
300 302 303 311 307 298 291 291 292 298 299 296 289 292 288 291 291 291 290 296 295 297 292 289 285 291 298 298 300 298 299 291 288 283 282 288 290 293 301 308 317 321 322 324 332
304 301 306 307 305 296 290 292 297 300 301 295 292 291 291 290 291 290 291 296 298 297 295 289 286 288 292 289 288 290 289 291 290 289 284 284 289 300 305 309 310 321 324 327 331
301 296 308 307 297 294 289 293 299 297 299 296 296 294 292 292 290 291 291 294 300 297 291 290 285 283 287 293 295 292 289 287 285 284 287 289 290 304 308 309 309 311 324 329 332
298 300 307 305 289 289 293 296 297 295 295 295 294 294 293 290 287 292 294 300 300 297 292 291 284 281 284 287 292 290 291 288 286 283 282 283 286 303 307 308 308 308 322 329 332
299 293 298 298 295 292 290 292 292 299 297 297 294 293 290 288 289 289 291 297 299 300 307 296 284 283 279 283 288 287 291 292 285 280 282 283 286 294 298 300 302 306 312 329 330
298 293 296 291 293 293 294 293 293 291 296 296 293 293 289 284 286 287 290 291 296 301 295 290 282 284 285 289 290 290 290 291 287 286 283 286 287 290 294 297 299 302 306 319 327
296 295 297 292 294 294 292 290 292 293 293 291 291 294 292 286 287 286 288 286 286 291 291 290 285 286 285 291 291 289 291 292 291 292 291 291 288 293 295 299 299 303 304 306 309
304 302 297 293 292 290 289 291 294 294 295 297 296 292 291 293 295 293 291 290 290 287 286 287 286 283 279 288 288 283 288 290 291 292 291 287 291 294 295 298 299 303 307 308 309

GFSSW_sfc_thetae_063.txt.gz
Theta_e
318 318 318 319 319 319 320 320 320 320 320 320 320 321 320 321 321 316 306 310 314 344 349 339 333 324 338 334 338 338 321 313 316 320 325 333 331 335 338 333 331 337 329 334 340
317 318 318 319 319 319 319 319 320 319 319 319 319 320 320 321 313 308 319 326 332 345 323 322 317 319 320 331 332 328 318 318 323 328 327 332 332 332 332 331 332 328 333 338 341
317 318 318 318 319 319 319 319 319 319 318 319 320 319 321 319 309 312 329 332 337 343 311 317 318 319 314 318 329 324 320 324 326 330 333 331 331 333 330 327 332 325 330 335 338
317 318 318 318 318 318 319 319 318 318 318 319 320 319 321 313 297 318 335 339 343 322 310 309 313 313 310 313 320 315 324 326 324 330 328 326 334 331 332 333 338 331 335 335 334
317 317 317 318 318 318 318 318 317 317 317 318 321 321 310 303 302 324 337 345 334 314 308 307 311 312 309 314 318 317 320 322 324 327 330 330 327 330 332 339 339 334 334 334 334
316 316 317 317 317 317 317 316 316 316 316 318 323 321 304 297 317 334 328 332 324 313 308 311 312 317 314 313 313 319 320 318 324 328 329 326 329 330 333 339 336 333 331 332 333
316 316 316 316 316 316 316 315 315 315 317 318 323 317 308 302 320 331 326 323 319 313 308 308 314 316 318 315 319 317 313 313 327 327 328 331 325 326 334 337 333 333 331 332 332
315 316 316 315 315 315 314 314 314 316 317 319 325 312 305 319 321 325 325 320 319 314 309 311 314 312 314 319 313 305 302 297 322 327 331 327 315 327 335 335 331 333 331 333 331
315 315 315 314 315 314 313 313 315 318 319 323 310 307 306 323 315 314 325 315 316 314 313 315 312 307 309 305 299 300 296 298 306 329 328 325 318 328 334 334 331 331 331 332 331
315 315 315 314 314 313 312 312 314 318 320 320 318 304 307 307 305 307 313 317 317 312 310 307 302 299 300 298 293 295 296 296 298 320 324 321 319 328 331 333 331 331 330 330 330
315 314 314 314 313 311 307 301 298 297 307 300 299 303 307 310 307 305 307 313 311 308 300 302 297 295 299 303 304 301 298 297 301 306 302 318 319 326 330 332 330 329 329 329 330
314 314 314 313 312 310 305 296 298 299 294 304 307 308 310 308 302 303 308 303 305 300 302 301 296 304 308 306 303 301 298 297 302 305 302 305 316 325 329 330 330 329 328 329 330
314 314 313 312 310 305 300 300 304 301 292 298 302 302 302 306 300 299 304 304 304 301 301 298 303 309 308 305 302 298 296 297 299 302 318 317 316 321 326 328 331 332 331 331 330
314 314 312 309 301 299 300 302 304 300 287 292 295 301 301 301 295 304 308 303 300 301 302 301 307 306 303 303 302 294 302 303 301 296 291 312 300 316 320 321 326 330 331 331 331
314 313 310 308 298 299 302 303 302 298 280 297 294 302 297 296 297 299 303 300 297 297 299 298 299 302 301 301 303 300 304 301 299 294 290 294 294 300 318 317 321 328 331 332 333
313 311 309 303 299 302 305 300 299 287 283 292 296 294 294 294 296 299 300 301 299 295 294 295 299 299 301 304 305 306 300 295 292 290 285 290 291 296 313 317 320 326 330 332 334
310 308 307 307 298 301 301 297 286 282 294 292 290 292 291 291 293 294 294 291 289 285 284 292 294 297 300 295 298 297 291 285 284 284 285 288 290 293 312 320 322 324 328 326 330
308 306 306 308 301 304 297 292 283 291 290 294 292 292 290 291 291 294 291 288 293 289 284 284 284 293 298 294 293 293 292 286 281 282 286 289 288 294 306 315 323 327 328 330 329
307 303 303 305 308 299 295 285 285 290 295 293 292 289 290 293 292 291 290 290 293 291 284 284 286 296 298 296 295 293 290 292 286 284 286 288 292 299 309 309 312 323 327 328 331
302 302 302 308 304 298 294 290 290 296 296 295 288 290 287 290 290 289 289 294 293 295 290 287 284 289 295 296 295 292 296 289 286 282 281 286 288 293 301 303 307 319 324 328 331
303 299 304 304 302 296 288 289 294 298 299 293 290 289 288 288 289 288 290 294 297 295 293 288 285 288 290 288 287 288 286 285 287 286 283 283 288 300 301 302 303 311 322 327 325
300 293 308 304 293 289 287 291 297 295 297 295 294 292 290 289 288 289 290 293 299 295 290 289 283 283 285 291 295 292 286 283 282 283 284 286 288 298 301 302 303 320 320 323 328
298 298 305 303 289 287 291 294 296 294 293 293 291 292 291 288 286 290 293 297 300 297 293 291 283 279 280 285 290 288 289 286 283 280 280 281 285 297 297 298 301 316 325 329 330
296 291 296 296 292 290 288 290 290 298 295 295 292 291 289 287 288 287 289 294 297 298 306 294 282 281 278 281 286 285 289 289 284 281 281 282 285 290 293 295 298 301 311 323 328
294 291 293 288 290 291 292 292 291 290 294 294 292 291 286 284 285 285 289 290 294 297 294 288 282 283 284 287 289 288 289 290 285 285 282 285 286 290 292 293 296 303 307 310 314
295 293 294 290 291 291 290 288 291 291 291 291 290 292 290 285 285 283 287 286 285 290 287 288 283 284 284 289 289 287 290 290 290 290 289 289 287 292 295 297 301 302 304 303 305
299 299 294 292 290 288 288 290 292 292 295 296 295 290 289 291 294 293 292 290 287 285 285 285 283 281 278 286 286 282 287 289 289 291 289 286 289 296 295 297 298 298 300 301 302

GFSSW_sfc_thetae_066.txt.gz
Theta_e
318 319 319 319 319 319 320 320 320 320 320 320 320 320 320 320 320 315 304 309 313 332 343 338 330 327 338 334 337 337 320 312 315 318 324 331 330 335 339 330 331 333 330 334 339
318 319 319 319 319 319 319 319 319 319 319 319 319 319 319 320 312 307 317 324 329 348 334 323 318 321 327 330 331 326 319 317 323 327 327 331 332 333 332 330 326 330 335 338 342
318 318 318 318 319 319 319 319 319 318 318 318 318 319 320 317 306 309 327 330 340 335 324 318 318 318 315 321 328 325 319 323 325 331 333 331 330 334 330 326 328 327 331 337 339
317 317 318 318 318 318 318 318 318 318 317 318 319 320 321 310 293 320 333 336 342 318 312 314 316 313 312 314 320 315 322 325 323 329 329 328 333 330 331 333 333 333 335 337 337
317 317 317 317 317 317 318 317 317 317 317 317 319 321 309 301 300 326 334 335 331 311 307 308 313 311 310 313 316 315 320 322 324 323 327 331 329 330 332 337 333 335 335 336 337
316 316 316 316 316 317 316 316 315 315 316 317 319 320 302 292 311 329 332 330 318 309 306 310 312 315 312 312 314 319 319 318 318 318 326 324 326 330 335 336 332 333 332 335 336
315 315 316 316 316 316 315 315 314 315 316 317 322 317 305 297 320 328 328 319 315 310 305 307 315 313 315 313 318 316 311 312 313 325 325 332 324 324 336 333 330 331 332 333 336
315 315 315 315 315 315 314 314 313 316 316 318 324 311 304 315 323 323 320 317 318 310 308 308 313 311 311 316 310 303 301 298 316 325 329 323 312 327 336 331 327 330 331 332 333
314 314 315 314 314 314 313 312 316 319 318 323 309 306 303 323 315 320 320 315 314 312 310 314 308 305 306 303 300 299 295 297 302 326 327 322 316 327 336 333 327 328 328 330 331
315 315 315 315 314 312 311 311 316 320 320 320 317 302 305 307 306 315 320 317 313 311 308 304 300 298 298 298 294 295 295 295 297 321 323 319 317 327 332 332 330 329 328 328 329
315 315 314 314 313 311 307 300 295 295 306 298 297 304 303 309 308 303 314 313 311 306 298 300 295 293 297 302 303 300 298 297 300 307 304 303 314 324 328 331 330 329 328 328 328
315 314 314 313 312 310 304 296 297 298 293 303 306 306 308 307 302 302 313 305 305 299 301 297 292 300 304 305 303 300 297 296 301 304 300 303 310 322 325 330 331 330 328 329 328
314 314 313 312 311 304 297 298 302 300 292 296 300 301 301 304 301 298 304 305 303 299 299 295 301 306 306 304 301 297 295 296 297 302 308 314 310 319 328 329 331 332 331 331 329
314 314 311 310 300 299 298 302 301 299 286 291 294 300 300 300 294 303 306 305 301 299 301 300 305 305 302 302 302 292 302 302 300 295 289 308 295 310 321 322 326 328 329 329 329
314 312 310 308 298 299 302 301 299 297 279 295 294 301 295 294 297 298 301 300 297 298 300 298 301 302 300 301 303 300 303 301 299 293 289 293 298 297 316 316 321 327 329 330 331
313 311 309 302 298 301 302 299 297 286 281 291 294 293 293 293 295 298 298 299 297 294 293 297 298 301 303 305 304 304 298 293 290 289 285 290 296 291 309 315 318 326 330 331 332
310 308 307 306 297 300 300 296 286 282 293 291 289 290 290 290 293 294 293 289 287 284 284 290 293 296 299 294 297 296 291 284 283 283 284 287 289 291 302 306 312 321 328 333 333
308 306 306 307 303 303 296 292 282 291 290 293 291 293 290 291 292 293 291 288 293 287 283 284 284 291 296 292 291 292 291 285 281 281 285 289 287 294 306 308 309 322 327 332 333
307 302 301 304 307 298 294 284 284 291 294 292 291 289 289 291 290 290 288 289 291 290 283 283 285 294 296 295 294 291 288 291 285 283 284 287 293 300 305 304 305 308 323 328 330
301 300 300 304 303 299 292 288 290 296 296 294 287 289 286 288 288 287 287 292 292 294 289 286 284 289 294 295 293 291 292 287 285 282 281 285 290 292 297 299 302 306 315 324 328
302 296 303 302 300 295 286 287 293 297 298 293 291 289 288 287 288 287 288 293 296 294 292 286 285 286 289 287 285 288 286 284 286 284 283 282 288 296 297 299 298 318 325 319 329
299 293 305 302 292 286 285 289 295 293 295 293 293 291 289 288 286 288 288 290 297 294 290 288 285 283 283 290 292 290 286 283 284 283 282 285 287 295 294 296 301 313 326 326 327
297 295 302 300 288 286 290 292 294 293 292 291 290 290 289 285 285 289 290 295 296 297 291 289 282 278 281 284 288 287 288 283 282 280 280 282 284 295 295 297 303 310 310 311 319
294 290 295 295 290 289 287 289 289 296 294 294 291 290 288 286 287 286 288 293 295 297 304 293 282 281 279 281 285 285 288 288 283 281 281 282 286 290 292 294 300 303 306 308 309
293 290 291 287 290 290 290 290 290 289 293 293 291 289 286 283 284 285 288 289 293 296 292 287 282 282 284 288 288 287 288 289 285 285 283 285 287 290 293 295 298 300 302 303 303
295 292 291 288 289 290 290 288 289 290 291 290 289 291 290 284 284 282 286 284 284 289 286 286 283 284 282 288 288 286 289 290 289 289 288 288 288 294 296 299 298 298 300 300 301
297 296 293 291 288 287 287 289 291 291 294 295 293 289 289 290 292 290 290 287 285 284 284 284 282 279 276 285 284 281 286 288 289 290 289 285 290 295 294 295 296 297 298 299 300

GFSSW_sfc_thetae_069.txt.gz
Theta_e
318 319 319 319 320 320 320 320 320 320 320 319 319 319 318 318 319 316 307 313 315 335 342 337 334 341 341 337 340 339 325 319 319 321 325 332 330 335 340 331 331 334 333 336 340
318 318 318 319 319 319 319 319 319 319 319 319 319 318 318 318 313 308 317 323 329 343 331 324 322 337 333 333 335 331 325 321 327 329 328 333 332 332 332 328 329 332 337 339 340
317 318 318 318 319 319 319 319 319 319 318 318 319 319 319 319 308 308 326 329 334 345 331 324 328 332 328 333 331 330 324 327 328 332 334 332 332 336 332 325 328 329 333 336 337
317 317 317 318 318 318 318 318 318 318 317 318 318 320 321 315 298 316 333 334 348 333 322 322 323 320 324 323 330 324 327 327 327 332 332 331 336 332 333 333 335 336 336 336 335
317 316 317 317 316 317 317 317 317 317 317 317 318 320 315 306 304 330 334 342 328 321 317 318 318 320 316 323 323 324 325 326 327 326 328 333 331 331 333 337 338 337 337 335 335
315 315 315 316 316 316 316 316 315 316 316 317 317 320 310 298 318 328 328 334 323 316 315 321 320 323 320 322 321 323 322 322 322 321 325 327 329 332 335 335 335 336 335 336 336
315 315 315 315 316 316 315 314 314 315 316 317 319 317 307 302 327 329 327 325 322 315 313 318 326 321 321 318 322 320 316 315 324 327 327 333 325 327 332 334 332 333 335 336 337
314 315 315 315 315 314 313 312 313 316 317 318 322 317 306 318 328 328 324 319 317 316 314 315 322 320 318 321 316 313 310 309 323 328 330 329 319 331 335 332 329 331 335 336 338
314 315 315 314 314 313 311 311 319 320 319 323 317 313 306 325 322 325 321 315 316 315 315 315 316 316 315 314 311 308 307 307 308 330 329 326 321 332 334 331 328 330 333 335 337
315 316 315 314 313 311 311 311 317 322 322 321 318 309 311 310 317 321 323 318 314 312 309 308 308 309 310 311 304 306 305 305 308 322 327 323 322 330 336 332 331 331 332 334 335
315 315 315 313 312 310 309 311 303 305 314 304 303 305 306 312 314 318 320 317 314 310 303 305 304 303 310 313 309 308 306 305 307 315 314 308 310 320 333 334 331 331 332 334 335
315 315 313 312 311 310 308 305 304 305 300 305 308 308 311 311 304 313 320 310 310 303 305 301 299 306 311 312 308 308 306 305 307 309 309 308 311 327 329 333 334 332 331 333 335
315 313 313 311 311 307 302 305 307 307 300 300 305 305 306 310 304 306 314 312 309 305 303 299 301 307 309 308 307 307 306 305 304 308 314 319 316 323 329 332 335 336 334 334 334
314 313 311 309 304 305 305 307 307 306 295 296 299 304 306 308 300 308 313 312 308 306 305 304 307 306 309 308 309 305 308 307 305 305 300 313 302 316 325 326 331 335 335 334 335
314 312 310 308 305 305 307 308 305 304 285 298 299 307 304 301 303 303 309 308 305 306 306 303 306 305 307 309 311 308 309 308 306 304 301 303 305 310 321 322 325 333 335 335 336
312 310 308 306 306 308 307 306 304 293 285 295 298 299 299 300 300 303 303 305 304 303 305 304 306 310 311 310 310 311 304 302 301 302 297 301 304 302 309 312 314 329 335 336 337
310 308 308 307 305 308 308 305 293 288 298 294 294 296 297 295 298 299 299 298 296 295 298 298 299 302 306 304 307 307 303 296 294 294 296 299 300 303 308 310 312 316 325 337 338
307 306 309 310 312 310 306 301 289 293 294 298 296 297 294 296 296 297 297 295 298 294 294 296 293 298 301 301 301 303 303 297 291 292 296 298 298 303 307 312 318 325 327 335 338
307 311 310 310 311 307 305 293 291 293 296 295 297 294 294 296 297 296 295 295 296 297 293 293 292 298 299 300 301 299 298 303 296 295 296 298 302 305 307 310 317 327 329 330 337
312 309 308 308 309 308 300 291 294 297 297 297 292 294 292 294 294 295 294 298 296 298 297 295 292 296 297 300 301 301 300 297 298 291 291 295 298 298 300 306 315 322 327 328 334
309 307 310 308 308 302 294 294 296 299 298 295 293 293 293 293 294 293 292 297 298 298 297 295 295 294 297 294 293 298 297 297 299 297 294 293 295 299 302 310 310 311 320 330 334
307 301 311 309 300 296 294 295 296 297 299 297 296 293 292 293 293 293 293 295 299 300 294 295 294 290 292 296 297 297 294 294 297 294 295 299 293 302 307 310 308 307 311 316 325
305 303 310 307 295 294 296 295 297 297 296 296 294 295 295 292 292 294 295 297 299 301 297 297 291 289 290 294 296 294 295 294 292 295 292 295 292 302 308 307 307 304 304 306 310
303 298 303 301 297 296 294 294 294 298 296 297 295 296 294 293 295 292 293 296 297 300 303 298 292 291 290 290 294 292 293 295 294 294 291 293 294 299 303 303 304 305 304 304 305
302 297 298 295 296 296 296 295 293 292 297 298 295 294 293 291 292 291 293 295 297 299 298 298 292 292 293 293 293 293 292 293 293 293 292 293 294 298 302 303 303 305 306 305 303
303 299 299 297 296 297 295 294 294 295 296 294 293 295 296 292 293 291 293 294 292 297 295 296 292 293 290 292 292 291 292 292 292 293 293 294 294 300 302 304 304 304 304 304 304
305 303 303 295 296 296 295 295 294 296 298 299 296 296 295 295 298 298 298 296 296 294 293 294 293 290 287 290 290 287 291 292 293 296 295 293 296 300 300 300 301 302 304 303 303

GFSSW_sfc_thetae_072.txt.gz
Theta_e
319 319 319 320 320 320 320 320 320 320 320 320 320 319 319 318 318 320 310 316 319 338 350 337 333 338 344 339 341 342 328 321 322 325 327 332 330 339 341 336 336 338 337 339 342
318 319 319 319 319 319 319 320 320 320 319 319 319 320 319 318 317 311 326 323 328 345 335 325 326 338 335 335 338 333 330 324 329 331 331 332 333 336 331 332 332 335 340 341 342
318 318 318 318 319 319 319 319 319 319 319 319 319 320 320 321 312 312 334 328 336 344 331 326 330 334 329 334 335 334 327 330 330 333 334 334 331 335 332 327 334 334 336 338 340
317 317 316 317 318 317 318 318 318 318 318 318 318 320 321 319 302 321 332 334 340 336 329 324 327 326 324 325 334 327 331 331 330 331 333 331 337 334 332 333 335 341 339 338 338
316 315 316 316 316 317 317 317 317 317 317 317 318 320 320 310 307 330 334 335 330 330 323 321 320 319 319 323 329 327 329 330 329 327 327 331 332 333 336 338 341 340 338 337 338
315 315 316 316 316 317 316 316 315 315 316 317 318 319 314 304 324 328 326 329 326 324 320 321 318 321 318 321 323 328 328 327 326 323 325 329 332 335 337 341 338 337 336 337 337
315 315 315 315 316 316 315 314 313 314 316 317 319 320 311 307 328 326 331 327 324 322 318 322 323 320 321 318 325 325 321 324 325 325 327 333 329 329 339 339 336 336 336 337 338
315 315 315 315 315 315 314 313 314 318 317 318 321 321 309 320 329 325 328 326 321 322 320 323 326 321 319 324 321 319 320 316 324 326 329 333 322 334 339 334 332 335 336 336 338
315 315 315 315 314 314 312 312 320 320 319 322 322 318 309 325 323 322 323 320 319 319 320 320 323 318 319 314 312 315 312 315 319 328 329 330 325 335 339 334 331 331 334 337 338
315 316 316 314 313 313 311 312 318 323 324 323 321 311 314 312 322 322 323 320 315 315 313 313 316 312 314 311 304 308 312 316 314 326 328 326 326 334 337 335 332 330 335 337 337
316 316 315 314 312 311 312 318 313 314 314 308 308 307 312 317 324 319 322 318 316 313 307 310 307 304 309 313 314 313 314 313 314 324 321 317 315 327 335 337 335 330 335 337 337
316 315 315 313 312 311 314 310 309 309 305 311 311 310 313 315 310 316 322 315 311 305 308 305 303 310 313 314 314 313 312 312 313 315 316 313 312 325 329 334 337 332 334 337 338
315 315 313 312 311 311 312 310 313 313 305 305 309 309 310 312 309 313 317 314 310 305 305 304 306 311 312 314 312 312 311 313 311 313 315 315 314 324 329 333 336 338 339 340 339
315 314 312 310 307 315 311 313 315 313 301 300 304 307 310 312 305 317 318 313 310 307 306 305 309 307 310 311 313 308 314 312 311 309 306 314 307 318 328 329 333 333 336 337 340
314 312 310 306 315 313 312 316 315 311 290 301 303 312 312 308 307 310 319 313 308 308 309 305 305 306 308 311 315 311 315 313 312 311 309 307 308 315 323 325 327 333 336 338 337
312 310 309 311 316 313 315 315 310 299 289 298 302 303 304 305 305 309 310 312 312 309 311 309 312 310 312 316 316 316 312 311 311 310 302 308 307 309 314 314 319 333 338 340 341
310 308 309 314 312 318 319 311 298 294 301 296 298 303 303 301 302 305 304 304 304 301 302 305 308 312 315 312 316 314 309 300 298 299 300 309 306 308 313 316 320 322 325 341 342
308 307 312 317 318 318 314 305 293 296 297 302 300 301 298 301 301 303 303 301 303 303 304 299 297 307 311 312 310 310 309 302 295 297 300 307 302 305 315 323 331 333 330 332 342
307 319 318 316 318 317 309 298 296 297 300 299 300 297 298 299 301 301 301 300 301 303 300 301 298 303 304 306 308 309 306 311 303 304 302 304 307 310 314 322 324 329 332 333 341
322 318 314 317 317 315 307 295 299 301 301 302 296 298 295 297 298 300 299 302 300 302 304 302 297 302 302 305 306 307 311 302 303 297 296 301 303 302 309 317 321 321 324 334 338
318 312 315 317 316 312 301 299 300 303 302 300 298 297 297 298 298 298 297 300 302 301 303 302 302 299 303 301 302 303 303 305 306 304 299 298 300 306 312 315 316 317 316 321 327
315 308 316 317 308 307 300 300 298 302 304 300 300 300 298 298 298 297 296 298 303 304 298 301 301 297 299 301 302 303 303 305 300 301 303 303 298 311 315 313 310 310 311 312 316
312 309 316 315 302 300 301 300 301 301 301 300 299 300 300 298 296 298 298 300 303 304 302 300 298 294 295 299 301 301 302 303 304 305 303 299 297 313 314 316 307 305 306 308 309
311 304 308 309 308 303 299 298 297 301 300 301 300 302 301 299 301 298 298 300 302 304 303 303 298 295 293 297 301 298 298 301 303 300 302 303 300 307 310 311 312 306 304 305 307
309 302 304 300 301 301 301 299 296 296 300 301 298 298 298 297 298 297 299 300 302 302 304 304 298 298 297 297 298 298 297 298 300 301 300 302 302 306 308 309 310 311 311 305 305
308 307 306 303 302 301 298 298 297 298 299 297 297 298 300 298 298 297 299 301 299 303 302 303 298 300 296 297 297 296 297 297 297 298 301 303 301 307 309 310 309 310 310 310 308
315 311 308 298 301 302 300 298 298 301 301 301 300 300 298 298 302 303 303 302 302 300 298 300 300 297 294 296 295 292 297 297 298 300 301 299 303 305 305 305 306 307 309 309 309

GFSSW_sfc_thetae_078.txt.gz
Theta_e
320 320 320 319 320 320 321 321 321 321 321 322 321 321 322 322 321 317 310 322 324 349 348 326 330 336 343 340 342 343 328 322 323 325 326 331 330 336 340 336 337 340 335 338 341
319 319 319 319 319 319 320 320 320 321 321 320 320 321 322 322 317 312 329 342 349 349 335 330 331 337 335 334 338 333 326 324 330 331 328 334 332 335 334 332 333 335 337 339 340
318 318 318 318 319 319 319 319 320 320 320 320 320 321 322 323 316 315 341 343 346 344 337 336 332 331 331 333 334 331 324 329 333 335 335 335 335 339 332 328 333 330 334 337 337
317 317 318 318 318 318 319 319 319 319 318 319 320 320 321 319 309 325 342 342 344 328 335 330 324 323 327 326 334 329 333 332 334 337 335 332 337 333 335 335 337 337 337 337 336
317 317 317 317 317 318 318 318 318 317 317 318 319 320 319 315 311 333 340 337 319 325 331 325 319 324 323 327 333 328 331 333 332 338 336 336 334 332 332 337 339 338 337 336 337
316 317 316 316 316 317 317 317 316 316 317 318 318 320 314 308 324 332 322 317 318 325 329 325 320 326 325 325 330 333 330 330 330 329 332 332 333 335 333 338 339 337 336 337 336
316 317 316 316 317 317 316 316 315 316 318 319 319 319 315 313 325 328 322 316 320 324 324 325 324 323 323 319 329 330 328 329 328 327 328 335 329 330 335 338 338 335 336 337 337
316 317 317 316 316 316 316 315 314 317 322 322 320 318 312 322 325 324 322 318 321 325 328 326 325 320 319 322 322 322 324 319 325 325 329 332 322 333 338 336 335 335 335 336 336
317 317 316 316 316 316 315 314 315 323 322 322 317 316 312 325 319 324 325 318 320 325 326 323 321 317 318 313 314 317 314 316 318 325 328 329 324 332 337 335 333 334 334 335 336
317 316 316 315 315 314 314 313 319 320 321 320 322 313 316 314 318 324 327 322 318 320 318 317 315 312 313 311 305 310 312 316 317 322 325 326 320 325 335 333 331 333 333 334 335
317 317 316 315 314 313 313 319 315 317 318 312 313 314 315 321 322 321 324 318 318 316 309 313 308 305 310 312 313 314 313 312 321 323 322 326 324 330 333 334 332 332 333 332 333
317 316 315 315 314 313 313 318 313 314 307 315 315 314 317 320 313 316 322 313 312 307 311 309 304 310 314 314 311 311 310 312 318 323 326 321 320 327 331 332 333 333 333 333 334
316 316 314 313 312 311 316 316 318 317 307 311 313 312 314 319 314 313 317 315 309 307 307 305 307 312 312 311 309 309 309 312 315 317 323 320 319 323 332 333 336 336 335 336 335
315 314 313 311 306 318 315 317 318 317 302 305 307 311 314 316 312 319 319 314 311 306 308 307 311 309 309 309 310 306 314 315 316 314 308 319 307 320 326 328 332 332 333 335 338
315 314 312 309 315 315 317 318 319 314 292 305 307 316 313 309 311 313 320 315 310 308 308 305 307 307 306 309 312 311 316 314 315 313 311 311 308 315 321 325 331 333 333 336 338
315 313 311 313 316 317 318 318 315 299 292 301 307 305 307 309 309 314 313 317 315 310 310 308 312 310 309 312 315 317 314 312 313 312 303 309 308 315 318 317 326 335 335 337 338
313 311 311 320 315 321 319 314 300 294 306 300 301 305 305 305 306 309 308 306 305 302 303 308 309 310 312 308 314 314 311 302 300 302 301 310 308 314 321 324 323 331 336 338 341
309 309 313 319 323 321 317 307 294 300 299 306 304 304 302 306 305 306 306 303 308 307 305 302 299 309 312 308 308 311 310 303 296 297 301 309 304 312 324 329 330 332 335 340 340
308 319 318 324 324 321 312 301 296 298 304 303 302 300 301 304 304 304 305 304 307 308 302 302 303 311 312 312 312 310 307 313 306 307 302 306 313 321 325 327 331 332 330 332 334
317 319 321 320 323 319 307 299 302 305 305 305 299 302 298 300 301 302 302 307 305 309 310 306 301 309 310 312 314 310 314 305 307 298 297 303 307 310 318 321 325 323 322 323 325
317 314 320 320 319 312 302 302 304 306 307 304 303 301 300 301 302 301 301 305 307 307 309 307 306 304 309 307 307 309 308 308 308 306 300 298 302 320 320 322 319 318 317 314 318
318 309 319 318 309 309 303 305 301 306 306 305 305 304 303 303 301 301 300 303 307 307 303 307 304 301 303 309 311 311 309 308 303 303 306 301 301 321 320 318 316 315 316 313 311
314 311 318 318 302 305 305 303 306 305 305 304 303 303 305 302 300 303 302 305 307 306 305 307 301 298 300 304 307 304 307 308 308 308 306 298 303 319 317 315 313 313 314 313 310
314 306 310 313 310 306 303 301 300 304 304 307 305 306 302 301 303 302 301 303 306 307 309 309 301 300 294 298 304 302 305 307 306 301 303 303 308 312 313 312 311 311 312 312 312
313 305 309 303 304 305 305 302 299 300 303 305 304 304 303 300 299 299 303 303 305 304 305 305 298 301 303 303 302 304 303 305 303 305 303 306 309 312 313 312 311 312 312 311 310
310 309 310 307 306 305 301 301 301 302 304 300 300 301 303 302 302 301 304 303 301 305 304 306 300 303 299 303 301 300 304 303 304 304 305 308 308 316 315 314 312 312 312 311 312
317 317 312 304 306 304 301 301 301 304 303 305 304 303 301 304 307 308 309 309 306 306 304 303 301 299 296 301 300 295 300 301 302 305 308 304 309 313 312 313 314 314 313 312 312

GFSSW_sfc_thetae_081.txt.gz
Theta_e
320 320 320 319 320 320 320 320 321 321 321 321 321 321 322 323 322 317 306 318 320 341 346 326 319 319 323 335 338 342 322 320 321 320 322 330 328 336 340 335 335 335 333 335 341
319 319 319 319 319 319 320 320 320 321 321 321 321 321 322 323 316 311 322 339 348 347 317 322 316 321 321 331 334 328 320 322 329 328 326 330 331 334 330 333 333 331 336 338 341
318 318 317 318 318 319 319 319 320 320 320 319 320 320 321 320 314 312 343 341 350 344 317 328 328 329 326 330 333 326 321 330 328 331 332 331 331 336 332 327 330 328 331 335 337
317 317 317 317 317 318 318 318 319 319 318 319 319 320 322 316 306 321 350 341 347 325 319 327 328 321 319 323 333 325 331 331 332 335 334 332 337 332 334 334 335 333 334 334 334
317 317 316 316 317 317 317 318 317 317 318 318 319 319 316 309 308 327 344 342 325 317 318 326 323 315 314 323 331 326 327 333 335 334 335 337 333 332 333 337 337 335 334 332 331
316 316 316 316 316 317 317 317 316 317 317 318 319 319 311 300 327 329 323 319 312 313 318 327 321 318 318 322 327 327 326 327 333 332 333 330 331 331 333 335 334 333 332 332 332
317 317 317 316 316 317 316 316 316 316 317 319 320 318 309 307 326 324 317 308 309 314 322 328 327 314 318 317 325 331 320 325 329 332 331 334 327 328 333 337 332 332 332 333 334
317 317 316 316 316 316 316 316 315 316 319 322 321 314 305 318 319 322 317 311 313 315 324 324 322 315 312 316 316 322 322 314 323 326 333 329 319 328 331 334 332 331 332 332 334
316 316 316 316 315 315 314 315 316 318 323 324 313 310 307 323 315 318 317 312 310 315 318 325 317 310 312 306 302 309 305 313 318 327 329 326 321 331 334 333 330 330 331 331 332
316 316 316 315 315 314 313 313 315 317 319 318 315 306 311 313 314 317 318 315 311 313 316 314 307 303 304 300 295 302 305 309 313 320 327 319 317 328 331 331 330 330 331 330 332
316 316 315 315 315 313 311 313 308 309 315 305 307 312 314 318 318 315 321 316 314 311 304 308 301 298 302 306 307 308 308 309 318 323 320 317 316 321 328 329 330 329 329 329 330
315 315 314 314 314 313 309 309 315 307 301 314 312 313 316 316 310 316 320 308 308 303 306 302 298 306 309 309 308 307 303 306 317 325 322 317 315 318 320 326 329 328 329 330 330
315 314 314 314 312 307 309 313 318 310 299 305 312 311 310 314 310 310 315 311 305 303 304 300 304 310 307 307 306 304 301 303 312 318 323 320 318 317 323 331 330 331 333 332 332
315 314 313 312 307 312 311 315 316 311 293 301 305 309 310 312 309 316 316 312 306 302 304 302 307 307 304 304 305 297 307 308 315 311 306 320 303 316 325 325 327 328 330 331 332
316 315 313 310 307 307 313 311 311 307 287 305 305 313 308 304 309 311 316 311 304 304 302 300 302 302 302 304 307 303 308 309 313 307 307 311 307 312 323 321 324 329 330 332 333
315 314 312 310 309 311 316 316 309 293 289 301 305 303 302 304 306 310 311 313 311 306 305 304 309 305 304 307 308 310 307 308 310 307 300 303 304 308 318 321 326 327 327 333 335
312 311 309 315 310 318 317 308 294 290 304 300 299 302 300 301 303 305 305 302 299 293 295 303 303 305 307 301 306 304 300 294 292 294 298 305 304 309 320 327 325 325 325 328 335
310 309 311 315 316 318 314 305 292 298 299 305 304 300 297 301 302 305 303 298 304 302 296 295 294 304 306 302 300 301 299 294 289 291 295 301 303 308 320 323 324 323 329 330 332
308 314 315 317 318 317 309 295 296 298 302 301 301 296 296 301 301 301 300 300 302 303 294 297 298 308 308 306 303 301 299 304 297 296 293 302 310 317 318 320 323 323 327 327 333
310 312 313 322 322 315 303 298 301 304 303 304 298 299 295 299 299 298 299 304 304 307 304 299 294 303 309 308 306 301 307 297 297 291 291 304 306 308 315 317 314 312 314 319 322
313 309 317 318 318 309 299 300 303 305 304 301 299 299 299 299 301 300 299 302 304 303 303 299 297 301 305 299 298 302 300 302 299 297 292 295 299 315 315 313 309 309 310 314 316
314 306 320 313 305 307 301 301 301 304 306 303 302 301 300 301 299 299 299 302 305 304 298 302 296 294 298 305 306 302 302 303 294 293 299 301 300 318 315 313 310 309 309 311 315
309 311 313 313 300 301 302 302 303 302 302 303 302 301 302 300 298 301 302 304 306 304 299 300 294 290 296 300 300 297 302 298 298 297 297 296 299 313 313 312 311 307 309 309 310
310 304 308 309 306 301 300 300 299 303 302 303 304 303 299 298 299 297 300 303 305 303 314 307 296 292 291 296 298 295 299 300 296 291 299 301 303 307 307 307 307 308 310 309 309
312 301 306 298 300 300 302 301 299 298 303 303 303 303 301 297 298 296 302 302 303 307 302 298 292 295 299 302 300 298 299 301 297 297 299 304 305 306 307 306 308 309 309 309 310
306 305 308 302 305 305 300 299 299 300 301 300 299 301 304 298 299 298 300 300 297 301 295 298 293 297 294 300 300 297 300 302 301 306 307 308 305 311 309 309 309 309 309 307 306
316 316 312 305 303 300 298 299 300 304 303 303 303 302 301 302 306 306 305 304 303 298 299 296 295 293 289 299 299 292 297 298 305 308 306 302 305 309 307 308 308 308 309 308 308

GFSSW_sfc_thetae_084.txt.gz
Theta_e
319 319 319 319 319 320 320 320 321 321 321 321 321 321 321 322 322 317 305 311 316 340 345 327 327 317 316 320 338 341 323 317 319 319 321 331 329 336 340 331 332 334 333 336 341
318 318 318 317 318 318 319 319 320 320 320 320 320 320 321 322 316 311 320 333 339 340 323 316 313 314 314 321 332 331 318 320 328 327 325 330 331 333 333 330 330 330 337 341 342
317 317 317 317 317 318 318 318 319 319 319 319 319 320 320 320 311 312 336 338 341 344 316 316 319 317 314 324 329 326 322 329 329 329 330 330 331 334 329 327 329 327 332 337 338
317 317 317 317 317 317 317 317 318 318 318 319 319 320 320 315 304 321 349 338 350 333 314 314 322 316 318 321 333 321 328 330 330 332 330 330 333 328 334 334 333 334 336 336 335
316 316 316 316 317 316 317 317 316 316 317 318 319 320 313 305 306 321 349 341 336 318 311 315 320 319 314 318 330 327 328 333 334 333 334 336 332 331 332 338 336 335 336 335 336
317 317 316 316 316 317 317 316 316 316 317 317 318 319 308 295 316 330 326 320 314 311 311 319 323 322 314 316 327 330 327 332 333 333 335 330 331 331 333 337 333 332 333 336 338
317 317 317 316 316 317 316 316 316 317 316 317 319 317 308 303 320 325 317 309 306 309 314 316 324 320 312 311 321 328 321 327 329 332 331 333 326 327 333 335 330 330 330 332 336
316 316 316 316 316 316 315 315 316 317 317 320 320 312 301 315 313 316 314 306 308 308 314 323 323 316 310 312 320 323 320 313 326 330 331 327 317 330 334 332 328 329 330 330 330
316 317 316 316 315 314 314 314 315 318 320 323 308 306 301 322 313 313 313 308 305 308 311 320 315 309 308 303 299 314 309 314 320 331 329 325 318 330 333 333 328 329 328 331 330
315 316 315 315 314 314 313 314 314 316 319 318 315 303 308 310 311 314 314 312 306 307 310 309 306 301 301 298 293 297 302 310 316 326 328 322 321 327 332 333 328 329 328 329 329
315 315 314 314 314 313 308 308 306 306 309 300 303 308 312 313 314 311 314 310 307 306 301 305 298 295 299 301 304 303 302 305 318 325 320 320 318 323 329 331 329 328 328 328 330
315 314 314 313 313 311 305 303 310 306 296 311 309 311 314 313 307 311 315 305 303 300 303 300 296 302 305 306 305 303 300 303 321 324 319 319 319 323 326 329 330 329 327 328 330
316 316 314 312 311 304 304 307 313 308 295 301 309 309 309 309 307 307 312 307 303 300 301 297 301 308 306 303 302 300 297 300 312 320 320 318 314 316 322 325 331 331 330 330 330
316 315 314 312 306 305 305 310 310 307 289 296 298 308 308 308 304 315 314 309 303 300 301 300 305 305 304 303 301 294 304 306 314 309 303 315 298 316 318 320 327 327 327 328 331
316 315 312 311 302 302 308 307 308 301 283 305 302 311 304 304 307 307 314 308 301 302 299 297 300 301 300 302 302 300 305 305 311 307 311 310 306 309 320 320 323 326 327 328 332
315 313 311 307 304 307 309 310 302 291 286 301 303 300 299 300 303 307 308 309 308 303 302 301 306 302 301 304 304 306 304 308 306 304 296 306 306 304 316 320 324 329 330 331 331
312 310 308 312 304 309 309 304 293 291 303 300 298 300 296 298 300 302 303 299 297 292 292 300 301 304 304 299 301 301 297 291 290 294 294 303 306 306 319 326 326 328 330 331 332
309 308 307 311 309 309 307 300 289 297 298 303 303 300 294 297 298 301 300 296 300 297 293 291 292 301 304 300 297 296 297 292 288 289 294 306 302 307 321 328 328 329 329 328 329
308 304 306 311 312 309 302 290 291 296 302 299 299 294 294 296 297 299 298 296 300 298 293 291 294 305 307 304 302 296 294 300 295 292 293 303 306 313 318 316 317 319 323 325 332
303 304 305 312 313 307 297 293 296 303 304 300 293 296 293 297 298 296 297 299 300 302 297 295 292 298 305 305 302 298 302 295 293 288 287 300 302 302 311 308 311 312 316 318 321
306 303 312 312 311 301 292 294 301 303 303 298 295 296 294 296 298 298 295 299 301 301 299 295 292 294 301 296 297 299 296 298 296 293 290 293 298 316 310 309 307 308 313 314 318
303 299 313 307 297 297 294 297 300 299 301 299 298 297 297 299 296 298 296 297 303 301 296 297 290 288 296 303 304 302 297 297 295 294 297 297 302 316 311 311 309 308 310 313 316
301 303 310 307 293 293 296 297 298 296 297 299 298 297 300 298 296 298 299 302 303 301 294 296 290 287 292 297 299 296 296 293 294 294 295 292 298 311 312 310 308 306 309 311 314
302 299 299 298 294 294 292 293 293 300 298 299 299 300 297 295 298 297 299 301 302 300 315 303 290 291 288 295 295 293 296 296 292 289 296 296 301 303 305 305 306 306 308 309 311
304 299 296 291 293 292 293 295 296 295 299 298 298 300 296 290 294 296 299 300 300 306 300 296 290 291 298 297 297 296 296 298 292 295 297 300 301 302 304 304 305 306 309 308 308
300 301 303 296 296 294 293 291 295 295 296 296 298 302 300 294 295 293 296 295 295 300 297 294 292 292 293 301 299 295 298 301 304 308 305 304 300 306 306 307 305 306 307 308 309
311 309 305 299 293 292 291 293 299 299 299 302 302 298 296 298 302 301 299 298 296 295 295 296 290 289 287 297 298 291 295 297 304 309 306 300 303 306 304 306 307 306 307 308 309

GFSSW_sfc_thetae_087.txt.gz
Theta_e
317 317 317 317 317 318 318 319 320 320 320 320 320 320 320 321 321 317 305 308 314 338 345 332 327 319 315 316 335 341 322 315 319 318 321 329 329 336 339 330 332 334 333 336 339
317 317 317 317 317 317 317 318 318 319 319 319 319 320 320 321 314 310 318 325 331 347 322 316 315 316 316 315 331 328 316 319 327 325 324 330 331 333 329 327 328 331 335 338 339
317 317 317 317 317 317 317 317 317 317 318 318 318 320 320 319 307 306 333 335 339 342 316 315 315 316 309 323 327 327 320 328 326 328 331 329 330 333 326 324 328 327 331 335 335
317 317 317 317 317 317 316 317 317 316 316 317 319 320 320 313 293 318 347 336 341 334 316 311 318 314 316 317 330 320 327 331 329 332 331 329 333 330 330 332 333 335 336 335 334
317 317 316 316 316 317 317 316 316 316 316 317 317 319 312 301 302 312 349 336 339 322 311 313 317 320 316 319 328 324 329 333 331 331 333 334 330 329 332 338 336 338 337 335 335
317 317 316 316 316 317 317 316 316 315 316 316 317 319 306 291 305 325 327 330 322 311 308 313 321 323 316 316 325 328 331 330 332 329 334 330 329 331 332 336 333 334 334 335 335
316 316 316 316 316 316 316 315 315 315 316 316 317 316 306 299 319 323 319 311 307 309 306 312 322 319 315 309 318 329 324 326 330 332 330 333 325 326 334 334 331 332 333 334 336
316 316 317 316 315 315 314 314 315 316 316 317 319 310 297 311 313 311 313 307 307 304 309 316 316 316 312 314 316 321 320 313 325 330 332 327 318 328 335 333 329 331 333 333 336
316 316 315 315 314 314 314 314 315 317 318 320 307 302 298 318 310 309 314 306 303 304 308 316 314 308 307 302 298 305 307 311 321 330 328 325 319 329 334 332 325 328 330 333 333
315 315 315 314 313 313 313 313 314 315 319 319 314 301 306 308 310 311 311 308 304 304 308 307 304 300 298 297 293 297 304 310 317 325 326 322 321 327 331 332 326 326 328 329 330
315 314 314 314 312 312 307 307 304 302 307 298 300 306 310 313 314 309 311 307 305 304 299 304 298 295 299 300 302 302 300 301 317 327 324 321 320 325 329 331 326 326 326 326 328
316 315 315 313 311 310 303 300 305 304 298 307 307 308 312 311 306 308 311 302 301 297 301 298 295 300 303 304 302 302 299 306 319 323 322 320 319 323 326 329 329 327 326 327 327
315 314 314 313 312 304 301 303 309 307 295 299 308 306 306 309 305 305 308 305 299 298 299 296 299 306 304 302 301 296 296 300 312 318 320 319 315 319 325 327 331 333 331 329 327
315 315 314 312 303 303 303 306 307 304 288 295 297 305 307 306 302 311 312 307 302 298 300 298 304 304 301 301 300 292 301 306 316 309 305 315 302 312 318 319 324 330 329 328 327
315 315 312 309 301 301 306 307 305 299 284 303 303 309 303 302 304 306 312 307 300 300 299 297 299 299 299 301 302 299 302 304 315 305 306 309 301 304 316 314 319 327 327 329 330
315 313 311 306 303 307 309 306 301 291 287 299 304 301 297 299 302 306 307 308 306 301 299 300 303 301 301 303 303 304 301 303 302 300 296 303 303 302 312 315 320 327 328 328 330
312 310 308 310 303 306 307 303 291 287 301 298 297 300 296 295 298 300 301 297 296 291 290 297 299 301 302 296 298 298 295 291 292 293 294 301 303 301 315 322 325 325 328 330 331
309 307 307 310 307 309 305 296 287 295 296 300 300 297 295 295 298 298 298 295 298 296 291 290 290 299 301 299 295 295 294 290 287 289 293 303 298 304 317 324 327 329 330 330 332
307 302 304 308 310 307 301 289 289 293 299 298 297 293 293 296 296 296 296 296 298 297 292 289 292 302 304 302 300 294 293 298 292 291 291 300 303 313 316 313 319 322 324 323 328
303 303 304 310 311 304 296 291 293 300 302 298 291 294 292 294 295 293 293 297 298 300 296 293 290 296 303 303 300 298 300 293 292 287 286 298 298 301 312 310 313 316 318 321 324
304 302 308 309 308 299 290 292 299 301 305 295 293 294 294 296 297 294 293 297 299 300 299 292 291 293 299 295 292 296 295 295 294 292 289 292 297 309 310 309 308 312 314 318 320
301 297 310 306 298 293 292 296 299 296 299 298 296 295 295 297 296 295 293 295 301 300 295 294 288 287 293 299 300 296 292 295 293 291 293 294 297 312 310 309 309 309 313 316 318
298 298 308 305 291 292 294 295 295 295 295 297 297 296 298 294 293 297 298 301 301 298 294 294 288 286 290 294 298 294 294 291 291 294 294 292 295 312 311 308 308 307 309 314 316
300 293 297 295 291 291 290 291 291 301 298 297 297 298 296 294 297 296 298 301 301 300 313 301 289 289 288 292 294 291 294 294 290 288 291 293 302 306 305 304 304 305 308 311 313
301 295 295 289 292 291 291 293 294 293 297 298 299 298 293 291 294 296 299 298 301 305 297 295 290 291 296 296 296 294 295 298 291 292 294 298 300 305 304 303 304 306 308 308 309
300 300 301 295 293 291 290 289 293 293 295 295 296 298 298 292 294 292 297 294 294 299 295 294 291 291 292 301 297 294 297 297 304 304 302 300 297 304 304 304 304 306 307 306 308
306 306 302 299 290 290 289 292 297 297 298 301 301 296 295 296 300 299 298 296 293 293 291 292 289 289 287 293 299 293 294 295 301 305 303 298 300 304 302 303 303 304 306 307 310

GFSSW_sfc_thetae_090.txt.gz
Theta_e
317 317 317 317 317 317 317 317 317 317 318 318 318 320 320 320 320 316 302 307 312 327 343 333 323 320 317 321 332 340 321 317 319 317 321 329 327 335 337 328 332 334 332 336 340
317 317 317 316 317 317 317 317 317 316 317 317 317 319 320 320 313 308 317 324 328 343 325 318 315 317 316 314 331 326 315 319 327 324 325 329 329 331 328 327 327 330 335 338 339
317 317 317 317 317 316 316 316 316 316 316 316 317 319 320 318 304 301 333 329 336 347 319 318 316 321 318 320 324 327 319 328 325 327 331 331 330 333 326 323 326 326 331 335 336
317 317 317 317 317 317 316 316 316 316 316 316 317 318 320 312 289 317 341 335 341 332 312 314 313 319 316 314 328 318 327 330 327 331 331 329 333 326 331 329 332 333 334 335 333
317 317 316 316 317 317 317 316 316 315 315 316 316 317 310 298 299 311 349 336 330 321 310 311 318 322 316 320 327 322 328 330 332 331 331 333 329 327 328 332 335 335 334 333 333
316 316 316 316 315 316 316 316 315 315 315 316 316 318 304 293 305 323 326 330 324 314 308 314 321 325 321 318 323 328 329 329 331 331 333 329 329 328 330 335 333 333 332 332 333
316 316 316 315 315 315 315 314 314 314 315 315 316 316 304 299 312 323 322 313 314 308 306 309 324 319 318 312 326 327 322 328 327 330 330 332 324 325 333 334 332 332 332 333 334
316 316 315 315 315 314 313 313 314 315 315 315 318 308 295 306 310 311 310 306 307 304 308 310 316 315 313 313 317 320 319 314 327 329 330 328 317 329 334 331 329 331 332 333 335
316 315 315 314 313 312 312 314 315 316 316 318 305 301 295 316 309 309 311 305 303 303 305 315 314 308 306 300 298 309 305 310 320 329 328 326 319 330 332 330 328 329 331 332 334
315 314 314 314 313 311 312 313 315 316 318 318 313 300 305 306 309 307 310 305 302 302 305 305 302 299 298 296 293 300 304 308 315 322 326 323 320 327 331 329 327 328 330 331 332
315 315 314 314 313 310 306 306 302 298 305 297 298 303 307 311 311 306 310 306 304 302 297 301 299 296 301 299 301 303 302 304 315 325 323 321 320 324 327 329 325 327 328 330 331
314 314 313 313 312 310 304 298 302 303 297 306 306 305 308 308 304 305 309 302 299 295 301 298 296 301 305 302 302 300 298 308 318 326 321 316 318 323 327 329 327 325 325 327 330
314 314 313 312 311 305 300 301 306 305 294 298 305 304 303 307 303 304 306 302 298 297 298 296 299 304 303 300 299 295 295 298 311 318 321 318 315 319 325 329 331 332 328 327 327
316 314 313 311 303 303 301 305 305 303 289 296 299 303 305 305 300 309 309 305 299 297 299 298 302 302 300 300 299 293 300 306 316 311 305 317 304 314 320 322 325 329 328 326 327
316 315 312 308 301 301 305 304 302 298 283 302 303 307 302 300 303 304 310 305 298 298 299 297 298 299 298 299 301 299 302 304 315 305 306 309 302 304 318 317 321 325 330 327 326
314 313 310 305 303 306 308 303 300 291 286 298 303 300 296 298 300 304 305 307 304 299 298 299 301 300 300 302 303 304 299 302 303 301 297 303 303 301 310 315 321 325 329 328 326
312 310 307 309 302 305 305 302 290 285 299 295 295 298 296 294 297 299 300 296 295 290 290 296 297 299 300 295 297 297 292 291 291 294 292 299 302 301 314 319 321 323 328 329 328
309 307 306 309 306 306 303 295 285 294 294 298 298 294 293 293 297 299 297 294 296 295 290 290 288 297 300 298 294 293 293 289 287 289 294 303 297 303 315 320 327 328 328 329 329
307 300 302 306 308 305 300 288 287 291 297 296 295 292 292 295 295 297 295 295 297 296 291 288 290 300 300 298 299 293 290 294 290 289 292 297 303 312 317 318 322 322 324 327 331
302 301 303 308 309 302 295 291 292 298 300 296 290 293 290 294 293 294 293 296 296 299 295 292 288 294 301 300 299 296 299 292 290 286 285 297 299 299 311 313 318 318 320 323 326
302 301 306 308 305 298 290 291 297 298 302 296 293 293 292 294 295 294 293 297 298 298 297 292 290 292 296 294 292 295 294 292 292 291 290 291 297 309 311 314 314 316 319 321 323
298 297 306 304 297 292 291 294 297 294 297 296 295 293 295 297 294 294 292 295 300 299 295 294 288 287 291 296 298 294 292 293 291 290 292 293 295 310 310 310 314 314 318 319 321
298 297 306 302 290 289 293 293 295 294 295 295 295 296 299 296 292 296 296 300 301 298 295 296 289 286 289 292 295 293 293 289 290 294 294 292 293 310 309 308 309 310 314 317 317
299 293 296 292 289 290 289 289 291 299 297 297 297 296 295 295 297 296 297 301 302 305 309 302 290 290 286 288 291 291 293 295 289 289 291 293 298 307 306 305 305 306 310 314 316
298 293 295 289 292 290 290 291 293 292 296 298 297 297 292 290 291 295 296 299 300 304 297 296 292 292 295 295 295 294 294 296 296 290 293 295 300 303 305 304 304 306 310 311 312
299 298 299 294 292 289 290 290 291 292 294 295 295 296 296 293 292 291 293 294 293 297 294 295 292 293 292 297 298 296 297 299 303 303 301 300 300 305 305 305 304 306 306 308 310
304 303 300 296 289 289 288 291 294 296 296 298 298 295 293 294 297 295 295 296 293 291 291 292 290 290 287 292 298 293 295 299 302 304 302 297 299 303 302 304 304 305 306 307 309

GFSSW_sfc_thetae_093.txt.gz
Theta_e
317 317 317 317 317 317 317 317 317 316 317 317 318 319 319 320 319 317 304 312 314 337 342 331 328 326 329 333 334 339 324 318 319 319 324 332 329 335 336 331 333 335 332 338 344
317 317 317 317 317 316 317 316 316 317 316 317 317 318 319 320 314 308 318 322 329 339 328 317 315 321 320 322 331 331 326 321 327 328 326 331 331 331 329 330 331 334 339 342 343
318 318 317 318 317 317 317 317 316 316 316 316 316 318 318 321 306 303 333 328 332 343 327 320 318 326 324 321 327 330 324 329 328 331 333 330 330 332 328 326 331 331 335 339 340
318 317 316 317 317 317 317 317 316 316 316 316 316 317 319 316 297 320 342 332 340 328 321 318 319 326 323 318 328 322 329 331 330 334 333 328 332 328 329 330 335 336 338 339 339
317 316 316 316 316 316 316 316 316 316 315 315 316 317 315 305 306 311 343 336 337 321 316 315 318 326 320 322 326 325 329 331 333 334 332 333 329 329 330 334 337 338 339 337 336
316 316 316 316 315 315 315 315 315 314 314 315 316 318 310 301 314 329 329 330 327 317 314 320 324 330 324 321 324 329 331 331 333 332 332 327 329 329 331 335 335 335 335 337 337
316 315 315 315 315 315 314 314 313 313 314 315 316 317 308 305 314 330 324 320 320 316 312 317 330 326 324 316 323 331 326 329 330 332 330 332 323 324 332 334 332 333 335 337 338
316 316 315 315 314 313 313 312 313 314 315 315 318 315 301 310 315 323 317 313 316 314 314 315 327 324 321 320 321 324 326 319 328 330 330 329 318 329 333 332 331 332 334 335 338
316 315 314 314 313 313 311 312 314 315 316 318 313 309 301 318 312 317 316 312 314 311 311 316 317 318 314 309 317 318 315 317 321 330 328 325 318 330 333 332 330 332 333 335 337
315 315 315 314 313 312 311 312 318 320 319 318 315 306 310 309 313 315 315 312 308 309 310 311 313 313 310 307 304 312 313 317 318 325 326 323 322 328 331 332 330 332 334 335 335
315 314 314 313 312 311 309 314 308 307 312 305 306 305 308 315 314 311 314 309 309 308 305 309 310 309 310 308 309 317 315 312 317 326 324 322 322 325 329 330 329 332 333 333 334
316 314 313 313 312 310 308 307 310 310 304 308 309 307 310 312 306 309 315 305 304 300 306 307 307 312 311 308 307 309 310 309 322 326 323 321 319 323 329 328 331 331 333 333 336
316 314 313 313 311 308 306 307 311 311 303 303 307 307 308 310 306 308 312 307 303 303 306 304 309 309 308 306 305 306 306 317 316 320 320 317 313 319 326 332 331 333 335 336 336
316 314 313 311 306 309 307 311 310 310 298 302 305 308 310 310 306 312 314 308 305 302 307 309 308 307 305 305 307 304 308 312 319 316 309 318 303 314 322 325 329 330 332 334 336
316 313 311 310 308 307 310 312 309 304 289 304 306 313 309 306 308 308 314 310 303 304 306 304 305 305 304 306 307 306 307 310 319 314 314 311 307 311 321 320 325 331 331 332 334
314 312 310 307 308 312 313 310 306 297 288 300 305 304 303 304 307 309 310 312 310 305 306 306 308 308 307 308 309 309 309 312 315 313 303 312 309 308 316 321 326 330 333 333 333
312 309 308 311 310 312 312 310 298 292 301 298 299 303 302 300 304 306 305 304 303 298 299 303 303 306 307 304 306 306 302 298 299 300 298 309 311 312 321 323 326 327 332 335 333
309 307 309 312 313 313 312 305 292 297 298 303 301 300 299 300 302 303 304 302 303 303 300 297 295 304 306 305 302 304 303 298 294 297 301 309 304 311 320 324 329 331 333 336 335
307 308 310 312 313 312 309 297 295 298 301 300 301 298 299 300 300 302 301 303 305 305 299 297 297 305 305 307 307 301 299 307 302 302 302 307 312 317 321 322 327 329 331 333 335
310 310 312 313 314 311 306 295 299 301 303 301 297 299 297 299 300 301 299 301 302 304 305 302 297 303 306 306 305 305 307 300 301 296 296 304 307 311 317 318 321 324 325 329 333
310 311 312 314 312 309 300 299 301 303 304 300 298 299 299 300 301 300 298 300 302 302 305 303 301 300 304 303 302 303 302 303 304 302 298 298 305 318 320 321 319 321 324 325 328
308 306 313 311 307 302 302 301 297 300 302 302 301 301 300 300 300 298 297 300 302 305 300 302 302 299 298 302 304 304 304 305 299 300 305 305 305 317 319 323 323 322 325 327 327
307 307 313 311 300 300 301 299 301 301 300 301 300 302 302 300 299 300 300 303 305 302 301 302 299 296 297 301 304 303 302 302 305 308 305 299 304 315 317 319 319 319 322 322 324
307 302 304 302 299 301 298 297 299 302 302 303 303 302 302 300 302 300 300 304 305 307 308 307 299 299 296 298 301 301 303 301 303 301 304 305 307 310 315 316 315 315 318 320 321
306 302 301 300 300 299 300 299 297 297 302 305 303 301 299 299 298 298 300 302 305 306 304 304 298 300 301 302 303 303 305 307 301 301 302 304 306 312 316 317 317 319 316 317 319
308 307 306 304 298 299 297 298 297 298 300 301 300 300 302 300 300 298 299 301 299 304 304 304 298 299 298 301 303 300 305 309 308 307 307 307 307 312 318 316 314 317 315 316 318
312 311 309 299 297 299 299 299 299 301 301 303 302 301 300 300 302 304 302 300 299 300 300 301 299 299 296 299 302 298 301 304 306 309 309 305 310 314 312 313 315 317 318 316 317

GFSSW_sfc_thetae_096.txt.gz
Theta_e
318 317 318 317 317 317 318 317 317 318 317 317 317 318 320 320 321 320 310 314 317 336 339 329 335 341 343 337 339 341 331 319 322 319 326 335 333 339 340 336 336 337 332 340 346
318 319 318 318 318 318 317 317 317 317 317 317 317 318 320 320 318 314 325 321 331 341 328 323 326 336 334 334 336 334 329 323 331 329 331 334 334 335 334 334 334 332 339 343 345
318 318 318 317 317 318 318 317 317 317 317 317 317 318 319 321 314 309 332 329 334 340 328 323 328 335 332 333 333 333 325 332 331 333 336 334 334 336 334 331 335 332 336 341 342
318 318 317 317 317 316 317 317 317 317 316 316 317 317 319 320 303 321 342 334 336 331 326 320 322 329 328 326 332 326 332 333 333 336 334 333 336 332 334 333 338 338 340 341 341
317 317 317 316 316 316 316 316 316 316 316 316 317 318 318 312 311 321 339 334 326 327 320 317 317 327 329 328 329 329 331 333 335 336 333 335 331 331 332 336 339 338 340 339 340
317 316 316 316 316 316 315 315 315 315 315 315 317 318 314 306 318 330 325 327 325 323 320 319 318 332 330 327 326 332 331 333 335 335 333 330 330 332 333 337 336 337 338 339 338
316 316 316 315 315 315 314 314 313 313 315 316 317 319 312 309 318 331 326 327 326 322 319 321 325 333 330 319 327 331 327 330 332 332 330 333 326 328 334 336 335 335 336 337 338
316 316 316 315 315 314 313 312 312 315 316 317 318 318 306 314 322 324 322 323 324 321 320 325 337 332 326 325 330 328 328 321 329 333 332 328 320 328 334 333 332 333 336 337 339
316 315 315 315 315 313 312 312 314 316 317 318 319 314 307 317 315 320 317 314 317 318 318 323 331 326 323 320 323 322 318 321 324 331 329 325 319 333 333 331 330 333 335 336 337
316 315 315 315 314 313 312 312 317 319 320 321 317 312 314 312 317 318 319 317 313 314 313 318 324 321 318 317 313 313 319 323 323 326 324 322 318 329 331 330 331 333 334 336 336
317 316 314 314 313 312 313 320 316 315 317 311 310 309 310 318 320 316 317 314 313 311 307 312 315 316 317 317 314 319 316 320 325 329 322 321 321 325 330 330 331 332 334 335 336
317 315 314 314 313 312 314 314 314 314 307 313 312 312 314 315 311 315 317 310 308 304 310 308 308 319 321 314 314 319 319 319 325 329 326 320 320 326 329 329 332 331 332 334 336
317 315 314 313 311 312 316 314 319 317 309 309 311 310 312 314 310 311 315 311 307 304 307 305 309 319 316 312 311 315 317 317 320 323 324 321 316 319 325 329 333 334 335 336 338
317 314 313 312 310 319 315 318 319 317 304 305 308 311 313 314 309 316 316 312 306 303 306 307 312 313 314 314 313 311 314 320 322 318 309 318 305 314 318 322 328 332 335 334 338
316 313 311 308 317 315 316 321 319 314 293 306 308 316 314 311 312 311 317 312 305 304 308 306 309 311 310 314 315 311 313 316 319 317 315 314 312 313 318 317 327 334 334 335 338
314 312 311 312 318 319 321 319 315 301 292 302 308 307 307 310 310 312 313 315 313 307 309 309 315 313 313 315 315 313 312 314 318 316 308 312 310 309 315 319 324 333 336 336 337
311 309 311 318 317 321 320 317 303 296 305 301 303 306 306 305 307 309 308 307 305 301 300 306 308 312 314 311 314 312 310 302 302 304 305 316 311 312 318 326 327 331 334 337 338
308 308 312 318 322 319 318 309 296 299 301 306 305 305 302 305 306 307 307 304 309 307 303 301 299 308 312 310 308 310 310 303 297 301 304 311 307 313 326 329 331 335 335 339 340
307 319 319 322 321 320 314 303 300 301 304 303 305 301 301 304 305 306 306 305 308 309 303 301 301 310 310 312 311 309 306 313 307 308 305 308 312 320 325 327 331 334 335 336 340
319 320 320 321 322 318 310 298 303 306 307 305 300 304 299 302 302 304 304 308 308 309 312 306 300 307 309 311 311 309 312 306 307 300 299 306 308 309 320 324 327 331 334 336 340
319 313 319 323 321 314 305 303 304 307 307 304 302 303 303 302 303 303 303 306 308 309 311 309 305 304 308 305 304 306 305 307 309 307 301 300 306 323 323 327 327 328 330 334 339
317 310 321 321 310 312 307 304 299 303 307 306 306 305 304 304 302 303 302 305 307 309 306 310 306 302 303 309 311 309 307 308 301 304 306 306 308 324 327 330 330 326 330 331 334
316 316 321 317 305 306 307 303 305 303 303 304 304 306 308 305 302 303 304 307 309 307 307 309 304 300 301 305 309 306 308 310 309 308 306 303 307 325 327 329 329 329 330 329 330
315 307 312 315 313 306 304 303 302 306 304 306 306 307 306 305 307 303 303 305 308 309 310 309 306 304 299 302 307 305 306 308 308 303 304 306 310 320 324 325 325 327 326 326 328
316 309 309 304 306 307 306 303 300 300 305 306 306 305 304 302 303 302 305 305 307 312 309 308 303 306 306 307 307 306 306 306 306 307 304 308 309 319 324 326 327 326 327 326 328
315 312 314 310 307 305 301 303 300 301 303 301 303 304 306 305 305 300 303 304 304 307 308 310 302 306 303 306 306 306 308 308 307 307 308 309 309 319 327 329 328 326 322 325 327
322 321 316 302 306 305 305 303 301 303 305 307 306 305 303 305 307 308 308 307 305 306 307 306 306 302 299 304 305 301 306 307 310 311 311 307 316 321 322 323 325 326 326 326 327

GFSSW_sfc_thetae_099.txt.gz
Theta_e
319 319 319 319 319 319 318 318 318 318 319 319 319 319 320 321 320 323 316 318 322 336 338 330 335 340 343 342 343 342 328 320 321 324 327 334 331 336 339 336 337 338 336 341 345
319 319 319 318 319 319 319 318 318 318 319 319 319 319 320 320 321 318 330 332 330 343 328 325 328 340 337 338 338 335 330 323 331 330 331 334 333 334 334 332 334 333 339 343 344
319 319 318 318 318 318 318 318 318 318 318 318 318 319 319 321 319 317 333 337 339 338 329 327 331 337 334 336 333 333 328 332 333 335 337 334 333 338 331 329 332 332 336 341 342
319 319 318 318 318 318 318 318 318 318 318 318 318 319 320 321 307 324 338 338 340 328 329 324 324 332 330 329 333 326 333 333 333 336 336 333 337 333 333 333 337 339 340 340 340
318 317 317 317 317 317 317 317 317 317 317 317 318 319 320 315 315 331 339 335 323 327 325 321 318 328 328 333 332 329 331 334 334 335 335 336 332 331 333 337 340 339 340 339 339
318 317 317 316 316 316 316 316 315 316 316 317 318 319 317 309 321 328 325 319 318 325 322 321 319 324 329 333 330 333 333 332 334 336 336 331 331 332 333 337 337 337 337 339 339
317 317 317 316 316 316 315 315 315 314 316 317 318 320 315 313 321 330 324 321 321 324 321 322 323 322 334 329 333 334 327 330 331 335 330 332 326 326 334 336 335 335 337 338 338
317 317 317 317 316 316 314 314 313 314 317 318 319 321 312 318 324 326 327 325 324 325 324 324 324 326 333 331 331 331 327 319 328 332 332 330 319 329 334 334 332 334 335 335 336
318 317 316 316 315 315 314 313 315 317 318 320 321 319 310 316 316 324 324 322 322 322 323 323 329 330 330 323 321 328 316 319 323 332 329 328 322 332 334 332 331 332 332 334 336
318 318 316 315 315 314 313 313 318 318 320 323 322 313 315 313 319 319 320 320 316 316 315 315 325 323 324 321 313 317 314 322 322 327 328 321 318 328 332 330 328 330 333 334 333
318 317 316 315 315 313 314 323 320 320 321 314 313 311 313 319 322 318 319 316 315 313 309 312 314 315 319 322 320 318 316 314 325 326 322 322 319 325 328 327 330 330 330 332 331
318 317 315 314 314 313 315 317 316 317 310 315 313 313 316 319 314 316 320 312 310 306 311 309 309 318 322 321 318 321 318 313 324 327 322 321 319 325 326 325 327 331 330 332 334
317 316 315 314 313 313 320 318 322 322 312 311 313 312 313 316 313 314 316 313 309 305 307 307 310 316 319 319 314 316 318 313 312 323 322 319 315 320 325 325 329 333 334 332 334
317 315 314 313 309 322 317 323 324 322 307 307 310 313 315 315 310 319 319 313 309 306 308 309 313 312 318 317 316 310 321 319 317 320 314 320 306 318 320 321 325 333 330 331 333
316 314 312 309 319 318 320 324 324 320 296 307 310 319 317 312 313 313 320 315 308 306 308 306 308 310 313 315 319 313 318 321 320 319 318 316 311 315 322 317 320 332 331 332 334
314 312 311 315 319 322 324 324 321 304 293 304 309 309 309 311 311 314 313 317 315 309 309 309 314 313 314 316 319 319 315 316 320 319 306 314 312 312 316 318 320 326 332 333 336
311 309 311 322 320 325 324 319 306 299 306 303 305 307 307 307 309 309 308 307 306 302 302 307 309 314 316 312 317 318 312 304 303 303 306 314 312 313 322 322 324 326 331 334 334
309 308 314 321 326 324 321 312 299 301 303 307 306 306 303 306 307 308 308 306 310 309 305 301 300 310 313 313 311 314 313 306 300 302 305 315 308 313 322 325 326 331 335 337 337
308 322 323 325 324 325 316 305 302 303 305 305 307 303 303 304 305 307 307 306 309 311 304 303 302 312 313 314 314 311 310 316 307 310 304 308 316 322 324 324 329 331 334 336 338
320 321 321 326 326 322 312 299 305 308 308 307 302 307 302 303 302 305 306 310 308 312 314 309 302 310 311 313 313 311 315 308 309 301 298 306 309 310 320 324 329 331 334 337 339
320 315 323 326 325 316 306 306 306 309 308 305 304 303 306 303 304 303 304 308 311 312 312 311 308 306 309 307 306 307 307 311 311 309 302 302 308 321 324 328 329 333 336 337 340
320 310 324 326 312 312 310 306 300 305 308 306 307 307 305 305 304 304 304 306 311 311 307 311 308 303 305 310 312 311 308 309 304 305 308 306 307 326 328 331 333 334 337 341 344
317 317 324 321 307 307 309 305 306 305 305 304 306 307 309 306 303 306 305 310 310 309 309 311 305 301 302 307 310 307 309 309 309 309 306 303 309 326 331 330 333 333 334 338 339
318 309 314 316 316 309 306 305 304 308 305 305 307 308 307 305 308 305 305 308 310 310 316 313 307 304 300 303 308 304 307 309 308 304 304 306 314 323 328 329 331 331 331 331 333
318 312 313 307 308 309 308 306 302 302 307 307 306 306 306 303 305 305 307 308 309 312 313 310 305 307 307 309 309 307 306 307 306 309 306 307 310 322 328 329 331 331 330 330 332
317 313 313 314 309 307 303 306 302 302 304 303 303 305 307 305 307 302 306 306 306 309 310 313 305 308 305 308 308 306 308 308 308 308 309 308 313 326 331 333 332 331 332 332 331
325 323 318 306 308 307 308 305 303 304 306 308 307 307 305 308 310 312 311 310 311 307 307 309 307 307 300 307 307 302 308 308 309 311 310 308 315 323 327 329 331 331 331 330 331

GFSSW_sfc_thetae_102.txt.gz
Theta_e
319 320 320 320 319 320 320 319 319 320 320 320 320 320 320 321 321 320 316 323 326 342 343 327 333 337 339 337 340 342 322 317 319 321 324 329 325 332 336 332 334 336 335 339 342
319 319 319 319 319 319 319 319 319 319 320 320 320 320 320 321 318 316 332 340 339 340 324 324 323 335 332 335 337 334 324 321 326 328 327 331 330 332 332 332 332 332 338 340 341
319 319 319 318 318 319 319 319 319 319 319 319 319 320 320 321 318 318 341 340 338 334 323 327 327 336 331 334 333 333 324 330 331 333 332 332 331 336 331 328 331 330 334 337 337
319 319 318 318 318 318 318 318 318 318 319 319 319 319 321 318 309 323 343 341 340 318 322 325 323 329 329 328 334 326 332 333 334 336 333 331 335 331 333 331 335 337 338 336 336
319 318 318 318 318 318 318 318 318 318 318 318 319 320 318 316 314 333 348 340 320 317 321 323 319 324 325 330 332 328 330 334 334 335 334 335 333 332 331 335 337 338 338 335 336
318 318 318 317 317 317 317 317 316 316 317 318 319 320 316 308 323 332 327 325 315 317 321 324 319 322 328 329 329 333 332 332 335 332 334 331 329 332 332 336 335 336 335 335 335
318 318 318 318 318 317 317 316 316 316 317 318 319 319 313 313 321 326 325 317 316 319 320 323 323 319 323 326 336 332 328 330 333 335 332 332 325 326 331 335 333 333 334 335 335
319 318 317 317 317 317 316 315 315 316 317 319 320 319 312 320 323 325 326 320 318 321 324 325 323 319 320 331 329 328 329 321 329 332 331 329 319 331 332 332 330 332 333 334 335
319 319 318 317 317 316 315 314 316 319 319 321 320 317 312 317 313 322 325 321 322 320 323 324 321 317 321 322 322 327 318 320 323 332 330 328 321 329 332 330 329 331 332 333 334
319 319 318 317 316 315 314 314 320 319 321 323 321 314 316 312 316 323 323 323 319 318 317 316 316 315 320 319 312 316 318 321 321 326 328 323 320 329 332 330 328 330 330 331 331
319 318 317 316 316 315 313 320 319 318 321 315 314 312 314 318 322 317 319 318 317 314 308 312 307 310 318 321 322 317 319 319 317 323 323 321 320 323 330 331 329 329 328 330 332
318 318 317 316 315 314 314 315 316 317 310 319 314 312 316 319 312 316 319 311 309 305 309 308 304 312 320 322 323 318 315 315 315 317 321 320 319 323 327 327 328 330 328 331 331
317 317 316 315 314 313 317 317 323 322 312 312 312 312 312 314 311 313 316 313 308 305 306 305 308 313 315 316 316 318 316 312 310 313 317 320 316 321 325 327 328 329 332 334 332
317 316 315 313 311 321 319 323 324 324 306 307 310 312 313 313 309 319 318 313 310 305 306 306 312 310 311 312 317 313 319 316 314 308 304 320 305 316 319 320 323 326 329 333 332
316 314 313 310 316 316 321 324 324 320 295 308 310 319 316 310 312 313 319 313 307 307 307 304 307 308 308 311 319 312 322 317 315 309 309 313 310 313 321 317 320 324 328 332 334
315 313 310 315 317 320 324 324 321 304 295 305 310 309 308 311 311 314 314 316 315 309 308 307 312 311 310 315 318 317 317 316 314 310 304 312 312 311 316 320 323 325 329 334 334
313 311 311 319 320 325 324 318 305 298 307 304 305 307 307 306 308 309 307 307 305 301 302 305 306 312 313 309 315 316 312 304 303 301 303 313 311 314 321 325 325 324 328 332 336
310 310 313 319 323 325 321 311 299 303 304 307 306 307 302 308 307 308 306 303 308 308 304 300 298 308 313 311 309 312 312 303 297 299 304 312 307 315 324 326 326 328 330 333 334
309 321 319 324 323 322 315 304 304 304 307 305 306 304 304 306 305 307 306 305 308 309 303 303 302 310 312 314 313 310 307 314 306 308 305 308 314 322 322 322 325 327 329 329 331
316 320 320 325 326 320 311 303 307 308 307 306 301 305 301 304 304 304 305 309 308 311 312 308 302 309 311 313 313 312 314 305 308 299 298 305 306 311 317 319 324 326 328 327 329
317 315 322 325 323 314 306 307 307 309 307 304 303 303 304 303 306 304 304 308 311 310 313 310 308 307 310 307 306 307 306 308 309 309 300 301 306 320 323 323 325 329 332 333 337
319 309 325 323 310 312 307 309 301 306 308 306 307 305 304 307 304 304 305 308 312 312 308 311 308 303 305 311 312 310 307 308 303 304 307 306 308 323 323 328 329 333 335 341 339
316 316 325 321 305 308 310 307 306 305 305 304 304 308 308 306 301 304 308 311 312 310 308 310 305 300 302 307 310 306 308 308 308 308 306 302 307 324 318 330 335 336 340 340 345
316 311 315 315 314 311 308 306 304 309 306 306 305 308 306 305 308 301 304 309 311 310 321 314 306 303 299 303 308 304 305 308 306 302 303 304 313 323 326 329 331 334 338 337 340
316 313 315 306 308 309 308 307 303 302 307 307 305 306 305 302 302 305 306 308 309 310 311 309 303 306 306 307 308 308 305 306 306 306 304 307 313 319 325 329 331 332 333 334 334
314 315 318 312 310 308 303 305 303 304 304 304 303 306 306 304 304 301 306 303 307 311 309 311 305 308 305 308 308 306 308 307 307 307 308 310 316 322 324 328 331 330 329 330 332
323 324 318 309 309 306 306 307 305 306 306 306 307 306 306 309 311 311 310 311 312 309 308 308 308 306 303 307 307 302 307 308 308 309 309 311 318 319 315 318 330 331 331 331 331

GFSSW_sfc_thetae_105.txt.gz
Theta_e
319 319 319 319 319 319 320 320 319 320 320 321 321 321 321 322 321 317 312 320 324 340 342 324 322 325 328 327 340 341 318 315 319 317 318 330 328 335 334 329 334 335 333 336 340
319 320 320 320 319 319 319 320 319 320 320 320 320 320 321 322 315 311 325 343 341 343 315 322 318 327 325 333 337 331 321 318 326 326 325 326 330 331 330 329 330 332 335 338 340
319 319 319 319 319 319 319 319 319 319 320 320 320 320 321 320 312 316 346 342 342 335 314 321 322 324 327 335 333 331 320 327 325 327 333 328 329 333 328 324 330 328 330 336 332
319 319 319 319 318 319 319 319 318 319 319 319 319 320 321 315 305 322 341 340 341 317 310 314 316 314 328 327 334 325 330 329 329 334 333 329 333 329 331 330 334 334 334 334 330
319 319 319 319 318 318 318 318 318 318 318 318 319 320 316 309 311 329 347 341 321 310 308 314 315 315 324 330 330 329 330 331 332 329 332 333 331 330 331 334 334 334 333 332 331
319 319 319 318 319 319 319 319 317 317 317 318 319 321 312 301 325 328 331 328 314 308 312 316 317 318 318 328 327 332 330 333 331 334 334 330 329 329 331 335 333 333 330 331 331
320 320 319 318 318 319 318 318 317 317 317 318 320 318 309 307 320 327 322 317 313 309 311 317 321 315 314 314 333 332 326 331 331 333 332 331 325 325 332 334 331 331 331 332 330
320 320 319 319 318 317 317 316 316 317 318 319 320 315 306 319 316 317 319 313 311 311 314 319 319 314 310 323 327 326 325 318 330 331 332 329 317 327 331 331 328 330 330 331 331
320 319 319 318 318 317 316 315 316 319 321 320 315 309 307 321 310 314 315 316 310 310 313 320 317 309 310 307 312 323 312 317 322 332 329 326 319 329 331 329 327 328 328 330 330
319 319 318 318 317 316 314 315 318 317 320 320 319 308 315 311 313 313 315 320 315 313 311 311 308 303 304 303 302 311 313 318 317 320 322 323 321 327 331 328 326 328 327 329 327
318 318 318 317 316 315 312 312 312 311 314 312 310 311 312 315 318 314 318 315 315 309 302 307 300 298 303 310 314 319 317 312 318 320 316 320 321 324 328 329 327 326 326 327 326
318 317 317 316 315 314 310 308 313 311 305 315 317 314 311 313 310 313 315 307 307 301 304 300 297 304 308 318 320 317 312 313 315 318 315 315 320 323 326 327 327 328 329 326 326
317 317 316 314 313 309 310 312 318 317 305 311 315 309 307 308 307 310 311 308 303 300 300 297 302 308 306 318 316 316 314 313 312 315 315 314 316 319 325 328 328 329 329 331 330
317 316 314 311 310 315 314 320 320 317 299 306 305 308 310 309 304 313 315 310 305 300 302 299 306 306 305 312 316 311 319 316 313 309 303 315 304 315 320 321 324 326 328 329 330
316 315 313 310 309 309 315 320 317 313 290 307 307 315 310 304 308 309 316 310 303 303 300 298 301 301 302 306 319 315 320 315 312 308 310 310 308 312 318 316 320 324 326 329 333
315 314 312 311 310 313 316 317 315 298 294 303 308 306 305 306 308 311 311 311 310 305 305 302 307 304 304 310 319 322 316 314 312 310 301 308 307 309 311 314 319 323 327 329 333
312 311 310 314 312 319 317 312 298 295 309 303 301 305 303 303 305 307 305 303 298 293 295 302 302 304 308 308 319 317 311 301 298 297 297 309 307 309 319 322 321 323 325 329 333
310 309 311 315 317 317 315 305 296 305 304 305 303 304 300 305 305 306 303 298 304 301 297 294 292 301 308 303 309 313 307 298 294 297 301 312 305 310 321 325 328 327 327 331 332
309 316 316 317 317 317 307 299 301 304 304 301 302 300 302 305 305 303 302 300 302 303 294 294 297 307 308 309 306 304 301 309 302 303 301 307 311 316 322 322 325 325 327 327 330
310 314 316 323 321 314 305 299 305 306 304 302 296 301 300 302 302 302 302 306 305 307 304 300 295 304 309 308 308 302 308 297 303 295 294 304 305 308 312 316 321 322 323 327 328
313 310 319 324 320 310 300 304 309 306 305 301 298 298 302 302 303 302 303 307 308 307 307 302 299 300 306 301 300 300 298 299 304 302 297 297 302 316 316 319 319 322 325 326 327
316 306 320 319 306 306 303 307 307 305 306 303 302 301 300 304 300 303 302 306 311 308 303 304 298 294 299 307 308 302 299 298 294 295 300 299 305 323 323 323 323 325 328 329 329
311 313 323 318 300 301 309 308 306 302 303 301 300 302 305 303 299 305 305 311 311 308 302 303 297 292 295 301 305 299 301 298 297 296 294 296 304 320 322 322 324 329 328 329 328
312 307 315 315 312 304 305 306 305 308 305 305 304 303 301 302 304 303 303 308 310 309 322 310 297 295 291 297 303 302 302 301 297 292 294 295 308 313 314 313 327 329 332 333 331
313 310 314 306 304 305 307 305 304 302 306 304 304 303 302 298 301 300 303 305 309 314 307 302 295 298 302 305 305 304 304 303 297 298 294 307 310 313 318 324 326 328 331 332 334
309 310 315 312 312 306 302 303 303 304 304 301 301 304 305 301 303 299 304 304 303 307 305 303 297 302 301 307 307 304 306 307 305 302 311 315 310 319 322 323 325 326 327 329 330
321 321 316 310 310 304 302 307 305 305 305 307 305 304 304 307 309 308 309 308 307 304 302 302 301 299 294 303 303 300 303 306 308 309 309 308 312 315 315 317 322 326 327 328 330

GFSSW_sfc_thetae_108.txt.gz
Theta_e
319 319 321 320 320 319 319 319 320 320 320 321 321 321 321 322 321 317 309 315 320 337 345 319 321 318 321 322 340 338 318 315 319 315 317 330 329 332 335 331 331 334 331 335 341
319 319 319 319 319 320 319 319 320 320 320 320 320 320 321 321 315 310 322 337 344 347 315 316 316 319 319 324 336 331 318 317 325 326 324 329 329 328 329 329 328 329 335 338 341
320 320 320 320 320 319 320 319 319 319 320 320 320 320 320 320 310 312 340 340 347 342 312 313 317 317 318 331 333 330 320 326 325 327 328 330 328 333 327 325 327 327 332 335 336
320 320 320 319 319 319 319 319 319 319 318 319 319 320 321 315 302 320 343 342 345 317 308 309 310 310 310 325 333 324 329 328 329 331 331 329 334 328 330 329 332 331 335 335 334
320 320 319 319 319 319 319 319 318 317 317 318 319 320 313 304 309 325 345 343 325 311 305 305 309 312 309 326 331 327 326 330 331 331 330 332 330 328 329 334 333 334 334 332 333
320 320 320 319 319 319 319 319 318 318 317 318 319 321 308 298 316 332 327 324 312 305 304 307 312 317 312 323 327 332 331 329 330 328 331 329 331 328 331 333 330 332 330 330 328
320 320 320 319 319 319 318 318 317 317 317 318 319 318 308 302 321 330 326 320 314 305 306 311 312 311 311 308 331 333 326 327 327 331 328 333 325 323 330 331 329 329 328 330 331
320 319 319 319 318 318 317 316 316 317 318 320 320 312 301 315 316 312 320 311 313 306 306 312 313 310 308 310 315 326 324 317 326 327 326 330 316 326 330 328 327 327 328 329 331
319 319 318 318 318 317 315 315 317 319 321 320 310 307 305 324 310 312 314 312 306 304 307 313 309 307 307 302 304 323 310 316 322 326 327 325 318 327 329 329 326 327 326 328 329
318 318 318 318 317 315 314 315 315 316 319 320 318 305 310 312 310 310 310 311 307 305 306 305 304 299 300 298 294 307 313 314 313 319 323 317 320 328 330 327 325 326 327 328 329
317 317 317 317 315 313 309 307 306 305 310 308 308 309 312 312 315 310 311 312 311 305 299 302 298 295 300 302 304 318 314 312 315 319 318 315 316 322 328 328 325 323 324 326 328
317 316 316 315 314 312 307 302 306 309 301 312 315 314 316 311 307 311 313 306 305 300 301 298 295 302 305 306 310 316 312 312 315 318 316 314 314 319 326 326 326 327 324 325 328
316 316 315 314 313 307 305 309 313 310 300 307 311 312 312 306 304 305 308 304 300 299 297 295 299 305 304 303 314 314 313 311 311 315 316 313 311 315 325 327 328 328 329 331 326
316 315 314 311 309 307 306 313 312 311 295 302 302 306 306 306 301 309 311 307 302 298 298 296 302 302 301 303 315 307 318 316 313 309 302 313 303 315 320 321 324 327 327 328 330
315 314 312 310 303 303 309 310 314 307 287 307 303 313 306 302 303 306 312 306 302 301 298 297 298 298 298 301 318 313 318 314 313 307 308 309 305 312 319 317 320 324 326 329 331
314 312 311 307 303 309 313 312 307 295 290 301 305 303 301 302 303 307 308 309 308 303 301 301 306 301 299 314 320 319 314 313 312 307 298 307 306 307 312 317 321 324 327 329 330
312 310 309 311 302 309 310 306 295 291 307 300 297 301 299 299 302 304 303 300 298 292 291 299 301 305 321 314 318 314 305 299 298 298 297 308 305 308 317 320 321 322 326 329 332
309 308 307 310 308 310 307 301 291 302 302 303 298 299 298 301 303 303 300 298 301 297 293 291 291 299 309 314 310 310 302 299 294 294 300 310 303 310 320 322 324 325 327 330 332
308 304 306 310 311 309 302 293 296 300 299 297 297 296 298 301 301 302 301 296 301 299 292 290 294 304 305 313 315 308 302 306 300 299 300 305 311 317 320 322 322 323 325 327 331
303 304 305 314 314 306 298 294 299 305 299 297 290 294 294 297 299 298 300 305 304 305 301 296 291 298 306 305 311 309 310 298 296 293 293 300 302 305 311 315 321 323 323 327 330
305 301 309 314 311 302 293 295 303 308 302 296 293 292 296 297 299 298 300 306 308 307 304 298 293 297 301 297 297 297 297 296 299 299 296 296 301 312 312 315 319 322 325 326 328
304 300 310 314 299 296 294 300 306 305 301 298 297 295 295 300 298 299 301 304 310 308 299 300 294 292 297 303 304 300 297 296 291 292 298 299 303 319 318 318 321 322 324 326 328
300 304 312 308 294 293 298 303 305 304 298 297 296 297 302 298 296 302 303 309 310 307 301 300 292 291 294 298 303 298 299 298 293 293 294 296 302 317 320 318 318 320 326 326 327
302 298 306 305 301 299 296 298 302 305 302 300 298 298 298 297 300 299 302 307 309 309 322 307 292 295 291 294 298 297 301 301 293 289 290 295 304 313 312 320 324 326 328 328 327
303 300 305 301 302 304 298 299 301 299 301 300 298 300 296 294 296 297 301 303 308 313 308 301 293 294 299 305 305 304 304 305 299 295 293 297 306 312 314 323 326 330 332 331 326
299 302 309 305 306 304 298 299 299 298 298 296 298 304 303 298 298 295 301 300 301 303 302 302 297 298 299 304 304 303 305 307 307 306 313 312 310 319 325 326 326 328 330 331 328
309 310 308 304 305 303 297 300 302 300 301 303 302 299 301 303 305 302 304 302 302 300 298 300 297 296 292 300 303 297 302 305 306 308 307 306 311 317 317 323 322 325 329 330 331

GFSSW_sfc_thetae_111.txt.gz
Theta_e
319 319 319 318 318 319 319 319 319 319 319 319 319 320 320 321 320 316 304 313 319 336 344 315 323 317 319 318 339 337 318 314 317 314 320 329 326 333 336 330 332 333 331 335 340
320 319 319 319 319 319 318 318 318 319 319 319 319 320 321 321 314 309 319 332 336 339 314 311 313 316 316 319 336 329 318 318 326 326 323 329 327 329 328 326 327 329 334 339 340
320 320 319 319 319 319 318 318 318 318 318 318 319 320 320 319 308 308 337 337 342 346 311 311 313 313 315 325 332 328 320 324 325 327 327 327 329 332 325 322 326 327 331 336 336
321 320 320 320 319 319 318 318 318 318 318 318 319 320 321 313 299 317 345 340 346 324 306 307 308 308 308 313 332 324 329 328 326 329 328 327 332 328 327 328 332 333 335 335 334
320 320 320 319 319 318 318 318 318 318 318 318 319 320 311 299 305 318 349 344 325 308 303 303 306 310 307 314 330 326 327 330 331 331 330 331 329 329 327 331 335 335 335 334 334
320 320 319 319 319 319 319 318 318 317 318 318 319 320 306 292 309 328 328 322 313 306 304 304 308 313 310 310 325 330 328 329 331 329 330 328 329 330 330 331 332 333 332 333 333
319 319 319 319 319 319 318 317 317 317 317 319 319 318 305 298 321 326 320 313 310 304 301 304 309 309 309 307 322 332 325 326 327 329 328 332 324 324 330 330 328 330 331 332 333
318 318 318 318 318 317 317 316 316 317 318 320 320 311 301 310 314 311 321 319 312 302 302 307 312 308 306 308 308 325 324 315 324 328 327 328 317 327 330 327 326 329 328 330 330
318 317 317 317 317 316 315 314 316 318 319 320 308 305 303 321 314 314 314 315 306 304 304 311 306 303 305 301 300 315 310 315 318 326 325 324 318 327 328 326 325 328 324 327 331
317 317 317 317 316 314 313 314 317 316 318 320 317 303 307 308 311 308 310 312 306 303 304 302 300 298 297 296 292 303 310 312 313 320 322 318 319 324 327 326 326 326 324 328 331
317 316 316 316 315 312 307 304 302 302 311 304 304 307 310 313 311 307 308 306 307 303 297 300 296 293 298 299 303 317 314 312 315 320 317 315 316 320 326 327 324 322 324 325 328
316 316 315 315 314 312 307 300 302 306 300 309 312 312 314 312 308 308 311 305 304 299 299 296 294 300 303 303 306 316 312 310 315 319 316 315 314 317 322 326 327 323 324 325 326
317 315 314 313 312 306 303 306 309 308 298 304 309 309 309 311 307 303 308 304 300 298 297 294 298 303 302 302 314 312 310 310 310 315 316 314 311 315 322 327 328 328 327 327 325
317 315 313 311 305 305 302 310 308 308 294 300 303 307 305 304 300 307 309 304 300 297 297 294 300 301 298 298 313 306 318 315 312 309 302 314 301 312 317 320 325 327 327 325 325
317 315 312 310 302 304 305 308 308 305 286 305 302 309 302 300 301 304 309 305 299 299 297 296 298 297 296 298 314 310 318 314 312 306 307 309 303 310 318 315 320 325 326 326 327
316 313 310 305 301 305 309 307 305 295 290 301 302 300 299 299 301 304 305 306 305 300 298 299 303 301 299 312 315 318 313 310 308 305 298 307 305 305 312 315 319 325 328 329 329
313 310 308 309 298 305 307 305 295 290 305 296 295 297 297 297 300 300 301 298 296 290 292 298 300 316 318 312 316 311 302 293 293 295 297 306 304 305 315 321 323 324 327 329 331
310 308 306 308 306 308 305 300 291 300 300 302 295 298 296 300 299 300 298 296 300 297 294 292 291 310 316 311 308 307 300 294 290 292 297 308 302 308 318 322 326 326 328 330 331
308 302 303 307 309 306 302 293 295 299 302 294 294 295 295 299 299 298 297 297 299 296 291 291 293 302 314 316 314 308 299 303 298 296 296 303 310 315 318 318 321 323 325 328 330
302 302 303 311 310 304 298 293 297 304 300 294 289 293 291 295 297 296 297 303 303 305 299 296 291 297 302 314 314 307 308 298 297 293 289 298 303 303 312 316 321 321 322 326 330
303 302 304 309 307 300 293 293 301 305 305 294 291 290 292 294 297 296 298 303 306 305 303 296 291 294 299 297 301 297 298 296 297 297 293 293 299 312 312 314 320 321 323 325 329
300 297 307 307 299 293 293 297 302 303 301 296 295 293 294 299 297 296 297 302 308 305 300 299 293 291 295 299 302 296 295 295 292 290 296 297 300 317 316 316 320 323 323 326 329
295 300 310 306 295 293 295 299 303 301 299 295 296 296 301 297 293 300 301 306 308 307 300 300 292 288 293 297 301 298 299 294 290 290 292 293 298 317 318 316 320 321 323 326 328
299 296 302 302 298 296 294 297 299 306 303 298 297 297 298 295 298 297 300 305 307 307 321 307 293 293 289 293 296 298 302 302 290 287 288 293 296 310 314 319 317 320 322 325 329
299 296 302 298 301 302 300 301 303 300 300 298 299 299 297 294 295 294 300 300 305 311 306 302 294 293 294 303 303 302 304 305 299 298 289 293 295 308 317 321 322 324 325 325 328
294 301 306 303 304 302 298 298 302 302 297 296 299 302 300 297 296 293 298 297 297 301 299 301 297 297 296 304 304 300 304 306 305 306 304 308 308 319 323 326 326 326 327 324 327
304 306 306 301 303 301 301 301 303 300 300 300 301 301 300 301 303 298 300 299 300 298 296 298 297 295 291 298 301 295 300 303 304 309 307 302 308 317 316 319 320 325 327 328 328

GFSSW_sfc_thetae_117.txt.gz
Theta_e
319 319 319 319 318 319 319 318 318 319 319 319 318 318 319 320 320 316 305 316 319 335 339 330 323 320 324 324 340 337 325 317 317 317 321 330 327 332 335 329 331 334 332 337 343
321 320 319 318 319 319 319 318 318 318 318 319 319 320 320 320 314 310 322 325 331 343 316 317 315 321 325 324 337 330 324 320 327 325 324 329 328 330 327 327 329 333 338 341 343
321 320 320 319 319 319 319 319 319 318 318 318 319 320 320 321 310 310 339 332 337 335 314 321 320 323 321 326 330 329 323 324 325 329 329 328 328 332 326 324 329 329 335 339 341
320 320 320 320 320 320 320 319 319 318 318 318 319 320 321 316 304 313 350 341 341 332 310 314 319 319 316 318 330 324 328 327 325 327 327 327 332 328 327 328 333 334 339 339 339
319 320 319 319 319 320 320 320 318 318 318 319 320 321 315 303 304 329 340 339 327 311 308 311 319 316 314 314 325 325 329 329 330 326 325 331 329 328 328 332 336 338 338 338 339
318 319 319 318 319 319 319 319 318 317 318 319 320 321 310 300 314 332 330 319 313 311 308 310 316 317 314 312 320 331 331 331 332 330 329 328 329 330 329 334 333 336 336 338 339
318 318 318 318 318 318 318 317 315 316 318 319 320 319 307 303 323 330 322 317 314 312 309 309 315 317 315 311 318 332 326 329 329 330 327 330 324 325 332 334 332 334 336 338 339
320 318 317 317 317 317 316 313 313 316 318 319 320 316 307 313 316 317 322 321 315 311 310 310 312 314 313 313 327 326 325 318 325 328 329 326 315 327 333 332 330 333 335 336 339
320 319 318 317 316 316 313 313 317 317 319 321 316 312 307 322 316 318 322 316 312 310 310 312 312 310 310 308 311 320 312 316 318 327 326 323 317 327 333 331 328 332 334 335 337
319 319 318 317 315 314 312 314 320 321 321 321 318 309 312 311 316 313 317 314 309 308 307 307 309 308 307 307 301 310 313 316 316 321 321 320 319 323 328 331 329 330 332 335 335
319 318 317 317 315 312 310 312 311 310 315 309 309 309 311 317 316 310 315 314 311 308 303 305 305 305 305 306 309 312 314 314 318 323 319 316 316 321 325 328 328 328 329 333 335
317 317 317 316 313 311 310 311 310 311 305 310 310 311 314 316 310 310 315 309 307 305 305 304 303 305 307 307 312 313 312 314 317 320 319 317 315 321 322 325 327 326 328 332 334
316 316 315 313 312 310 308 311 312 312 306 308 311 311 313 315 309 309 311 310 307 304 304 302 304 306 306 309 310 312 309 314 313 317 318 316 313 316 323 325 329 330 331 331 333
316 316 313 310 306 306 309 312 312 312 304 305 308 311 313 312 305 312 313 310 305 303 304 304 304 303 303 302 307 303 316 316 315 313 308 316 306 313 319 321 325 328 331 331 332
315 314 311 310 307 305 309 310 312 310 292 308 307 313 308 306 308 306 312 309 304 302 303 302 302 302 301 302 307 303 319 317 316 312 311 310 308 312 318 315 322 325 328 333 332
315 313 311 308 307 309 310 311 312 303 291 303 306 305 305 306 306 308 308 311 309 304 304 304 306 305 304 314 309 320 316 314 313 311 304 309 309 310 313 315 320 325 327 331 333
312 310 309 311 305 309 310 313 303 296 305 300 299 302 303 303 304 305 304 304 302 298 299 302 303 312 319 314 318 316 312 302 300 302 300 311 308 311 318 320 322 322 326 331 333
310 308 309 310 311 310 311 309 297 301 303 303 300 303 301 304 304 303 302 301 304 303 301 298 295 312 318 313 310 312 307 298 293 297 302 310 305 311 320 324 323 324 327 332 331
308 309 309 311 312 311 311 301 301 304 306 299 299 299 300 303 304 305 304 302 305 304 300 298 298 306 319 319 317 311 307 310 305 307 303 308 312 317 321 322 323 323 328 330 328
308 310 312 312 312 311 307 298 304 307 307 300 296 299 297 300 302 303 304 307 305 307 306 303 298 303 308 319 317 315 316 305 308 296 295 303 306 309 316 319 322 323 326 330 331
309 308 310 313 309 310 300 302 304 308 308 301 298 297 299 301 303 303 303 307 308 307 307 304 301 302 303 308 307 310 309 309 309 307 298 297 302 315 318 321 321 324 328 330 330
302 304 312 311 306 301 302 303 301 306 306 302 301 300 300 303 303 302 302 305 309 309 304 305 303 299 302 306 306 312 310 310 303 300 305 305 302 321 320 322 325 326 329 330 331
301 303 314 310 300 302 302 302 304 304 305 301 300 302 306 304 300 304 304 308 309 308 306 305 301 297 299 304 307 306 310 306 303 305 304 300 301 320 322 321 326 327 330 332 333
303 301 308 309 305 304 302 303 303 306 306 305 302 307 305 303 305 302 303 306 308 308 318 310 302 300 295 300 305 305 307 310 304 300 302 302 304 310 319 323 323 327 330 331 332
302 299 305 303 304 304 305 306 304 304 306 304 303 304 304 301 302 302 304 305 306 309 309 307 301 301 302 306 307 305 306 308 304 307 298 303 309 317 321 324 327 327 329 330 331
300 306 309 308 307 307 304 306 305 307 306 300 303 304 306 303 304 302 304 305 305 307 307 307 302 304 302 306 305 304 304 308 310 310 311 311 312 321 324 328 327 327 328 329 331
305 308 308 303 306 306 306 306 305 309 308 304 306 305 303 305 308 306 307 308 308 306 305 306 306 302 297 303 302 298 302 304 309 312 312 309 315 319 320 323 326 327 328 330 331

GFSSW_sfc_thetae_120.txt.gz
Theta_e
322 321 320 319 320 320 320 320 320 319 319 320 320 320 321 321 321 320 311 317 321 333 336 325 326 331 335 335 342 341 327 320 320 321 324 332 329 334 336 331 332 334 331 338 343
322 321 321 321 320 320 320 320 320 320 319 319 320 320 321 321 319 313 325 322 329 341 324 321 323 332 333 332 340 336 328 324 329 328 325 329 330 331 328 329 331 333 337 341 342
321 321 321 321 321 321 320 321 320 320 320 319 320 321 321 323 315 317 341 331 336 335 320 323 330 334 329 333 334 329 324 330 328 329 330 329 330 333 327 326 331 331 335 338 339
320 320 320 320 321 321 321 321 321 320 320 319 320 321 322 321 307 320 345 340 339 325 319 325 330 328 328 326 333 326 329 327 332 331 328 325 333 330 330 331 335 335 338 339 339
319 319 319 319 319 320 320 320 320 319 318 319 321 321 321 312 311 330 343 339 328 318 315 324 328 328 324 322 326 327 329 329 332 330 330 331 331 330 330 333 335 337 339 338 339
320 319 319 318 319 319 319 319 318 318 319 320 321 321 317 308 324 329 327 322 319 316 314 322 328 329 323 317 324 332 333 333 333 332 331 328 331 333 332 334 334 336 337 339 339
320 320 320 319 318 318 318 317 315 315 318 320 321 321 313 312 328 326 322 320 319 317 313 316 324 328 323 316 330 334 328 331 331 331 329 332 327 327 334 335 334 334 336 337 340
320 320 320 319 319 317 316 314 315 316 318 320 322 323 312 317 322 324 325 324 320 318 315 316 320 326 321 318 329 327 326 320 328 331 332 330 318 329 335 335 332 332 334 337 340
320 319 319 319 318 317 314 314 318 318 320 322 324 320 310 322 318 321 323 319 316 316 314 314 319 321 320 315 315 319 314 317 322 331 328 326 321 328 333 335 333 332 334 335 339
318 317 317 317 317 315 313 314 320 322 324 324 323 316 316 314 319 320 324 320 313 311 310 310 315 315 318 314 305 309 312 315 317 326 328 324 324 325 331 335 334 334 334 333 337
317 316 316 315 314 313 314 321 319 318 320 314 314 313 314 319 319 316 320 317 314 309 305 310 307 307 312 315 313 313 312 312 322 326 325 324 325 325 328 329 333 334 331 333 335
316 316 315 314 313 312 316 317 315 315 311 316 315 316 318 319 312 314 320 313 311 306 308 307 304 311 313 312 313 313 311 312 321 325 323 322 322 325 330 327 332 334 331 334 335
316 316 315 313 312 314 316 316 319 317 313 314 316 315 316 318 310 312 317 314 310 307 306 304 308 312 311 310 309 311 310 310 314 321 323 321 319 322 327 330 331 335 336 333 335
316 316 314 310 311 315 316 318 318 317 309 308 312 315 318 317 309 316 318 314 309 306 307 307 310 308 309 307 310 306 313 312 318 315 311 320 307 320 324 327 328 329 334 330 334
315 314 312 310 317 313 316 317 321 318 297 310 311 319 316 311 311 311 317 313 307 307 308 305 306 306 305 306 309 306 313 313 318 315 314 314 311 316 324 323 325 329 333 330 335
314 313 311 316 317 317 316 318 319 306 295 306 310 308 308 310 310 312 311 315 313 308 308 307 310 308 308 310 309 314 313 316 318 315 305 310 312 312 319 321 324 327 331 334 337
312 311 311 317 316 317 317 318 306 300 308 303 304 308 308 307 308 309 308 308 306 302 302 305 306 309 310 308 312 314 310 303 301 302 301 315 310 314 321 326 327 327 330 335 338
310 309 313 316 320 317 314 311 301 304 304 306 306 308 305 308 308 307 307 305 309 307 305 301 299 307 313 310 309 310 309 302 295 298 302 314 306 315 324 326 329 332 332 336 337
309 320 317 321 319 318 312 304 304 306 307 304 306 304 305 307 308 308 307 306 308 309 303 303 301 310 315 316 316 310 308 312 305 306 303 306 313 320 324 324 327 328 328 329 333
316 316 319 320 319 315 310 303 309 310 309 306 302 304 301 304 305 305 306 309 308 311 313 307 301 308 313 319 319 317 318 306 306 298 297 302 307 309 316 321 325 327 327 328 333
315 311 317 321 316 312 305 308 311 312 310 304 302 301 302 301 304 304 305 310 311 310 312 310 306 305 310 310 308 312 311 312 310 308 299 298 304 316 319 323 325 327 330 330 333
311 305 317 318 307 309 306 309 305 310 312 307 306 304 303 303 303 304 304 308 312 310 306 310 306 302 305 311 312 310 311 311 305 303 308 306 304 322 324 325 327 328 328 331 335
312 311 319 316 303 305 309 308 310 310 309 306 304 306 308 304 301 303 305 311 312 309 307 310 303 299 301 307 311 308 311 313 311 311 300 301 303 321 325 326 328 329 332 331 334
310 304 311 311 313 308 305 306 307 310 309 309 306 308 307 306 308 304 304 309 311 310 316 312 303 301 297 301 305 307 309 312 311 305 303 304 308 312 322 325 328 330 333 333 333
309 305 311 303 306 308 308 306 306 307 311 312 308 307 306 304 304 304 306 307 310 310 312 310 302 304 304 305 308 307 308 309 309 309 305 306 308 315 322 324 331 331 333 333 334
307 308 315 312 313 308 304 307 306 309 310 306 307 308 308 306 305 303 306 307 306 311 311 312 304 306 303 305 307 305 307 308 310 311 312 313 312 326 327 328 332 330 331 331 333
312 313 311 306 311 309 306 307 307 310 313 313 309 308 306 308 310 312 313 311 311 309 308 308 307 305 300 304 305 301 305 307 309 312 312 308 317 324 325 324 326 332 333 333 334

GFSSW_sfc_thetae_123.txt.gz
Theta_e
323 322 322 322 322 322 322 321 321 322 321 321 321 321 322 322 322 323 317 318 323 331 335 328 326 333 339 339 341 341 328 318 320 320 325 331 329 335 334 330 331 332 333 338 340
322 322 322 321 322 322 322 322 322 322 322 321 321 321 322 323 323 317 324 331 327 336 326 323 323 333 333 333 337 334 325 323 331 328 325 329 330 331 328 328 329 332 338 339 340
321 321 321 321 321 322 322 322 322 322 321 321 321 322 322 324 321 322 336 333 335 340 328 325 326 333 331 334 334 331 326 331 329 330 331 330 330 333 328 324 330 330 334 337 338
321 321 320 320 321 321 321 322 322 321 321 320 321 322 323 324 311 329 344 340 340 329 321 323 326 329 328 326 335 327 331 331 332 332 326 323 330 329 329 330 334 335 337 337 337
321 321 321 320 320 320 320 320 320 320 320 321 321 322 323 318 316 336 348 337 325 323 318 323 327 329 325 326 329 328 330 330 335 332 327 328 327 330 330 334 335 337 337 336 336
320 320 321 321 320 320 320 319 318 317 318 320 322 322 324 312 328 332 326 323 321 318 317 324 328 332 327 323 326 330 332 333 334 330 332 326 329 335 332 334 334 335 335 337 336
319 320 320 321 320 320 319 318 316 316 317 320 322 324 319 318 329 327 323 320 319 319 315 322 330 329 328 320 331 332 327 332 332 333 331 331 326 329 335 334 333 332 335 336 336
319 319 319 319 319 319 318 316 316 319 318 320 322 326 315 325 330 326 326 323 322 321 320 319 327 329 326 325 328 325 327 320 330 331 332 329 319 331 335 334 332 331 333 334 335
318 318 318 318 317 316 315 315 319 320 321 323 326 326 313 319 318 324 326 322 320 318 317 316 323 323 324 316 316 320 312 316 324 332 331 329 319 329 335 333 330 331 332 333 336
318 318 317 316 316 314 313 315 321 320 324 328 326 319 317 316 320 321 324 323 315 314 312 312 317 318 318 315 307 311 312 314 317 329 330 326 324 331 331 332 331 332 333 332 336
318 317 316 316 315 313 315 324 323 322 325 318 317 315 316 321 322 319 322 319 317 312 307 311 308 308 312 316 316 314 314 312 322 328 326 325 325 330 331 329 330 331 332 331 334
317 316 316 315 314 313 316 321 319 319 314 317 316 316 318 320 313 316 321 313 312 306 310 308 305 311 314 315 313 313 311 312 321 326 325 323 323 329 333 329 330 330 333 331 333
317 316 315 314 313 316 321 321 324 323 315 314 318 317 317 319 312 314 317 316 311 309 308 307 309 313 312 311 310 312 311 312 312 323 325 322 319 324 330 334 332 333 334 335 333
316 315 314 312 314 322 319 324 324 324 310 310 313 316 318 319 311 317 320 315 311 309 309 308 313 310 310 309 311 307 314 312 311 315 308 322 306 321 327 328 332 332 334 336 333
316 315 313 311 321 317 321 323 325 322 300 312 313 322 319 314 314 313 319 315 310 308 310 308 308 308 307 309 311 308 313 311 312 313 313 314 312 314 325 325 328 331 333 336 336
314 313 312 319 323 322 323 322 322 307 298 308 312 311 311 313 312 314 313 317 316 309 310 310 314 311 310 310 310 312 310 312 315 313 305 310 310 311 318 325 329 332 334 334 335
312 311 312 321 322 322 321 319 306 301 311 307 308 311 310 310 310 311 310 309 307 304 304 307 308 310 311 307 313 310 309 303 302 303 302 312 310 312 317 328 328 331 334 335 338
310 309 316 322 327 324 319 311 301 308 308 311 308 309 307 310 310 310 309 308 310 309 307 303 301 308 311 309 309 309 309 303 298 300 304 313 307 314 321 327 328 331 335 337 336
309 325 323 325 323 321 313 303 305 310 311 307 308 306 306 308 309 309 309 309 311 311 306 305 303 311 313 313 312 310 307 312 306 307 303 309 313 319 322 320 326 328 332 331 335
317 321 322 324 322 316 308 301 310 314 312 310 304 308 305 307 306 307 309 311 309 312 314 310 303 310 311 314 316 312 318 306 306 299 298 304 306 312 316 316 322 326 330 333 335
318 315 321 322 319 311 303 306 311 316 313 309 306 305 306 305 306 307 307 312 312 313 314 312 308 307 311 310 309 311 309 310 310 309 301 300 306 313 317 320 325 326 329 331 332
318 308 321 320 305 307 305 310 312 315 314 311 310 308 306 306 306 305 306 310 314 313 308 312 308 304 307 312 314 314 312 312 305 304 305 304 304 319 322 320 326 326 329 332 336
314 315 321 316 300 303 308 309 313 313 311 310 307 309 309 306 304 306 307 313 313 311 308 311 306 300 303 307 312 308 310 310 312 311 307 304 308 320 324 320 325 329 335 333 336
314 306 313 311 311 308 308 308 309 314 313 312 309 310 308 307 309 306 305 309 311 310 321 313 304 301 297 302 307 306 309 311 309 305 306 307 308 313 315 323 323 327 334 333 336
315 309 314 305 305 307 311 309 307 308 313 313 310 308 308 306 307 306 307 308 311 312 310 309 303 305 305 305 305 305 308 304 302 310 305 308 309 315 312 322 328 330 333 334 332
310 310 314 311 314 307 305 307 306 310 311 309 309 310 309 307 309 306 308 309 308 313 311 312 305 307 304 306 305 303 307 307 308 310 309 312 309 324 330 332 333 331 332 332 334
315 314 311 307 309 310 308 307 308 310 313 314 312 311 309 310 314 313 313 312 312 309 309 310 307 305 301 306 305 302 305 306 309 311 309 306 315 322 326 327 328 331 334 331 336

GFSSW_sfc_thetae_129.txt.gz
Theta_e
323 323 322 322 323 323 323 323 324 324 324 324 324 324 324 324 323 319 313 321 325 337 337 318 324 320 323 321 333 337 319 314 318 319 323 326 326 329 333 329 331 332 328 330 335
323 323 323 323 323 323 323 323 323 323 323 323 323 323 324 324 318 313 328 339 339 336 315 315 319 320 317 324 331 330 316 318 328 326 320 323 329 330 327 327 327 329 331 333 334
321 321 321 321 323 323 323 323 323 322 322 323 323 323 323 322 316 317 344 339 340 333 316 317 319 319 318 329 329 329 320 325 326 328 324 325 326 330 328 323 326 324 326 330 332
320 321 321 321 321 323 323 323 322 321 321 322 322 323 324 319 309 324 343 341 341 323 320 319 315 312 314 324 327 324 332 328 332 331 325 321 328 327 326 328 333 330 330 329 330
320 320 320 320 320 320 321 322 321 320 320 320 321 323 318 314 315 334 347 339 321 318 319 316 311 313 315 326 328 323 328 333 333 329 323 326 324 327 329 330 334 332 331 328 329
319 319 319 319 319 320 319 318 318 318 319 320 321 322 315 307 327 332 325 318 315 315 314 315 311 319 321 325 328 329 330 332 333 326 325 323 327 327 330 335 333 331 329 330 331
318 318 318 318 318 319 318 317 317 318 320 321 321 321 314 314 327 328 318 313 313 314 311 313 313 313 321 319 333 329 326 330 330 329 329 329 324 323 331 334 331 329 329 332 333
319 319 319 318 318 317 316 316 317 319 322 323 321 318 313 326 322 320 318 316 317 313 312 314 314 313 315 322 323 324 322 316 318 324 334 326 313 325 328 328 327 332 330 332 332
318 318 318 318 318 317 315 316 317 321 323 321 316 314 314 325 318 321 320 316 314 313 313 318 310 306 311 310 308 310 307 316 318 328 330 325 315 324 327 327 330 329 331 330 330
318 316 316 317 316 315 314 315 320 319 323 323 323 312 320 312 315 318 320 321 316 310 309 306 301 299 303 302 298 302 309 316 316 324 327 321 319 323 325 326 329 325 332 331 328
315 316 316 316 315 314 312 313 315 312 316 314 314 316 317 317 318 313 317 315 315 307 299 302 295 294 301 306 311 313 315 317 323 329 323 320 320 321 325 327 329 324 325 328 329
316 316 315 315 314 313 311 309 316 313 306 318 318 318 316 316 311 314 317 308 308 302 303 297 293 302 308 309 310 309 308 316 322 326 319 320 320 325 324 325 328 326 323 329 334
316 316 315 314 313 313 313 315 320 318 306 312 318 314 311 310 310 310 312 310 305 303 301 297 301 306 305 304 305 306 303 308 315 321 320 317 310 320 326 327 330 327 324 331 333
316 315 314 311 313 317 317 321 321 318 301 308 308 313 314 312 307 316 314 311 308 304 304 300 306 307 304 304 306 301 309 310 319 312 300 314 300 311 321 324 325 326 326 327 330
316 314 312 311 311 314 320 322 317 313 291 311 310 318 314 308 309 310 315 310 305 306 303 302 304 304 304 306 308 303 309 307 309 303 300 308 303 307 320 321 323 325 329 331 328
315 313 311 315 312 318 323 324 314 299 294 306 311 309 308 310 310 311 310 311 311 306 307 304 310 306 305 309 308 310 305 303 302 300 293 301 306 303 313 321 325 326 331 332 327
312 311 310 314 310 318 315 313 296 294 310 306 305 307 306 306 307 306 305 301 299 294 296 303 305 306 309 302 305 303 295 289 289 290 293 303 303 308 315 327 328 326 328 332 333
310 309 312 314 316 315 316 302 292 302 303 309 308 306 303 306 306 306 303 300 305 303 299 296 293 303 307 301 299 300 296 289 287 293 297 305 302 308 322 325 330 330 329 331 332
309 316 317 320 317 318 310 295 297 303 309 309 305 302 302 305 304 305 303 303 306 304 299 297 299 307 308 306 302 298 295 301 293 293 292 300 308 314 316 319 323 326 328 328 332
308 313 315 322 324 317 305 295 300 307 308 308 301 303 299 303 302 300 302 307 307 310 307 301 296 304 307 308 307 300 304 297 298 289 289 302 304 304 310 317 322 323 324 329 332
311 312 320 322 321 310 300 299 302 306 307 303 304 302 303 304 304 301 302 308 311 310 307 305 300 301 305 301 301 300 298 300 299 297 293 291 299 311 313 315 318 322 328 328 332
313 306 319 320 306 306 302 304 302 304 307 305 309 306 304 306 304 303 305 307 312 311 303 304 297 294 299 306 310 306 302 301 295 294 297 297 298 314 317 320 320 324 327 326 332
308 311 321 317 300 300 304 305 306 304 304 305 307 308 307 303 299 304 308 312 312 308 302 302 297 292 294 297 303 301 302 305 302 299 297 294 298 314 315 317 320 323 327 328 329
310 306 312 314 311 305 302 301 301 308 306 307 306 309 305 302 303 303 306 310 310 308 320 308 296 294 289 291 297 297 300 301 301 295 295 298 301 308 312 315 324 328 327 320 327
312 309 310 304 306 306 307 306 303 301 308 309 309 307 304 298 300 302 306 305 308 315 305 299 292 294 297 300 302 301 300 301 296 300 296 297 300 307 312 312 317 327 328 328 326
309 308 311 307 308 305 304 306 305 303 305 305 307 309 307 302 303 302 304 304 303 304 303 301 294 297 299 303 302 300 302 301 301 303 303 303 303 317 315 316 316 325 324 327 328
316 316 311 305 306 303 303 304 305 308 311 312 309 309 307 306 309 309 310 309 308 304 303 302 298 298 293 301 300 295 302 303 304 306 304 298 305 316 313 315 318 323 325 326 327